     2.11           OBSERVATION DATA    G (GPS)             RINEX VERSION / TYPE
teqc 2010Oct21 OPUS Account 20111030 16:43:55UTC            PGM / RUN BY / DATE
C 1524                                                      MARKER NAME
1207                                                        MARKER NUMBER
CSMIDDLETON NGS                                             OBSERVER / AGENCY
0220316069 TRIMBLE 5700 1.30                                REC # / TYPE / VERS
12469273 TRM41249.00 NONE                                   ANT # / TYPE
  -755280.7543 -5524619.0622  3086356.9371                  APPROX POSITION XYZ
        2.0000        0.0000        0.0000                  ANTENNA: DELTA H/E/N
     1     1                                                WAVELENGTH FACT L1/2
     5    L1    L2    C1    P1    P2                        # / TYPES OF OBSERV
    15                                                      LEAP SECONDS
  2011     9    29     0     0   30.0000000     GPS         TIME OF FIRST OBS
                                                            END OF HEADER
 11  9 29  0  0 30.0000000  0  9G29G12G02G25G21G15G05G30G26
 -35383082.60558 -27554530.27656  21843700.1484                   21843699.0274
 -66344521.59458 -51678597.67655  22377767.0864                   22377766.2304
 -85947679.36357 -66953500.57455  22169387.0164                   22169383.5164
 -50953878.32058 -39685335.68556  21842430.8134                   21842432.2774
  -1378204.19156  -1059477.71353  25170951.9454                   25170951.9414
 -11255924.98857  -8753155.73654  23700763.0394                   23700763.5234
 -67166105.14158 -52318407.94856  20808172.0474                   20808170.5984
 -25792816.51657 -20080741.37554  22836738.1174                   22836737.8554
 -23685908.99657 -18438597.32054  22838238.8204                   22838238.2774
 11  9 29  0  1  0.0000000  0  9G29G12G02G25G21G15G05G30G26
 -35563055.19148 -27694768.59446  21809452.0784                   21809451.2074
 -66366470.41847 -51695700.69045  22373589.8364                   22373589.6684
 -86008414.39147 -67000826.56345  22157829.3524                   22157825.9184
 -51023318.19148 -39739444.68746  21829216.6724                   21829218.2074
  -1540923.88346  -1186272.05143  25139987.4224                   25139988.6884
 -11458128.12147  -8910716.35444  23662284.5864                   23662285.6804
 -67222431.87148 -52362298.90546  20797453.6804                   20797452.0164
 -25909315.03147 -20171519.42744  22814569.3674                   22814569.2584
 -23877423.01647 -18587828.95345  22801795.1724                   22801795.0234
 11  9 29  0  1 30.0000000  0  9G29G12G02G25G21G15G05G30G26
 -35742766.75447 -27834803.52246  21775254.6094                   21775253.3794
 -66388090.16047 -51712547.26145  22369476.2424                   22369475.8444
 -86068993.65647 -67048031.16645  22146301.4614                   22146298.4024
 -51092191.99248 -39793112.58546  21816110.5554                   21816111.9064
  -1703574.96546  -1313013.03543  25109036.0004                   25109037.3874
 -11660243.00047  -9068208.24644  23623823.3754                   23623824.1334
 -67278276.57448 -52405814.25746  20786826.8364                   20786824.8874
 -26025172.03947 -20261797.60044  22792522.5084                   22792522.2854
 -24068605.50047 -18736802.22944  22765414.1954                   22765413.6724
 11  9 29  0  2  0.0000000  0  9G29G12G02G25G21G15G05G30G26
 -35922213.68448 -27974632.23046  21741106.4304                   21741105.8674
 -66409382.07847 -51729138.40745  22365424.6094                   22365423.8954
 -86129415.26247 -67095112.91545  22134803.5234                   22134800.3014
 -51160500.10948 -39846339.71546  21803111.9224                   21803113.0824
  -1866156.51646  -1439699.81043  25078097.1954                   25078098.2234
 -11862264.99247  -9225627.73144  23585379.8754                   23585380.3364
 -67333640.19148 -52448954.73746  20776291.4064                   20776289.6844
 -26140386.10547 -20351574.80645  22770597.8594                   22770598.4184
 -24259450.96147 -18885512.92844  22729096.8594                   22729096.9924
 11  9 29  0  2 30.0000000  0  9G29G12G02G25G21G15G05G30G26
 -36101397.11747 -28114255.61746  21707009.0394                   21707008.5664
 -66430353.44947 -51745479.75645  22361433.9304                   22361433.5164
 -86189682.62947 -67142074.49745  22123334.7734                   22123331.8364
 -51228248.23848 -39899130.45846  21790219.7344                   21790220.9454
  -2028672.62546  -1566335.53343  25047171.4774                   25047172.5784
 -12064194.78547  -9382975.38744  23546953.4844                   23546954.0004
 -67388528.46548 -52491724.82946  20765846.7344                   20765844.3554
 -26254961.38747 -20440854.23044  22748795.5944                   22748795.0044
 -24449959.35947 -19033960.93845  22692844.6804                   22692844.3634
 11  9 29  0  3  0.0000000  0  9G29G12G02G25G21G15G05G30G26
 -36280314.89547 -28253672.01346  21672962.2344                   21672961.2894
 -66451006.82447 -51761573.33945  22357503.8914                   22357503.1134
 -86249795.53947 -67188915.71845  22111895.7504                   22111892.9414
 -51295438.31248 -39951486.37346  21777433.9774                   21777435.3284
  -2191123.77746  -1692920.79743  25016257.3914                   25016258.7584
 -12266029.46946  -9540248.95644  23508545.2664                   23508546.0354
 -67442943.80948 -52534126.39246  20755491.6024                   20755489.8594
 -26368898.06247 -20529636.08645  22727113.7344                   22727114.0474
 -24640127.10547 -19182143.52544  22656656.7114                   22656656.1914
 11  9 29  0  3 30.0000000  0  9G29G12G02G25G21G15G05G30G26
 -36458963.32047 -28392878.53446  21638966.2194                   21638965.7544
 -66471343.82447 -51777420.37445  22353633.6174                   22353633.3204
 -86309752.41847 -67235635.34545  22100486.5554                   22100483.3364
 -51362071.12148 -40003408.06046  21764753.9614                   21764755.5824
  -2353509.45746  -1819454.91743  24985357.1724                   24985357.1214
 -12467764.74247  -9697445.09244  23470155.9064                   23470157.0314
 -67496887.20348 -52576160.21746  20745226.8984                   20745224.9924
 -26482195.30547 -20617919.66345  22705554.2344                   22705554.3404
 -24829948.99247 -19330056.57944  22620534.5474                   22620534.4184
 11  9 29  0  4  0.0000000  0  9G29G12G02G25G21G15G05G30G26
 -36637341.42648 -28531874.40146  21605022.1254                   21605021.1844
 -66491368.73447 -51793024.24445  22349823.1024                   22349822.3984
 -86369554.30947 -67282234.21745  22089106.4384                   22089103.3164
 -51428149.73048 -40054897.90046  21752179.8834                   21752180.9694
  -2515831.18746  -1945939.24943  24954468.2424                   24954468.2114
 -12669398.75046  -9854562.28044  23431786.4534                   23431786.7934
 -67550361.90248 -52617828.81346  20735050.4774                   20735048.8324
 -26594854.44947 -20705706.01045  22684115.8524                   22684115.4104
 -25019422.53147 -19477698.20445  22584479.0084                   22584478.9734
 11  9 29  0  4 30.0000000  0  9G29G12G02G25G21G15G05G30G26
 -36815447.09048 -28670657.96946  21571129.6724                   21571128.4344
 -66511085.16047 -51808387.73445  22346071.1174                   22346070.4534
 -86429201.29747 -67328712.38045  22077756.3594                   22077752.8364
 -51493676.66448 -40105957.84846  21739710.0944                   21739711.5314
  -2678090.11346  -2072374.65343  24923591.0784                   24923591.9264
 -12870928.82846 -10011598.52044  23393436.2664                   23393436.9304
 -67603370.59848 -52659134.28646  20724963.3524                   20724961.4694
 -26706876.45347 -20792995.89944  22662798.3134                   22662798.8554
 -25208544.45347 -19625065.80544  22548490.3364                   22548489.6254
 11  9 29  0  5  0.0000000  0  9G29G12G02G25G21G15G05G30G26
 -36993278.31248 -28809227.70846  21537289.7274                   21537288.6094
 -66530495.85547 -51823512.99545  22342377.3524                   22342376.8404
 -86488693.33247 -67375069.80045  22066435.1334                   22066432.1684
 -51558654.25448 -40156589.75246  21727345.5944                   21727347.0314
  -2840286.61346  -2198761.34343  24892725.6024                   24892726.5554
 -13072352.40646 -10168551.76144  23355106.0474                   23355107.1094
 -67655915.90248 -52700078.68446  20714964.5394                   20714962.6374
 -26818261.99647 -20879789.83945  22641602.8594                   22641602.9024
 -25397311.28947 -19772156.72144  22512568.7974                   22512568.2384
 11  9 29  0  5 30.0000000  0  9G29G12G02G25G21G15G05G30G26
 -37170831.48848 -28947580.77246  21503502.3134                   21503501.2894
 -66549603.23047 -51838401.91345  22338741.5474                   22338740.7734
 -86548029.06247 -67421305.40145  22055144.0084                   22055140.7774
 -51623083.37948 -40206794.27046  21715085.1564                   21715086.7814
  -3002420.14146  -2325099.01943  24861872.8054                   24861873.2504
 -13273665.17646 -10325418.64544  23316797.7814                   23316798.7074
 -67707998.88348 -52740662.82246  20705053.3754                   20705051.5004
 -26929010.24647 -20966087.15145  22620527.7814                   22620528.0044
 -25585718.24647 -19918967.18144  22476716.1484                   22476715.8984
 11  9 29  0  6  0.0000000  0  9G29G12G02G25G21G15G05G30G26
 -37348106.17648 -29085716.82246  21469767.9614                   21469766.8014
 -66568411.62547 -51853057.83845  22335162.2814                   22335161.7424
 -86607210.19147 -67467420.56145  22043881.9924                   22043878.7814
 -51686967.98848 -40256574.48646  21702928.3914                   21702929.6134
  -3164492.86346  -2451389.40643  24831031.4224                   24831031.8554
 -13474865.82446 -10482198.18544  23278510.0634                   23278511.2194
 -67759623.62148 -52780889.89246  20695229.2894                   20695227.9104
 -27039123.53947 -21051889.72145  22599574.0634                   22599574.4144
 -25773763.23047 -20065495.58344  22440932.3134                   22440932.1054
 11  9 29  0  6 30.0000000  0  9G29G12G02G25G21G15G05G30G26
 -35949670.21148 -27996026.39746  21735881.3364                   21735880.2624
 -65011500.22747 -50639880.15445  22631433.2194                   22631432.1174
 -85090810.35547 -66285810.29245  22332443.6334                   22332439.8134
 -50174884.20348 -39078327.38346  21990668.3204                   21990669.7704
  -1751076.39146  -1350025.80243  25099995.6884                   25099996.2934
 -12100520.86746  -9411279.86544  23540039.3204                   23540040.6844
 -66235366.81248 -51593157.30946  20985285.7034                   20985284.0274
 -25573174.86347 -19909592.04945  22878535.0164                   22878534.9844
 -24386012.57847 -18984131.31944  22705012.2814                   22705011.6914
 11  9 29  0  7  0.0000000  0  9G29G12G02G25G21G15G05G30G26
 -36126376.63348 -28133719.67146  21702255.5474                   21702254.2074
 -65029716.53547 -50654074.71945  22627966.1724                   22627965.5554
 -85149676.64547 -66331680.11245  22321241.5164                   22321238.0904
 -50237681.91848 -39127260.68246  21978718.5004                   21978719.4804
  -1913025.21947  -1476219.57643  25069178.4144                   25069178.3524
 -12301484.43046  -9567874.62544  23501797.0164                   23501797.9344
 -66286077.76248 -51632672.30846  20975635.8754                   20975634.1994
 -25682015.73047 -19994403.08645  22857823.2274                   22857823.3914
 -24573318.69947 -19130083.98945  22669369.0784                   22669368.7934
 11  9 29  0  7 30.0000000  0  9G29G12G02G25G21G15G05G30G26
 -36302796.45348 -28271189.60346  21668683.8364                   21668682.7894
 -65047641.76647 -50668042.47145  22624555.1644                   22624554.9694
 -85208386.48047 -66377428.00945  22310069.3054                   22310066.1564
 -50299940.32848 -39175773.73346  21966870.9384                   21966872.2544
  -2074913.75847  -1602366.36143  25038370.9694                   25038372.1564
 -12502325.49246  -9724373.98644  23463578.2814                   23463578.8594
 -66336336.21148 -51671834.74046  20966071.8524                   20966070.0594
 -25790221.98447 -20078719.64545  22837232.1804                   22837232.0984
 -24760250.60547 -19275745.08445  22633796.9614                   22633796.6994
 11  9 29  0  8  0.0000000  0  9G29G12G02G25G21G15G05G30G26
 -36478928.88348 -28408435.59946  21635166.7974                   21635165.3324
 -65065280.45347 -50681786.94945  22621198.6094                   22621198.5594
 -85266941.04748 -66423054.94845  22298926.8594                   22298923.6524
 -50361663.05148 -39223869.34646  21955125.7424                   21955126.9964
  -2236743.83246  -1728467.60543  25007575.6564                   25007576.2034
 -12703042.80147  -9880776.93444  23425382.8594                   23425383.5044
 -66386145.82448 -51710647.40846  20956593.7584                   20956591.7664
 -25897795.82847 -20162543.39445  22816761.8674                   22816761.6254
 -24946806.02047 -19421112.81345  22598296.6334                   22598296.3324
 11  9 29  0  8 30.0000000  0  9G29G12G02G25G21G15G05G30G26
 -36654769.85948 -28545454.47446  21601705.3444                   21601704.0984
 -65082634.72747 -50695309.79645  22617896.7344                   22617895.9144
 -85325338.35548 -66468559.32645  22287814.4844                   22287810.9104
 -50422850.87948 -39271548.16646  21943481.8444                   21943483.1254
  -2398514.54346  -1854522.68243  24976792.3284                   24976792.1294
 -12903631.58247 -10037079.68345  23387211.7114                   23387213.0124
 -66435507.61348 -51749111.12746  20947200.2894                   20947198.5004
 -26004736.27347 -20245873.59745  22796411.2504                   22796411.7624
 -25132979.96547 -19566183.31045  22562868.6174                   22562868.9104
 11  9 29  0  9  0.0000000  0  9G29G12G02G25G21G15G05G30G26
 -36830317.84048 -28682245.06746  21568299.6564                   21568298.4844
 -65099707.84447 -50708613.56745  22614647.9224                   22614646.5904
 -85383578.91047 -66513941.56345  22276731.0784                   22276728.1254
 -50483506.80948 -39318812.52946  21931939.2274                   21931940.2704
  -2560227.06246  -1980532.26343  24946019.2734                   24946019.0634
 -13104089.78547 -10193280.70745  23349066.0784                   23349066.5204
 -66484424.61348 -51787228.26146  20937891.6644                   20937890.1094
 -26111044.99247 -20328711.54045  22776181.2814                   22776181.8444
 -25318769.64547 -19710954.40945  22527514.4384                   22527513.7384
 11  9 29  0  9 30.0000000  0  9G29G12G02G25G21G15G05G30G26
 -37005568.08648 -28818803.64046  21534950.4224                   21534949.2624
 -65116500.82447 -50721699.03145  22611452.2814                   22611451.2544
 -85441659.84448 -66559199.42445  22265679.1334                   22265675.5864
 -50543630.60248 -39365662.23146  21920498.1334                   21920499.7464
  -2721879.50446  -2106495.00343  24915257.2274                   24915257.3554
 -13304411.75047 -10349375.58244  23310945.9614                   23310946.6954
 -66532896.64548 -51824998.66046  20928667.8524                   20928666.1134
 -26216719.96947 -20411055.65645  22756071.8594                   22756072.1914
 -25504168.75447 -19855421.17445  22492233.7814                   22492233.6174
 11  9 29  0 10  0.0000000  0  9G29G12G02G25G21G15G05G30G26
 -37180522.44948 -28955131.65046  21501657.6644                   21501656.4264
 -65133020.71947 -50734571.73345  22608308.8914                   22608307.5554
 -85499585.19947 -66604336.08345  22254656.2504                   22254653.1024
 -50603228.68748 -39412102.28146  21909156.8364                   21909158.5664
  -2883476.57046  -2232414.70243  24884506.1174                   24884506.7974
 -13504598.48847 -10505365.08845  23272851.5944                   23272852.2424
 -66580930.30548 -51862427.46846  20919527.4774                   20919525.3834
 -26321766.21547 -20492909.83945  22736082.7894                   22736082.8754
 -25689177.71547 -19999583.93045  22457028.0314                   22457027.5904
 11  9 29  0 10 30.0000000  0  9G29G12G02G25G21G15G05G30G26
 -37355179.16048 -29091227.74046  21468422.0554                   21468420.3674
 -65149271.30947 -50747234.55845  22605216.6094                   22605215.0434
 -85557355.44947 -66649351.85745  22243662.7504                   22243659.6954
 -50662304.12948 -39458135.09146  21897915.7664                   21897917.0084
  -3045019.79346  -2358292.39843  24853765.5474                   24853765.8094
 -13704648.27047 -10661247.85945  23234782.7194                   23234783.1914
 -66628528.48048 -51899516.94546  20910469.9924                   20910467.8134
 -26426185.22747 -20574275.28145  22716212.2974                   22716213.0474
 -25873794.00047 -20143440.70345  22421896.1954                   22421896.0394
 11  9 29  0 11  0.0000000  0  9G29G12G02G25G21G15G05G30G26
 -37529533.91048 -29227088.53146  21435242.8444                   21435241.6644
 -65165253.73047 -50759688.42745  22602175.1724                   22602174.1804
 -85614968.05547 -66694244.80745  22232699.6644                   22232696.4614
 -50720857.10248 -39503760.78146  21886773.1724                   21886774.5634
  -3206507.11746  -2484126.50743  24823035.4774                   24823035.1254
 -13904555.41447 -10817019.49044  23196742.0634                   23196741.7894
 -66675692.09048 -51936267.80046  20901494.4924                   20901493.0554
 -26529975.56647 -20655150.85445  22696461.5164                   22696461.3714
 -26058011.59447 -20286986.79445  22386840.8674                   22386840.5004
 11  9 29  0 11 30.0000000  0  9G29G12G02G25G21G15G05G30G26
 -37703585.25448 -29362712.90746  21402121.9774                   21402120.9614
 -65180971.21547 -50771935.85045  22599184.3054                   22599183.2074
 -85672423.74248 -66739015.45545  22221765.9694                   22221763.0514
 -50778890.89148 -39548981.90346  21875729.6174                   21875731.4344
  -3367940.09446  -2609918.29342  24792315.5314                   24792315.1684
 -14104318.13747 -10972678.55344  23158727.9144                   23158728.3244
 -66722423.84848 -51972682.14046  20892602.0554                   20892599.8834
 -26633138.99647 -20735537.90945  22676830.3594                   22676830.5664
 -26241827.58247 -20430219.95845  22351862.0474                   22351861.6094
 11  9 29  0 12  0.0000000  0  9G29G12G02G25G21G15G05G30G26
 -37877335.00848 -29498102.27846  21369058.8134                   21369057.4534
 -65196431.96147 -50783983.23045  22596242.3444                   22596241.7074
 -85729726.48047 -66783666.94945  22210861.2344                   22210858.8364
 -50836412.01648 -39593803.54046  21864783.7894                   21864785.4964
  -3529323.50446  -2735671.46542  24761604.9614                   24761604.6724
 -14303937.27047 -11128225.75644  23120741.3284                   23120741.7234
 -66768730.46947 -52008765.20846  20883790.2114                   20883788.4344
 -26735680.61347 -20815440.45845  22657317.5004                   22657317.4224
 -26425242.79747 -20573140.83245  22316958.6644                   22316958.3284
 11  9 29  0 12 30.0000000  0  9G29G12G02G25G21G15G05G30G26
 -38050777.72348 -29633252.41046  21336053.6094                   21336052.5904
 -65211635.50047 -50795830.19045  22593349.0234                   22593348.2774
 -85786873.07447 -66828196.78745  22199986.8524                   22199983.6214
 -50893419.51248 -39638224.96246  21853935.5234                   21853937.2344
  -3690654.59446  -2861383.82042  24730904.4694                   24730904.6914
 -14503406.64847 -11283656.28744  23082783.6334                   23082783.6724
 -66814610.93448 -52044516.21146  20875059.5394                   20875057.2074
 -26837597.82847 -20894856.46545  22637922.9144                   22637923.0434
 -26608250.14147 -20715743.86345  22282133.9454                   22282133.6844
 11  9 29  0 13  0.0000000  0  9G29G12G02G25G21G15G05G30G26
 -38223909.03948 -29768159.88646  21303107.4694                   21303106.3444
 -65226582.69547 -50807477.40445  22590504.6094                   22590504.1844
 -85843860.94147 -66872602.91745  22189142.6484                   22189139.6804
 -50949913.93448 -39682246.58446  21843184.8284                   21843186.7304
  -3851932.06646  -2987054.50443  24700214.6024                   24700213.4184
 -14702721.46947 -11438966.34044  23044855.0394                   23044855.0704
 -66860065.88347 -52079935.65546  20866409.5164                   20866407.7464
 -26938889.77347 -20973785.22945  22618647.9774                   22618647.7934
 -26790844.20747 -20858024.87445  22247387.1414                   22247386.9964
 11  9 29  0 13 30.0000000  0  9G29G12G02G25G21G15G05G30G26
 -38396729.92248 -29902825.46446  21270220.8914                   21270219.4574
 -65241280.19147 -50818930.04945  22587707.4844                   22587707.3204
 -85900693.27747 -66916887.82145  22178327.5864                   22178325.1024
 -51005901.05548 -39725872.90746  21832531.2974                   21832532.6174
  -4013159.67246  -3112686.31643  24669533.7664                   24669532.8554
 -14901881.72347 -11594156.01044  23006955.6254                   23006956.1724
 -66905101.19548 -52115028.09846  20857839.7894                   20857837.8754
 -27039560.65247 -21052230.04345  22599490.6644                   22599490.8524
 -26973024.77347 -20999983.68545  22212719.3444                   22212718.9614
 11  9 29  0 14  0.0000000  0  9G29G12G02G25G21G15G05G30G26
 -36993812.69948 -28809643.16646  21537187.6484                   21537185.7034
 -63680311.18747 -49602590.61645  22884750.7974                   22884749.6644
 -84381948.16848 -65733450.09445  22467335.7974                   22467331.9414
 -49485961.89148 -38541504.73446  22121765.8834                   22121767.1954
  -2598913.05546  -2010675.76743  24938656.2664                   24938656.3204
 -13525458.00847 -10521617.88744  23268880.9144                   23268880.8014
 -65374298.06248 -50922194.48246  21149141.8674                   21149139.7664
 -25564188.59847 -19902589.47345  22880245.1564                   22880244.7734
 -25579362.64847 -19914013.10745  22477924.4224                   22477923.6094
 11  9 29  0 14 30.0000000  0  9G29G12G02G25G21G15G05G30G26
 -37166007.41848 -28943820.84046  21504419.7664                   21504418.3914
 -63694520.52047 -49613662.87945  22882046.1024                   22882045.8444
 -84438470.01647 -65777493.09345  22456579.7424                   22456576.2894
 -49540943.41048 -38584347.47546  22111303.3444                   22111304.9304
  -2760044.17646  -2136232.35543  24907993.9614                   24907993.1914
 -13724301.83247 -10676560.98444  23231042.3054                   23231041.4264
 -65418502.82848 -50956639.73746  21140730.1564                   21140727.9064
 -25663622.00447 -19980070.03345  22861322.9774                   22861323.2194
 -25760707.00447 -20055320.27945  22443415.7114                   22443415.2704
 11  9 29  0 15  0.0000000  0  9G29G12G02G25G21G15G05G30G26
 -37337883.89148 -29077750.52746  21471712.3524                   21471711.0394
 -63708488.80547 -49624547.32245  22879387.9924                   22879387.9064
 -84494834.57047 -65821413.50345  22445854.0554                   22445850.7344
 -49595424.31248 -38626800.14446  22100935.8674                   22100937.2734
  -2921126.53947  -2261750.99743  24877341.2034                   24877340.5784
 -13922981.52747 -10831376.18445  23193234.8284                   23193234.5434
 -65462294.50848 -50990763.12446  21132396.5704                   21132394.9534
 -25762436.68747 -20057068.47045  22842519.2734                   22842519.4804
 -25941626.46547 -20196296.39245  22408987.3984                   22408987.0434
 11  9 29  0 15 30.0000000  0  9G29G12G02G25G21G15G05G30G26
 -37509441.84848 -29211432.00446  21439065.9224                   21439065.1134
 -63722221.13747 -49635247.87845  22876775.1414                   22876774.9694
 -84551043.75847 -65865212.84345  22435157.4614                   22435154.2974
 -49649408.96948 -38668866.11746  22090663.2734                   22090664.1844
  -3082162.32446  -2387233.28943  24846697.2584                   24846696.7034
 -14121495.96147 -10986062.62945  23155458.6644                   23155457.9104
 -65505677.28948 -51024567.88946  21124141.3134                   21124139.0864
 -25860635.45747 -20133586.96545  22823832.9614                   22823832.9924
 -26122119.50447 -20336940.21445  22374641.0944                   22374640.1524
 11  9 29  0 16  0.0000000  0 10G29G12G02G25G21G15G05G30G26G18
 -37680679.52348 -29344863.92946  21406480.7584                   21406479.4144
 -63735720.91047 -49645767.23845  22874206.1484                   22874206.0354
 -84607097.62947 -65908891.12845  22424490.9614                   22424487.1414
 -49702900.48848 -38710547.83346  22080484.0234                   22080485.2274
  -3243152.44146  -2512680.05543  24816060.7274                   24816061.1294
 -14319842.43747 -11140618.20445  23117714.2034                   23117713.9104
 -65548654.10547 -51058056.31446  21115962.7894                   21115960.8324
 -25958220.05547 -20209626.88845  22805262.5004                   22805263.5984
 -26302182.85247 -20477249.23045  22340376.0164                   22340375.0554
   2862613.89555   2252858.62253  24721989.4064                   24721991.9804
 11  9 29  0 16 30.0000000  0 10G29G12G02G25G21G15G05G30G26G18
 -37851602.44548 -29478050.58446  21373955.3054                   21373953.8634
 -63748999.50047 -49656114.27145  22871679.7424                   22871678.7344
 -84663004.53547 -65952454.89145  22413852.1564                   22413849.2584
 -49755909.63348 -38751853.68146  22070396.4304                   22070397.9774
  -3404105.85246  -2638098.19743  24785432.5784                   24785432.3444
 -14518026.18047 -11295046.96345  23080001.0944                   23080000.8054
 -65591236.03147 -51091237.02946  21107859.2114                   21107857.6454
 -26055199.83647 -20285195.53945  22786808.7274                   22786808.4184
 -26481821.19547 -20617227.07145  22306192.0784                   22306191.4534
   2668932.88346   2101938.83843  24685134.1334                   24685136.8204
 11  9 29  0 17  0.0000000  0 10G29G12G02G25G21G15G05G30G26G18
 -38022217.62548 -29610997.43646  21341488.0084                   21341486.6414
 -63762068.91047 -49666298.26945  22869192.5944                   22869191.9144
 -84718772.75047 -65995910.62645  22403239.9924                   22403236.4304
 -49808447.59448 -38792792.36946  22060398.6954                   22060400.4574
  -3565031.78946  -2763494.91243  24754810.0634                   24754809.2624
 -14716052.84047 -11449353.32645  23042317.7584                   23042318.0234
 -65633433.84047 -51124118.43746  21099829.9144                   21099827.7384
 -26151584.49647 -20360300.41545  22768466.7894                   22768466.7344
 -26661039.85247 -20756877.91245  22272087.4694                   22272086.9344
   2475454.01246   1951176.41543  24648316.0864                   24648318.8524
 11  9 29  0 17 30.0000000  0 10G29G12G02G25G21G15G05G30G26G18
 -38192519.26648 -29743699.98046  21309080.7504                   21309079.3714
 -63774928.89147 -49676319.06645  22866745.5084                   22866744.8634
 -84774398.47747 -66039255.33345  22392654.2814                   22392651.2894
 -49860513.53947 -38833363.27446  22050491.0704                   22050492.5234
  -3725927.20346  -2888867.82543  24724191.8594                   24724191.6804
 -14913915.77747 -11603532.12645  23004665.4614                   23004665.3634
 -65675246.57447 -51156699.78446  21091873.1884                   21091871.4694
 -26247371.83247 -20434939.88145  22750239.3444                   22750239.2344
 -26839831.88347 -20896196.30545  22238064.3364                   22238063.6644
   2282182.15646   1800575.27943  24611537.7344                   24611540.4384
 11  9 29  0 18  0.0000000  0 10G29G12G02G25G21G15G05G30G26G18
 -38362501.65247 -29876153.74846  21276734.4064                   21276732.8834
 -63787579.47747 -49686176.75845  22864338.4064                   22864337.5394
 -84829878.25447 -66082486.33245  22382096.9304                   22382093.7664
 -49912106.90648 -38873565.91946  22040673.6094                   22040674.4844
  -3886789.63346  -3014215.05543  24693580.8834                   24693580.5204
 -15111609.30947 -11757578.92645  22967045.0554                   22967045.8094
 -65716673.89548 -51188980.80646  21083989.5944                   21083987.9344
 -26342559.85247 -20509112.31145  22732124.9304                   22732125.6604
 -27018190.59048 -21035177.03945  22204124.2424                   22204122.6644
   2089121.34446   1650138.66343  24574798.8204                   24574801.9494
 11  9 29  0 18 30.0000000  0 10G29G12G02G25G21G15G05G30G26G18
 -38532158.89848 -30008354.15746  21244449.3054                   21244448.2504
 -63800020.05947 -49695870.75045  22861970.5784                   22861970.5354
 -84885208.14547 -66125600.51345  22371568.0394                   22371564.8204
 -49963226.68747 -38913399.55246  22030945.5164                   22030947.1134
  -4047616.29746  -3139534.45143  24662976.5944                   24662976.8954
 -15309126.46947 -11911488.28645  22929459.0704                   22929459.5004
 -65757714.46147 -51220960.47546  21076180.0474                   21076178.2304
 -26437146.26647 -20582815.98845  22714126.6024                   22714126.4774
 -27196108.79347 -21173814.55245  22170267.7034                   22170266.4304
   1896276.97346   1499870.78743  24538102.0554                   24538103.6604
 11  9 29  0 19  0.0000000  0 10G29G12G02G25G21G15G05G30G26G18
 -38701490.75447 -30140300.99846  21212226.5314                   21212225.1094
 -63812255.71147 -49705405.09245  22859642.3754                   22859642.2344
 -84940389.95347 -66168599.27845  22361067.4454                   22361064.2034
 -50013877.62547 -38952867.84246  22021307.1804                   22021308.7734
  -4208409.21146  -3264827.48544  24632378.1724                   24632378.3324
 -15506466.12147 -12065259.33245  22891906.7894                   22891906.3014
 -65798372.98848 -51252642.43746  21068443.3054                   21068440.9924
 -26531134.26647 -20656053.35245  22696240.4064                   22696241.1174
 -27373585.14547 -21312107.72045  22136494.3674                   22136493.8444
   1703647.79346   1349770.56043  24501444.8524                   24501446.7664
 11  9 29  0 19 30.0000000  0 10G29G12G02G25G21G15G05G30G26G18
 -38870492.18748 -30271990.39246  21180066.7584                   21180065.2974
 -63824287.02746 -49714780.21245  22857352.8834                   22857352.3834
 -84995420.84047 -66211480.42245  22350595.5944                   22350592.0634
 -50064059.69547 -38991970.80146  22011757.5784                   22011759.1054
  -4369166.65646  -3390092.89543  24601787.3524                   24601786.4844
 -15703623.06647 -12218887.99245  22854388.8524                   22854388.4574
 -65838649.20748 -51284026.49746  21060778.8594                   21060776.7544
 -26624522.59847 -20728823.45945  22678469.8754                   22678469.5864
 -27550613.61747 -21450051.90745  22102807.1564                   22102806.1094
   1511237.83246   1199841.12743  24464830.5634                   24464832.0004
 11  9 29  0 20  0.0000000  0 10G29G12G02G25G21G15G05G30G26G18
 -39039162.11748 -30403421.46446  21147969.9534                   21147968.7154
 -63836118.28147 -49723999.42445  22855101.6484                   22855101.3634
 -85050301.72747 -66254244.72345  22340151.5704                   22340148.3954
 -50113776.78948 -39030711.42646  22002296.9224                   22002298.1804
  -4529890.12946  -3515331.84843  24571202.6334                   24571202.1644
 -15900595.27047 -12372372.70645  22816906.2194                   22816905.3524
 -65878546.86348 -51315115.58546  21053186.4304                   21053184.4494
 -26717313.79347 -20801128.24645  22660812.0554                   22660811.6954
 -27727192.13747 -21587645.49345  22069205.3754                   22069203.9614
   1319046.94946   1050082.39142  24428256.6564                   24428258.7854
 11  9 29  0 20 30.0000000  0 10G29G12G02G25G21G15G05G30G26G18
 -39207496.69147 -30534591.21346  21115936.8914                   21115935.5514
 -63847751.07447 -49733064.01645  22852888.0394                   22852887.7504
 -85105030.63747 -66296890.64245  22329737.0634                   22329733.8364
 -50163029.77747 -39069090.42646  21992924.2894                   21992925.8754
  -4690578.30146  -3640543.22943  24540624.4224                   24540624.6134
 -16097377.66047 -12525709.51745  22779459.1414                   22779459.0554
 -65918066.67648 -51345910.23746  21045666.1024                   21045664.1134
 -26809507.34447 -20872967.34245  22643267.8134                   22643268.1764
 -27903315.13347 -21724884.11545  22035690.1254                   22035689.1764
   1127078.48046    900497.04343  24391726.6884                   24391728.9734
 11  9 29  0 21  0.0000000  0 10G29G12G02G25G21G15G05G30G26G18
 -39375492.37948 -30665496.88846  21083968.3524                   21083966.9304
 -63859187.56647 -49741975.62845  22850712.0004                   22850711.6644
 -85159606.61747 -66339417.37245  22319351.3444                   22319348.4344
 -50211820.47347 -39107109.20046  21983639.7504                   21983641.3164
  -4851231.44146  -3765727.35243  24510053.4224                   24510052.2304
 -16293966.53947 -12678895.53644  22742049.8594                   22742049.1174
 -65957210.21948 -51376411.70046  21038217.2894                   21038215.5554
 -26901103.70747 -20944341.10645  22625837.8984                   22625838.0594
 -28078978.27347 -21861764.39945  22002262.4924                   22002261.5124
    935334.24246    751086.26643  24355239.0164                   24355240.1024
 11  9 29  0 21 30.0000000  0 10G29G12G02G25G21G15G05G30G26G18
 -37967722.46948 -29568533.27446  21351857.5944                   21351856.8244
 -62295011.03947 -48523136.84545  23148364.4304                   23148364.4494
 -83638608.22347 -65154223.82645  22608787.7584                   22608784.5784
 -48684730.98848 -37917169.38646  22274235.3984                   22274237.0744
  -3436425.26646  -2663280.88143  24779281.5474                   24779280.8204
 -14914933.30947 -11604324.04744  23004470.9924                   23004471.1214
 -64420559.69948 -50179021.67446  21330632.3444                   21330629.9964
 -25416682.18747 -19787649.02145  22908313.9774                   22908314.1454
 -26678753.21547 -20770679.85245  22268716.7424                   22268715.9104
   2319240.77346   1829455.48843  24618586.7114                   24618589.2114
 11  9 29  0 22  0.0000000  0 10G29G12G02G25G21G15G05G30G26G18
 -38135032.40248 -29698904.59446  21320019.8984                   21320018.3954
 -62306062.70347 -48531748.61545  23146261.9384                   23146261.7074
 -83692875.23847 -65196509.78845  22598461.2664                   22598457.9774
 -48732603.82847 -37954472.93646  22265125.6644                   22265126.8404
  -3597007.75046  -2788409.95643  24748723.2424                   24748723.6214
 -15111124.54347 -11757200.22045  22967137.3914                   22967136.3054
 -64458956.99248 -50208941.64746  21323325.2424                   21323323.3984
 -25507086.96147 -19858094.25145  22891110.2034                   22891110.5474
 -26853485.21147 -20906834.54945  22235465.8204                   22235464.6604
   2127949.91046   1680397.99043  24582184.7034                   24582186.7504
 11  9 29  0 22 30.0000000  0 10G29G12G02G25G21G15G05G30G26G18
 -38301998.66847 -29829008.11346  21288247.0864                   21288245.6684
 -62316929.35547 -48540216.19945  23144193.1954                   23144194.0164
 -83746990.29347 -65238677.33645  22588163.3674                   22588160.2854
 -48780024.48847 -37991424.14546  22256101.7504                   22256103.4654
  -3757557.54346  -2913513.57243  24718171.8594                   24718171.5084
 -15307115.07446 -11909919.99445  22929840.6954                   22929841.0474
 -64496987.62548 -50238575.88746  21316088.2894                   21316086.2974
 -25596900.76247 -19928079.02045  22874019.2734                   22874019.5084
 -27027749.19947 -21042624.56045  22202304.5634                   22202303.9454
   1936885.28546   1531516.92143  24545826.8594                   24545828.2544
 11  9 29  0 23  0.0000000  0 10G29G12G02G25G21G15G05G30G26G18
 -38468616.35248 -29958840.02146  21256540.7274                   21256539.5944
 -62327611.55947 -48548540.05545  23142161.3834                   23142161.2504
 -83800950.21547 -65280724.01345  22577895.3054                   22577891.9344
 -48826993.04347 -38028023.05845  22247163.8444                   22247165.0984
  -3918073.55547  -3038590.83243  24687626.9384                   24687625.8364
 -15502899.10547 -12062478.83745  22892584.8444                   22892583.5514
 -64534651.19148 -50267924.12346  21308921.2974                   21308919.5354
 -25686122.32047 -19997602.30845  22857041.2344                   22857041.2894
 -27201538.98447 -21178045.05645  22169233.4534                   22169232.3524
   1746050.50046   1382814.88743  24509510.9924                   24509513.4924
 11  9 29  0 23 30.0000000  0 10G29G12G02G25G21G15G05G30G26G18
 -38634882.05148 -30088397.64246  21224901.2734                   21224900.3134
 -62338111.18047 -48556721.63045  23140164.0704                   23140163.2114
 -83854754.02747 -65322649.02445  22567656.9614                   22567653.4414
 -48873511.27347 -38064271.06846  22238311.5634                   22238313.3444
  -4078555.40247  -3163641.56043  24657088.4064                   24657087.5514
 -15698472.60547 -12214873.61245  22855368.3754                   22855367.5554
 -64571949.34848 -50296987.59546  21301823.7424                   21301821.8754
 -25774752.17247 -20066664.52645  22840175.6094                   22840174.9574
 -27374850.45347 -21313092.85445  22136253.0394                   22136252.2424
   1555447.56646   1234293.52743  24473240.3524                   24473242.2704
 11  9 29  0 24  0.0000000  0 10G29G12G02G25G21G15G05G30G26G18
 -38800795.23448 -30217680.58846  21193329.1724                   21193327.8094
 -62348433.42247 -48564764.98745  23138198.9384                   23138198.7974
 -83908402.89547 -65364453.31945  22557447.7894                   22557444.1524
 -48919583.63748 -38100171.63845  22229544.6954                   22229546.1174
  -4239004.72346  -3288666.88943  24626555.1484                   24626554.0594
 -15893834.28947 -12367103.38845  22818191.9304                   22818191.6724
 -64608886.24248 -50325769.57446  21294794.9924                   21294793.0784
 -25862793.48847 -20135268.14045  22823421.7424                   22823421.4884
 -27547682.00047 -21447766.68945  22103364.1884                   22103363.5394
   1365076.22746   1085952.60443  24437013.5704                   24437015.1524
 11  9 29  0 24 30.0000000  0 10G29G12G02G25G21G15G05G30G26G18
 -38966355.57048 -30346688.57746  21161823.9614                   21161822.8324
 -62358582.98447 -48572673.80345  23136267.6804                   23136267.6174
 -83961898.30547 -65406138.02645  22547268.0394                   22547264.5664
 -48965214.76248 -38135728.38946  22220860.9064                   22220862.2304
  -4399424.35546  -3413669.10243  24596028.5864                   24596027.6374
 -16088982.98447 -12519167.17245  22781056.4304                   22781056.0004
 -64645466.34048 -50354273.52146  21287833.8834                   21287831.8984
 -25950249.60547 -20203415.75145  22806778.9924                   22806779.1254
 -27720031.64847 -21582065.03445  22070566.6564                   22070566.1954
   1174935.53946    937791.38843  24400831.4844                   24400833.0554
 11  9 29  0 25  0.0000000  0 10G29G12G02G25G21G15G05G30G26G18
 -39131558.79748 -30475418.29946  21130386.6954                   21130385.5004
 -62368561.29747 -48580449.14844  23134369.3364                   23134368.6334
 -84015238.72747 -65447701.95645  22537117.3914                   22537114.3364
 -49010406.10548 -38170942.45746  22212261.8134                   22212263.3984
  -4559812.83646  -3538647.10343  24565507.7424                   24565506.2424
 -16283914.30547 -12671061.55345  22743961.7274                   22743961.9804
 -64681690.91848 -50382500.44346  21280940.2114                   21280938.5864
 -26037120.86747 -20271107.66745  22790248.1804                   22790248.1374
 -27891894.97347 -21715984.43445  22037862.8364                   22037861.8364
    985028.28246    789812.14243  24364692.6254                   24364694.0084
 11  9 29  0 25 30.0000000  0 10G29G12G02G25G21G15G05G30G26G18
 -39296404.63347 -30603869.54846  21099017.5634                   21099016.0044
 -62378373.67247 -48588095.18044  23132501.8524                   23132501.6884
 -84068425.32447 -65489146.01445  22526996.1334                   22526993.0314
 -49055161.85947 -38205817.08946  22203744.7814                   22203746.4964
  -4720172.35546  -3663602.49243  24534992.1024                   24534990.3444
 -16478626.61747 -12822785.29645  22706909.4614                   22706908.8914
 -64717563.77348 -50410453.29646  21274114.0164                   21274112.0204
 -26123410.09447 -20338346.01245  22773828.1254                   22773828.3524
 -28063270.16047 -21849523.46545  22005251.1884                   22005250.1174
    795354.07846    642014.22443  24328599.0004                   24328599.9024
 11  9 29  0 26  0.0000000  0 10G29G12G02G25G21G15G05G30G26G18
 -39460890.76648 -30732040.49446  21067717.0234                   21067715.1374
 -62388023.11747 -48595614.28744  23130665.3594                   23130665.3794
 -84121457.93747 -65530470.08445  22516904.2664                   22516901.2154
 -49099485.00447 -38240354.62846  22195310.5004                   22195312.0274
  -4880503.38346  -3788535.72343  24504482.2114                   24504480.6914
 -16673116.96947 -12974336.08145  22669899.0234                   22669898.4414
 -64753087.75048 -50438134.29346  21267353.7584                   21267352.2704
 -26209119.17247 -20405132.33245  22757518.1174                   22757518.1684
 -28234153.84447 -21982679.51545  21972732.7504                   21972731.7504
    605913.59846    494398.75043  24292549.1334                   24292549.5784
 11  9 29  0 26 30.0000000  0 10G29G12G02G25G21G15G05G30G26G18
 -39625014.02748 -30859928.69546  21036485.2664                   21036483.7274
 -62397511.39547 -48603007.79244  23128859.8834                   23128859.5394
 -84174335.08647 -65571673.03045  22506842.0704                   22506838.8134
 -49143377.47347 -38274556.57245  22186958.3054                   22186959.8834
  -5040805.89846  -3913446.73143  24473977.4924                   24473976.3954
 -16867381.36347 -13125710.79445  22632931.6414                   22632931.1914
 -64788264.09448 -50465544.39846  21260660.0474                   21260657.9414
 -26294248.73047 -20471467.04845  22741318.4224                   22741318.1254
 -28404541.94948 -22115449.41945  21940309.3834                   21940308.2624
    416709.18047    346966.95742  24256544.6954                   24256544.3594
 11  9 29  0 27  0.0000000  0 10G29G12G02G25G21G15G05G30G26G18
 -39788771.18047 -30987531.61446  21005323.3984                   21005321.4924
 -62406841.27347 -48610277.87844  23127084.4064                   23127084.5704
 -84227055.80947 -65612754.11545  22496810.3204                   22496806.3984
 -49186841.18047 -38308424.41145  22178687.1644                   22178688.9494
  -5201079.32446  -4038335.04143  24443478.9534                   24443477.7194
 -17061415.54747 -13276906.14045  22596007.9384                   22596007.5744
 -64823094.71148 -50492685.11946  21254031.9384                   21254030.2234
 -26378799.47347 -20537350.74145  22725229.1254                   22725229.0634
 -28574430.28547 -22247829.88845  21907980.6564                   21907979.3754
    227742.96947    199720.78243  24220585.7424                   24220584.5664
 11  9 29  0 27 30.0000000  0 10G29G12G02G25G21G15G05G30G26G18
 -39952160.25047 -31114847.73046  20974231.3204                   20974230.0234
 -62416015.98447 -48617427.04144  23125338.7504                   23125338.5434
 -84279619.96547 -65653713.18345  22486807.5084                   22486804.4104
 -49229879.28947 -38341960.61046  22170497.0944                   22170498.6024
  -5361324.52346  -4163201.38943  24412984.6334                   24412983.8984
 -17255217.08247 -13427920.19545  22559128.6174                   22559128.1024
 -64857582.50048 -50519558.68446  21247469.2034                   21247467.2584
 -26462773.36747 -20602784.97445  22709249.6804                   22709249.0044
 -28743815.62148 -22379818.41045  21875747.4614                   21875746.4454
     39015.39847     52660.59243  24184671.8984                   24184671.5634
 11  9 29  0 28  0.0000000  0 10G29G12G02G25G21G15G05G30G26G18
 -40115179.73448 -31241875.83546  20943209.6254                   20943208.2504
 -62425039.44947 -48624458.34644  23123621.7194                   23123621.6334
 -84332028.43747 -65694550.90845  22476833.8364                   22476830.4964
 -49272495.55547 -38375168.10146  22162387.9064                   22162389.6334
  -5521542.66346  -4288046.61243  24382496.3524                   24382495.2424
 -17448783.79347 -13578751.24445  22522294.3204                   22522293.6134
 -64891730.57848 -50546167.54646  21240970.8984                   21240969.0634
 -26546173.12147 -20667771.82844  22693379.1334                   22693378.9804
 -28912695.59847 -22511413.16545  21843610.5784                   21843609.1844
   -149473.10246    -94213.22943  24148803.2034                   24148803.5514
 11  9 29  0 28 30.0000000  0 10G29G12G02G25G21G15G05G30G26G18
 -40277827.02348 -31368613.94146  20912259.0634                   20912257.5234
 -62433914.06647 -48631373.69544  23121932.9144                   23121933.0044
 -84384279.96147 -65735266.33345  22466891.4064                   22466887.9774
 -49314692.27347 -38408048.66845  22154358.1954                   22154360.0664
  -5681733.82446  -4412870.81543  24352012.4694                   24352011.6914
 -17642112.19947 -13729396.64245  22485504.9454                   22485504.3244
 -64925540.93048 -50572513.24246  21234537.4384                   21234535.2154
 -26628999.70747 -20732312.05545  22677617.6884                   22677618.3874
 -29081066.54347 -22642611.25145  21811570.8204                   21811569.2774
   -337720.78946   -240899.51243  24112980.1954                   24112981.1414
 11  9 29  0 29  0.0000000  0 10G29G12G02G25G21G15G05G30G26G18
 -40440099.76248 -31495060.18746  20881379.2274                   20881377.8094
 -62442643.17647 -48638175.64944  23120272.3134                   23120272.3484
 -84436374.67247 -65775859.57045  22456977.6484                   22456974.5434
 -49356472.46547 -38440604.66346  22146407.4774                   22146408.9924
  -5841898.72346  -4537674.49443  24321533.5784                   24321533.7154
 -17835199.52047 -13879854.14645  22448761.3834                   22448760.3324
 -64959016.31248 -50598597.94446  21228166.9614                   21228165.1454
 -26711255.02347 -20796407.14644  22661965.0234                   22661964.6334
 -29248925.15647 -22773410.10845  21779628.2274                   21779626.7344
   -525726.71146   -387397.37443  24077203.9694                   24077204.7734
 11  9 29  0 29 30.0000000  0 10G29G12G02G25G21G15G05G30G26G18
 -39026568.80947 -30393607.45146  21150365.3674                   21150363.6604
 -60875808.67647 -47417265.69944  23418430.9534                   23418430.9694
 -82912888.89847 -64588727.76845  22746887.8204                   22746884.1374
 -47822416.31247 -37245236.22645  22438328.5474                   22438330.4844
  -4426610.92246  -3434852.74643  24590853.6884                   24590854.0664
 -16452614.48047 -12802515.04845  22711858.5634                   22711857.6484
 -63416736.73848 -49396821.62146  21521652.9774                   21521650.6884
 -25217516.84447 -19632455.32344  22946213.2734                   22946213.1094
 -27840841.40247 -21676201.92545  22047577.3364                   22047576.1564
    861937.53146    693899.75443  24341266.9454                   24341268.6724
 11  9 29  0 30  0.0000000  0 10G29G12G02G25G21G15G05G30G26G18
 -39188083.74248 -30519463.21146  21119630.1564                   21119628.8714
 -60884254.78147 -47423847.13245  23416823.6644                   23416824.3014
 -82964667.01647 -64629074.34745  22737034.6564                   22737030.7894
 -47863370.59447 -37277148.65245  22430535.3674                   22430536.9494
  -4586722.73845  -3559615.12843  24560386.4224                   24560385.6604
 -16645207.93447 -12952587.73545  22675209.3204                   22675208.0314
 -63449547.96548 -49422388.79846  21515409.1334                   21515407.5004
 -25298633.52047 -19695663.15944  22930778.0474                   22930777.5744
 -28007664.44147 -21806193.84845  22015832.3364                   22015830.6484
    674419.54745    547782.15243  24305581.7424                   24305584.6564
 11  9 29  0 30 30.0000000  0 10G29G12G02G25G21G15G05G30G26G18
 -39349217.16448 -30645021.68646  21088967.3754                   21088965.9654
 -60892564.10547 -47430321.99145  23415242.2734                   23415242.3284
 -83016286.82047 -64669297.55245  22727211.7344                   22727207.8244
 -47903916.78947 -37308743.09245  22422819.6954                   22422821.0744
  -4746809.01646  -3684357.58643  24529923.0474                   24529921.9844
 -16837550.49647 -13102464.92245  22638607.3914                   22638606.5904
 -63482031.72348 -49447700.80046  21509227.6414                   21509225.7504
 -25379183.93747 -19758429.71544  22915449.3284                   22915449.5234
 -28173965.36747 -21935778.92245  21984185.9614                   21984184.4024
    487146.85246    401855.63243  24269946.0784                   24269947.4694
 11  9 29  0 31  0.0000000  0 10G29G12G02G25G21G15G05G30G26G18
 -39509969.21948 -30770282.97646  21058376.9384                   21058375.4104
 -60900742.98847 -47436695.18745  23413685.8364                   23413686.2154
 -83067750.57047 -64709399.14845  22717418.3984                   22717414.7304
 -47944060.52747 -37340023.91745  22415180.8674                   22415182.1914
  -4906873.15246  -3809082.71843  24499463.7584                   24499462.4924
 -17029641.79347 -13252146.36145  22602053.8054                   22602052.4344
 -63514192.70748 -49472761.29046  21503107.9614                   21503105.4774
 -25459172.68447 -19820758.63744  22900228.2734                   22900228.4494
 -28339743.40247 -22064956.53945  21952639.2424                   21952638.0204
    300117.80146    256119.01843  24234355.7424                   24234356.8714
 11  9 29  0 31 30.0000000  0 10G29G12G02G25G21G15G05G30G26G18
 -39670336.01647 -30895244.07846  21027860.5864                   21027858.9304
 -60908792.60547 -47442967.66245  23412154.5864                   23412154.6254
 -83119056.25447 -64749377.56245  22707655.2034                   22707651.3714
 -47983802.92647 -37370992.01245  22407617.5944                   22407619.3754
  -5066913.86746  -3933789.69244  24469008.9454                   24469008.3834
 -17221477.08247 -13401628.27045  22565548.5084                   22565547.3484
 -63546031.51248 -49497570.72646  21497048.8284                   21497046.9734
 -25538599.87147 -19882649.94244  22885113.9144                   22885113.4804
 -28504993.80547 -22193722.99445  21921193.0084                   21921191.9104
    113335.04746    110574.21543  24198812.1414                   24198813.5514
 11  9 29  0 32  0.0000000  0 10G29G12G02G25G21G15G05G30G26G18
 -39830314.70347 -31019902.75946  20997417.8284                   20997415.8954
 -60916715.34047 -47449141.25145  23410646.6644                   23410647.2734
 -83170203.44147 -64789232.48345  22697922.0314                   22697918.6454
 -48023146.43447 -37401649.28545  22400130.9694                   22400132.7074
  -5226930.84446  -4058478.21744  24438558.4774                   24438557.8364
 -17413052.71947 -13550907.88745  22529092.9304                   22529091.9574
 -63577550.85248 -49522131.24546  21491050.8984                   21491049.1414
 -25617466.81247 -19944104.73144  22870105.6094                   22870105.7624
 -28669712.80947 -22322075.40045  21889848.2034                   21889846.9494
    -73199.47746    -34777.14143  24163315.5864                   24163316.7154
 11  9 29  0 32 30.0000000  0 10G29G12G02G25G21G15G05G30G26G18
 -39989904.47747 -31144258.38946  20967048.5234                   20967046.9574
 -60924515.91047 -47455219.66745  23409163.0634                   23409162.5354
 -83221192.91447 -64828964.50545  22688218.7344                   22688215.4494
 -48062095.74247 -37431999.40345  22392718.9924                   22392721.1564
  -5386926.30946  -4183149.78243  24408112.3834                   24408111.3054
 -17604367.60547 -13699984.30245  22492686.9304                   22492685.5744
 -63608754.62148 -49546445.86346  21485113.0474                   21485110.9144
 -25695777.05547 -20005125.68444  22855203.5554                   22855203.3164
 -28833899.02347 -22450012.63045  21858604.5634                   21858603.1414
   -259487.04747   -179936.09244  24127866.6804                   24127867.1524
 11  9 29  0 33  0.0000000  0 10G29G12G02G25G21G15G05G30G26G18
 -40149101.38347 -31268307.88646  20936754.3444                   20936752.7664
 -60932195.66047 -47461203.91944  23407701.0474                   23407701.1994
 -83272022.52047 -64868571.99545  22678546.4774                   22678543.2234
 -48100651.90247 -37462043.15445  22385382.2584                   22385383.6254
  -5546898.81246  -4307803.59444  24377670.5864                   24377669.6334
 -17795416.48047 -13848853.45645  22456331.0004                   22456330.3164
 -63639643.28148 -49570514.95546  21479235.2814                   21479233.5234
 -25773530.67647 -20065712.91444  22840407.7274                   22840406.8674
 -28997547.53547 -22577530.85545  21827463.1724                   21827462.1294
   -445524.59847   -324900.19943  24092464.7814                   24092463.9144
 11  9 29  0 33 30.0000000  0 10G29G12G02G25G21G15G05G30G26G18
 -40307905.14147 -31392051.03246  20906535.1484                   20906533.2894
 -60939759.78547 -47467098.06444  23406261.5704                   23406261.6414
 -83322694.07447 -64908056.28144  22668903.7894                   22668900.1604
 -48138819.89147 -37491784.44145  22378118.7734                   22378120.7464
  -5706851.17646  -4432441.67043  24347232.6174                   24347231.4654
 -17986198.64147 -13997514.75745  22420026.4924                   22420025.5984
 -63670221.34848 -49594342.01646  21473416.3524                   21473414.6414
 -25850731.55947 -20125869.45544  22825717.2274                   22825716.5664
 -29160657.03947 -22704629.08145  21796424.0784                   21796422.8794
   -631312.88747   -469670.14443  24057109.6334                   24057108.2384
 11  9 29  0 34  0.0000000  0 10G29G12G02G25G21G15G05G30G26G18
 -40466313.69548 -31515486.23446  20876390.7894                   20876388.9654
 -60947211.49646 -47472904.64244  23404843.5164                   23404843.3674
 -83373207.52347 -64947417.34444  22659291.1954                   22659287.8754
 -48176602.91047 -37521225.77245  22370929.4844                   22370931.0044
  -5866783.50446  -4557064.15544  24316797.6094                   24316797.5744
 -18176710.73047 -14145965.62245  22383773.0394                   22383771.7854
 -63700491.63348 -49617929.24246  21467656.4144                   21467654.4774
 -25927381.93747 -20185597.01244  22811131.3204                   22811130.4494
 -29323224.85547 -22831305.23745  21765488.5234                   21765487.2424
   -816851.17646   -614245.27742  24021803.0784                   24021801.7774
 11  9 29  0 34 30.0000000  0 10G29G12G02G25G21G15G05G30G26G18
 -40624323.21148 -31638610.49246  20846322.4924                   20846320.9534
 -60954551.84846 -47478624.45444  23403446.4224                   23403446.9264
 -83423560.72747 -64986653.54244  22649709.7114                   22649705.7814
 -48214002.14547 -37550368.06345  22363812.6884                   22363814.2464
  -6026694.43746  -4681669.94143  24286368.0314                   24286367.5164
 -18366948.06647 -14294202.39245  22347571.9694                   22347571.3094
 -63730454.73048 -49641277.10846  21461954.3984                   21461952.2274
 -26003481.96547 -20244895.73944  22796649.4694                   22796648.6294
 -29485245.79347 -22957555.23645  21734657.2664                   21734655.8244
  -1002136.81246   -758623.51642  23986544.0944                   23986543.2114
 11  9 29  0 35  0.0000000  0 10G29G12G02G25G21G15G05G30G26G18
 -40781931.55947 -31761422.14946  20816330.7274                   20816329.1334
 -60961783.66446 -47484259.64044  23402070.8834                   23402070.9964
 -83473753.76647 -65025765.00545  22640158.7814                   22640154.4924
 -48251020.94547 -37579213.87945  22356767.9454                   22356769.5904
  -6186584.96146  -4806259.82843  24255941.2584                   24255939.9844
 -18556908.18747 -14442223.16445  22311423.8984                   22311423.0084
 -63760113.61748 -49664387.92446  21456310.5864                   21456308.5004
 -26079033.98047 -20303767.40744  22782272.6334                   22782271.7774
 -29646717.45347 -23083377.24545  21703930.0864                   21703928.9924
  -1187169.18746   -902804.41143  23951333.2664                   23951333.2974
 11  9 29  0 35 30.0000000  0 10G29G12G02G25G21G15G05G30G26G18
 -40939138.41848 -31883920.95646  20786415.3914                   20786413.3754
 -60968913.22746 -47489815.21544  23400713.5164                   23400714.2074
 -83523788.27047 -65064752.93844  22630637.2194                   22630633.7774
 -48287664.30947 -37607767.16445  22349795.0634                   22349796.2814
  -6346457.98046  -4930836.05043  24225518.6414                   24225518.2504
 -18746589.91047 -14590026.99845  22275328.5234                   22275327.0704
 -63789472.67648 -49687265.09446  21450723.7034                   21450721.7544
 -26154041.98047 -20362215.20144  22767999.2424                   22767998.2974
 -29807638.54747 -23208770.22745  21673307.5164                   21673306.4104
  -1371948.79346  -1046788.31843  23916170.0164                   23916171.2304
 11  9 29  0 36  0.0000000  0 10G29G12G02G25G21G15G05G30G26G18
 -41095942.24248 -32006105.72246  20756576.0864                   20756574.5704
 -60975944.02346 -47495293.78944  23399375.6884                   23399376.6564
 -83573664.55147 -65103617.56844  22621145.9304                   22621142.3834
 -48323936.07847 -37636030.88245  22342892.9144                   22342894.0744
  -6506314.28546  -5055399.30643  24195099.0004                   24195097.4064
 -18935990.91847 -14737612.10845  22239286.3914                   22239285.5124
 -63818535.27748 -49709911.26546  21445193.0314                   21445191.0124
 -26228508.86347 -20420241.33044  22753828.5864                   22753827.5474
 -29968006.89147 -23333732.49045  21642790.5394                   21642789.5314
  -1556476.10246  -1190575.54543  23881055.3204                   23881056.6094
 11  9 29  0 36 30.0000000  0 10G29G12G02G25G21G15G05G30G26G18
 -41252338.50048 -32127972.89146  20726814.8284                   20726813.3634
 -60982876.19546 -47500695.51944  23398056.9924                   23398057.1094
 -83623379.55147 -65142356.49645  22611685.8444                   22611681.7114
 -48359836.62947 -37664005.35545  22336061.1484                   22336062.3364
  -6666151.37946  -5179947.53343  24164682.6414                   24164682.1414
 -19125105.64547 -14884974.12145  22203298.9144                   22203297.8364
 -63847301.21548 -49732326.26946  21439719.5314                   21439717.1174
 -26302434.05947 -20477845.36644  22739761.2274                   22739760.5434
 -30127816.95347 -23458259.75345  21612379.6644                   21612378.4694
  -1740747.16046  -1334163.11143  23845990.2344                   23845990.3054
 11  9 29  0 37  0.0000000  0 10G29G12G02G25G21G15G05G30G26G18
 -39832901.55148 -31021918.08546  20996925.3054                   20996923.1134
 -59414294.48446 -46278424.11344  23696548.0944                   23696548.2424
 -82097513.00447 -63953369.51845  22902048.3594                   22902044.6214
 -46819949.67247 -36464093.44245  22629091.5474                   22629093.4024
  -5250546.52746  -4076878.70943  24434063.1724                   24434062.4414
 -17738506.30947 -13804506.99645  22467159.8914                   22467158.8484
 -62300353.91048 -48526912.77346  21734093.4534                   21734091.5554
 -24800398.96547 -19307428.41244  23025588.9064                   23025587.6564
 -28711642.15647 -22354746.85745  21881869.0704                   21881867.5084
   -349337.00846   -249947.22143  24110766.2114                   24110766.7154
 11  9 29  0 37 30.0000000  0 10G29G12G02G25G21G15G05G30G26G18
 -39988477.53148 -31143146.07446  20967319.8364                   20967318.0944
 -59421040.69946 -46283680.93744  23695264.6884                   23695264.4264
 -82146906.04347 -63991857.50344  22892648.5164                   22892645.1764
 -46855118.65647 -36491497.86445  22622399.3444                   22622400.8094
  -5410348.87946  -4201399.86043  24403653.7344                   24403652.7154
 -17927040.88347 -13951416.96845  22431283.2274                   22431282.0124
 -62328535.87148 -48548872.72346  21728730.5864                   21728728.4804
 -24873248.72747 -19364194.41844  23011725.9144                   23011724.8204
 -28870328.36747 -22478398.36545  21851671.8364                   21851670.3674
   -533094.86346   -393134.93143  24075798.4844                   24075798.5274
 11  9 29  0 38  0.0000000  0 10G29G12G02G25G21G15G05G30G26G18
 -40143642.14548 -31264053.51846  20937792.9614                   20937791.2344
 -59427700.65246 -46288870.55944  23693996.6954                   23693997.0474
 -82196140.25047 -64030221.74345  22883279.7034                   22883276.4264
 -46889928.83247 -36518622.68745  22615774.9064                   22615776.4964
  -5570136.67246  -4325909.73943  24373246.6724                   24373246.0044
 -18115283.30147 -14098099.28245  22395461.6094                   22395460.5904
 -62356431.71948 -48570609.73646  21723422.1254                   21723419.9494
 -24945566.34447 -19420545.78644  22997964.0864                   22997963.3754
 -29028450.31247 -22601610.22745  21821581.9774                   21821580.4774
   -716597.12946   -536123.48543  24040879.4384                   24040878.7344
 11  9 29  0 38 30.0000000  0 10G29G12G02G25G21G15G05G30G26G18
 -40298393.79348 -31384639.18246  20908344.8444                   20908342.6994
 -59434277.81247 -46293995.67744  23692745.8984                   23692745.4844
 -82245215.66847 -64068462.33645  22873941.2584                   22873937.9024
 -46924383.62947 -36545470.59845  22609218.8284                   22609220.5434
  -5729910.44546  -4450408.69743  24342843.2584                   24342841.9774
 -18303231.05147 -14244551.97945  22359696.5864                   22359695.3754
 -62384044.50048 -48592126.16546  21718167.6414                   21718165.7274
 -25017354.40647 -19476484.54044  22984303.7034                   22984302.9024
 -29186005.74647 -22724380.62545  21791600.2584                   21791599.0234
   -899843.27746   -678912.46243  24006008.8754                   24006009.3204
 11  9 29  0 39  0.0000000  0 10G29G12G02G25G21G15G05G30G26G18
 -40452729.25048 -31504900.52846  20878975.4534                   20878973.8014
 -59440774.19147 -46299057.80744  23691509.1024                   23691509.2504
 -82294130.87547 -64106578.09645  22864633.5234                   22864629.6454
 -46958485.09047 -36572043.17945  22602729.0864                   22602731.2704
  -5889669.95746  -4574896.49543  24312442.3134                   24312440.7154
 -18490879.87547 -14390771.76445  22323987.8754                   22323986.6094
 -62411375.74248 -48613423.22646  21712966.7814                   21712964.7894
 -25088614.05947 -19532011.54744  22970743.5944                   22970742.5354
 -29342990.57047 -22846706.39945  21761727.1954                   21761725.6174
  -1082830.97346   -821500.04843  23971187.1334                   23971186.6884
 11  9 29  0 39 30.0000000  0 10G29G12G02G25G21G15G05G30G26G18
 -40606643.95348 -31624834.00546  20849686.6094                   20849684.8754
 -59447190.41447 -46304057.51944  23690288.4774                   23690288.6334
 -82342883.47347 -64144567.13445  22855354.9534                   22855352.1254
 -46992234.03547 -36598341.06045  22596306.6564                   22596308.8754
  -6049413.30146  -4699371.72343  24282042.6254                   24282042.7664
 -18678224.57047 -14536754.54045  22288337.4304                   22288336.2424
 -62438425.42248 -48634500.87946  21707819.4304                   21707817.5204
 -25159345.10247 -19587126.65644  22957283.5314                   22957282.9494
 -29499399.77747 -22968583.62245  21731963.2504                   21731961.8484
  -1265557.53146   -963884.14243  23936414.3524                   23936414.6724
 11  9 29  0 40  0.0000000  0 10G29G12G02G25G21G15G05G30G26G18
 -40760137.48448 -31744439.31746  20820477.5084                   20820475.6954
 -59453531.21946 -46308998.47644  23689081.2424                   23689081.9384
 -82391473.96147 -64182429.83145  22846109.3054                   22846105.7774
 -47025634.98047 -36624367.78445  22589951.1644                   22589952.7304
  -6209142.24246  -4823835.75443  24251648.3054                   24251646.2734
 -18865263.37547 -14682498.98045  22252744.8984                   22252743.8754
 -62465197.75448 -48655362.41546  21702724.8754                   21702722.6484
 -25229551.27347 -19641832.75444  22943923.9844                   22943923.1764
 -29655231.68747 -23090011.01145  21702309.6334                   21702308.2544
  -1448023.56646  -1106065.24643  23901692.5554                   23901692.1914
 11  9 29  0 40 30.0000000  0 10G29G12G02G25G21G15G05G30G26G18
 -40913209.75848 -31863716.36446  20791349.2034                   20791347.2344
 -59459802.17246 -46313884.97444  23687888.0864                   23687888.9774
 -82439904.64847 -64220167.97445  22836893.1884                   22836888.9804
 -47058693.57047 -36650127.73045  22583660.6334                   22583661.5594
  -6368859.60946  -4948290.68943  24221254.3204                   24221253.0434
 -19051996.03547 -14828004.87445  22217211.1644                   22217209.9534
 -62491697.62548 -48676011.65146  21697682.0084                   21697679.9184
 -25299237.39147 -19696133.64644  22930663.2814                   22930662.1254
 -29810486.26247 -23210988.52745  21672765.2194                   21672763.7544
  -1630230.60946  -1248044.57243  23867019.0164                   23867018.5274
 11  9 29  0 41  0.0000000  0 10G29G12G02G25G21G15G05G30G26G18
 -41065857.61748 -31982662.69846  20762301.2814                   20762298.8984
 -59466005.07446 -46318718.48344  23686707.5474                   23686708.5474
 -82488174.33247 -64257780.65845  22827707.2974                   22827703.9224
 -47091411.84447 -36675622.48545  22577434.1644                   22577436.0634
  -6528565.20346  -5072736.51743  24190864.0474                   24190862.7734
 -19238418.34847 -14973268.91445  22181736.0784                   22181734.8204
 -62517926.26248 -48696449.53646  21692690.7194                   21692688.5434
 -25368404.51647 -19750030.09644  22917501.0704                   22917500.3874
 -29965159.39547 -23331512.97945  21643331.7734                   21643330.3594
  -1812176.51246  -1389820.33943  23832396.3914                   23832395.6024
 11  9 29  0 41 30.0000000  0 10G29G12G02G25G21G15G05G30G26G18
 -41218078.55148 -32101276.37246  20733334.1954                   20733332.7854
 -59472142.17246 -46323500.71244  23685540.6884                   23685540.7704
 -82536282.24247 -64295267.28145  22818552.5394                   22818549.6454
 -47123792.30547 -36700854.03945  22571272.6484                   22571274.1334
  -6688258.14146  -5197172.51743  24160474.8054                   24160472.5274
 -19424526.92647 -15118288.50145  22146320.1564                   22146319.1564
 -62543885.57048 -48716677.55146  21687750.6414                   21687749.0554
 -25437054.37947 -19803523.49444  22904437.5474                   22904436.0044
 -30119247.75447 -23451581.78545  21614010.3284                   21614008.3914
  -1993859.93446  -1531391.64044  23797822.7584                   23797822.3634
 11  9 29  0 42  0.0000000  0 10G29G12G02G25G21G15G05G30G26G18
 -41369871.10247 -32219556.22946  20704448.7344                   20704447.1294
 -59478217.76246 -46328234.98944  23684384.3054                   23684384.2974
 -82584228.80947 -64332628.19545  22809428.2894                   22809424.9884
 -47155838.97747 -36725825.46545  22565174.6484                   22565175.6094
  -6847940.12946  -5321599.96543  24130088.4534                   24130086.4574
 -19610319.63747 -15263061.94845  22110965.1804                   22110963.7894
 -62569579.14548 -48736698.51446  21682861.5314                   21682859.5124
 -25505190.15647 -19856616.33844  22891471.9534                   22891470.8984
 -30272749.46947 -23571193.42545  21584799.5004                   21584798.1914
  -2175281.00046  -1672758.54443  23763299.7344                   23763299.0394
 11  9 29  0 42 30.0000000  0 10G29G12G02G25G21G15G05G30G26G18
 -41521233.53548 -32337500.94046  20675645.6484                   20675643.6524
 -59484235.11346 -46332923.86744  23683239.2584                   23683239.5204
 -82632014.17247 -64369863.58845  22800335.2974                   22800331.9104
 -47187555.48047 -36750539.65045  22559138.7974                   22559140.5434
  -7007611.71547  -5446019.30443  24099704.4534                   24099702.0474
 -19795793.80947 -15407587.19145  22075670.4694                   22075669.1954
 -62595009.75048 -48756514.55446  21678022.2274                   21678020.1914
 -25572814.74247 -19909310.86145  22878603.3204                   22878602.4494
 -30425662.23847 -23690346.17345  21555701.0084                   21555699.0864
  -2356439.50847  -1813920.80743  23728826.2734                   23728826.1844
 11  9 29  0 43  0.0000000  0 10G29G12G02G25G21G15G05G30G26G18
 -41672163.89848 -32455108.96347  20646924.5944                   20646923.0434
 -59490197.24246 -46337569.75544  23682104.6254                   23682104.5864
 -82679637.94547 -64406973.02145  22791272.8754                   22791269.4734
 -47218945.00847 -36774999.03845  22553165.5004                   22553167.1174
  -7167273.48046  -5570430.94343  24069321.6804                   24069320.0004
 -19980946.68447 -15551862.05645  22040436.8594                   22040435.7584
 -62620180.25448 -48776127.91446  21673232.4454                   21673230.2734
 -25639930.35947 -19961608.76244  22865831.4304                   22865830.8984
 -30577983.27347 -23809037.81345  21526714.9454                   21526713.6254
  -2537334.59046  -1954877.83644  23694403.4774                   23694402.1724
 11  9 29  0 43 30.0000000  0 10G29G12G02G25G21G15G05G30G26G18
 -41822659.29748 -32572378.06546  20618286.2584                   20618284.3554
 -59496106.99646 -46342174.80044  23680980.2114                   23680980.2304
 -82727099.79747 -64443956.28344  22782241.6644                   22782237.9614
 -47250010.36747 -36799205.83145  22547254.0944                   22547255.7034
  -7326925.45746  -5694834.95143  24038940.1884                   24038938.8554
 -20165774.69947 -15695883.79045  22005265.3834                   22005264.3204
 -62645092.60248 -48795540.12446  21668491.7194                   21668489.6954
 -25706539.16847 -20013511.74344  22853156.4614                   22853156.3634
 -30729709.53547 -23927265.99245  21497842.8444                   21497841.3244
  -2717964.93446  -2095628.53144  23660029.5944                   23660028.8954
 11  9 29  0 44  0.0000000  0 10G29G12G02G25G21G15G05G30G26G18
 -41972719.35948 -32689307.94246  20589730.6644                   20589728.9844
 -59501968.11347 -46346741.93144  23679865.1804                   23679864.8834
 -82774400.18047 -64480813.66444  22773240.2274                   22773237.0234
 -47280755.96947 -36823163.47045  22541403.8984                   22541405.7424
  -7486569.41046  -5819232.76143  24008561.7424                   24008559.8714
 -20350276.27047 -15839651.15945  21970155.5704                   21970154.0474
 -62669750.29348 -48814753.89046  21663800.0164                   21663797.5234
 -25772644.76647 -20065022.59844  22840576.7424                   22840576.3134
 -30880839.64847 -24045029.64845  21469083.5864                   21469082.0354
  -2898331.09446  -2236173.40943  23625707.2424                   23625706.6174
 11  9 29  0 44 30.0000000  0 10G29G12G02G25G21G15G05G30G26G18
 -42122342.11748 -32805897.05346  20561258.2814                   20561256.9884
 -59507784.55147 -46351274.25744  23678758.1024                   23678758.3984
 -82821539.16047 -64517545.31844  22764269.9774                   22764266.2234
 -47311185.14547 -36846874.52045  22535613.0944                   22535614.7734
  -7646205.82047  -5943624.63244  23978183.3754                   23978182.2234
 -20534448.73847 -15983162.07745  21935108.7194                   21935107.8324
 -62694156.15248 -48833771.42346  21659155.0314                   21659152.9414
 -25838249.73047 -20116143.36744  22828092.5164                   22828092.0744
 -31031371.12147 -24162326.84145  21440437.9694                   21440436.9024
  -3078433.18746  -2376512.48643  23591434.2274                   23591433.7424
 11  9 29  0 45  0.0000000  0 10G29G12G02G25G21G15G05G30G26G18
 -40696101.94948 -31694541.04446  20832662.8364                   20832661.0354
 -57938140.04347 -45128174.70644  23977451.6484                   23977451.0824
 -81293096.21947 -63326550.78544  23055123.2894                   23055119.4264
 -45765881.37547 -35642741.73545  22829674.8984                   22829676.2344
  -6230410.61347  -4840407.50244  24247600.2274                   24247598.0514
 -19142864.25047 -14898810.42745  22199918.5944                   22199917.0864
 -61142893.18448 -47624995.06446  21954350.9454                   21954348.8794
 -24327935.60947 -18939275.21645  23115496.1884                   23115495.3364
 -29605877.59848 -23051552.59845  21711700.7734                   21711699.0274
  -1682844.96146  -1289040.99443  23857006.0234                   23857005.4774
 11  9 29  0 45 30.0000000  0 10G29G12G02G25G21G15G05G30G26G18
 -40844844.67648 -31810444.42946  20804358.0634                   20804356.1254
 -57943876.08647 -45132644.40844  23976360.1094                   23976360.2304
 -81339912.25047 -63363030.75844  23046214.2894                   23046210.5744
 -45795688.01647 -35665967.69045  22824002.5004                   22824003.8324
  -6390033.38347  -4964788.74544  24217225.3054                   24217223.6564
 -19326370.29347 -15041802.06145  22164998.4534                   22164997.0594
 -61166803.23848 -47643626.24746  21949800.9384                   21949798.7544
 -24392547.29347 -18989621.97044  23103200.7974                   23103200.3014
 -29755204.43447 -23167911.10445  21683284.6564                   21683282.7894
  -1862416.09846  -1428966.36243  23822834.4384                   23822834.2234
 11  9 29  0 46  0.0000000  0 10G29G12G02G25G21G15G05G30G26G18
 -40993145.44948 -31926003.43146  20776137.1334                   20776135.3554
 -57949577.26647 -45137086.92644  23975275.1254                   23975275.8794
 -81386567.67247 -63399385.58844  23037336.8284                   23037332.1644
 -45825189.52047 -35688955.88345  22818388.6414                   22818389.9654
  -6549650.86347  -5089165.86944  24186850.8674                   24186849.6454
 -19509540.16847 -15184531.72446  22130142.3594                   22130141.0744
 -61190470.57848 -47662068.32246  21945297.1024                   21945295.1414
 -24456667.41847 -19039585.72345  23090999.1724                   23090998.9184
 -29903926.47347 -23283798.33545  21654983.5394                   21654981.8674
  -2041722.03146  -1568685.10343  23788713.0394                   23788712.1564
 11  9 29  0 46 30.0000000  0 10G29G12G02G25G21G15G05G30G26G18
 -41141002.22748 -32041216.46946  20748001.1254                   20747999.0354
 -57955247.68047 -45141505.46844  23974197.0944                   23974196.4654
 -81433062.24247 -63435615.07744  23028488.5314                   23028484.6454
 -45854389.19947 -35711708.89945  22812832.4224                   22812833.9614
  -6709264.07047  -5213539.66944  24156477.4774                   24156476.1644
 -19692370.97747 -15326997.21245  22095350.5394                   22095349.5984
 -61213897.53148 -47680323.06646  21940838.9844                   21940837.0124
 -24520298.65247 -19089168.49145  23078890.3594                   23078890.5594
 -30052041.53147 -23399212.59545  21626798.4844                   21626796.7074
  -2220762.20746  -1708196.76543  23754643.6254                   23754641.5204
 11  9 29  0 47  0.0000000  0 10G29G12G02G25G21G15G05G30G26G18
 -41288414.49248 -32156083.13446  20719949.5234                   20719947.5204
 -57960891.20347 -45145903.04344  23973121.7034                   23973122.2584
 -81479397.36747 -63471720.35244  23019671.0864                   23019667.1604
 -45883291.89547 -35734230.49845  22807332.1724                   22807333.7114
  -6868875.12547  -5337911.79544  24126104.4224                   24126102.6844
 -19874861.45747 -15469197.49245  22060623.8054                   22060622.5514
 -61237088.46148 -47698393.90546  21936425.9924                   21936423.5124
 -24583445.02347 -19138373.42545  23066874.1024                   23066873.6094
 -30199548.28147 -23514152.84746  21598728.6094                   21598726.9024
  -2399537.50046  -1847502.09943  23720623.5004                   23720622.6484
 11  9 29  0 47 30.0000000  0 10G29G12G02G25G21G15G05G30G26G18
 -41435377.71148 -32270599.89246  20691983.2034                   20691981.3324
 -57966508.09047 -45150279.89544  23972053.4304                   23972054.1134
 -81525569.79347 -63507698.85944  23010884.8134                   23010880.6254
 -45911897.80947 -35756520.82745  22801888.6174                   22801890.4264
  -7028481.14847  -5462280.02344  24095732.2584                   24095730.3014
 -20057005.75447 -15611128.02545  22025963.0164                   22025961.5474
 -61260042.68748 -47716280.30746  21932057.7194                   21932055.6724
 -24646106.07047 -19187200.19444  23054949.6094                   23054950.0554
 -30346441.39847 -23628614.94845  21570775.8984                   21570773.7034
  -2578043.97347  -1986597.87143  23686655.1094                   23686653.9964
 11  9 29  0 48  0.0000000  0 10G29G12G02G25G21G15G05G30G26G18
 -41581890.78948 -32384765.88746  20664102.8834                   20664100.7034
 -57972102.78947 -45154639.48444  23970989.1884                   23970989.6684
 -81571580.14547 -63543551.03844  23002129.4614                   23002125.6254
 -45940211.47347 -35778583.44845  22796500.4304                   22796502.4144
  -7188083.93447  -5586645.70044  24065360.4384                   24065359.4734
 -20238802.24247 -15752787.54146  21991368.3444                   21991366.4964
 -61282764.08248 -47733985.25946  21927733.5944                   21927732.1294
 -24708285.63747 -19235651.80644  23043116.7504                   23043117.9024
 -30492719.57047 -23742597.90745  21542940.0234                   21542938.1724
  -2756282.72347  -2125485.06444  23652736.8834                   23652736.5944
 11  9 29  0 48 30.0000000  0 10G29G12G02G25G21G15G05G30G26G18
 -41727953.02748 -32498580.58946  20636308.1884                   20636305.9534
 -57977679.36747 -45158984.93944  23969927.1564                   23969928.1484
 -81617429.79747 -63579277.96944  22993404.2664                   22993400.4654
 -45968237.28947 -35800421.77245  22791167.7894                   22791169.0234
  -7347684.75047  -5711009.81044  24034989.1724                   24034988.2854
 -20420249.16847 -15894174.67346  21956839.5634                   21956838.3554
 -61305255.95748 -47751511.37346  21923454.1174                   21923452.0554
 -24769987.49647 -19283731.16745  23031375.9694                   23031376.3054
 -30638381.89548 -23856100.94745  21515221.1094                   21515219.8364
  -2934254.21947  -2264164.01344  23618869.7344                   23618869.9224
 11  9 29  0 49  0.0000000  0 10G29G12G02G25G21G15G05G30G26G18
 -41873561.42248 -32612041.64046  20608599.4064                   20608597.6764
 -57983239.52746 -45163317.56244  23968869.8364                   23968870.7424
 -81663117.15647 -63614878.47044  22984710.4454                   22984706.3794
 -45995977.35547 -35822037.40645  22785889.1644                   22785890.1454
  -7507282.97347  -5835371.94044  24004619.5004                   24004617.5744
 -20601342.73848 -16035286.46546  21922379.0004                   21922377.2304
 -61327519.97748 -47768859.93246  21919217.4924                   21919214.6684
 -24831213.11747 -19331439.40944  23019725.2344                   23019725.1844
 -30783424.29748 -23969120.96645  21487620.5314                   21487618.7664
  -3111956.45346  -2402633.15444  23585053.8054                   23585053.7664
 11  9 29  0 49 30.0000000  0 10G29G12G02G25G21G15G05G30G26G18
 -42018713.97348 -32725147.49347  20580977.6564                   20580975.9534
 -57988786.50446 -45167640.01444  23967814.0004                   23967815.3094
 -81708642.47747 -63650352.70444  22976047.4614                   22976043.5044
 -46023435.52347 -35843433.38545  22780663.6174                   22780665.9414
  -7666879.40646  -5959732.66044  23974248.4924                   23974247.1214
 -20782080.40248 -16176120.93246  21887985.7194                   21887984.0124
 -61349559.00048 -47786033.17646  21915023.6414                   21915021.8674
 -24891965.63347 -19378778.99344  23008164.0084                   23008164.1334
 -30927845.07448 -24081656.59345  21460138.2504                   21460136.7504
  -3289389.44147  -2540892.46244  23551289.6804                   23551289.1914
 11  9 29  0 50  0.0000000  0 10G29G12G02G25G21G15G05G30G26G18
 -42163408.60248 -32837896.52246  20553443.4924                   20553441.5864
 -57994323.27747 -45171954.41944  23966760.4534                   23966761.4454
 -81754004.95747 -63685700.08345  22967414.6954                   22967410.9224
 -46050614.49647 -35864611.83745  22775492.1414                   22775493.6684
  -7826474.02346  -6084091.99343  23943878.2664                   23943876.4804
 -20962458.90648 -16316675.52745  21853660.8674                   21853658.8634
 -61371375.07048 -47803032.69446  21910871.7894                   21910869.7194
 -24952247.29347 -19425751.68544  22996692.7114                   22996693.1844
 -31071641.52748 -24193705.71945  21432774.6094                   21432772.5664
  -3466552.16846  -2678941.18644  23517576.4924                   23517576.8094
 11  9 29  0 50 30.0000000  0 10G29G12G02G25G21G15G05G30G26G18
 -42307644.03548 -32950287.73246  20525996.3444                   20525994.5234
 -57999853.13347 -45176263.48044  23965708.4384                   23965709.0164
 -81799205.06247 -63720920.93944  22958813.7814                   22958809.9304
 -46077518.26647 -35885575.83145  22770371.7814                   22770373.8244
  -7986067.76247  -6208450.60344  23913508.8524                   23913506.2424
 -21142476.10548 -16456948.59945  21819404.4844                   21819402.6684
 -61392971.18447 -47819860.81446  21906762.1954                   21906760.1914
 -25012061.27047 -19472359.96144  22985310.1724                   22985310.6884
 -31214811.96147 -24305267.05245  21405530.0474                   21405528.4774
  -3643444.46147  -2816779.18444  23483914.9384                   23483914.7114
 11  9 29  0 51  0.0000000  0 10G29G12G02G25G21G15G05G30G26G18
 -42451418.88748 -33062320.03547  20498636.7734                   20498634.6954
 -58005379.94547 -45180570.11844  23964656.8134                   23964656.9774
 -81844243.04347 -63756015.43245  22950243.1024                   22950239.2584
 -46104150.72347 -35906328.39645  22765304.4774                   22765305.8164
  -8145661.77046  -6332809.48043  23883138.7034                   23883137.4104
 -21322129.69148 -16596938.33745  21785217.3364                   21785215.3164
 -61414350.58647 -47836520.07146  21902694.3364                   21902691.8554
 -25071410.94547 -19518606.40744  22974015.9144                   22974016.3984
 -31357354.73047 -24416339.28945  21378404.6724                   21378403.1564
  -3820066.57447  -2954406.66944  23450304.4844                   23450304.2734
 11  9 29  0 51 30.0000000  0 10G29G12G02G25G21G15G05G30G26G18
 -42594732.97348 -33173993.30547  20471364.7584                   20471363.4494
 -58010907.96547 -45184877.74444  23963604.9534                   23963604.8954
 -81889120.31247 -63790984.72044  22941703.2274                   22941699.7384
 -46130516.80147 -35926873.42045  22760286.9224                   22760288.5234
  -8305258.06646  -6457170.12143  23852768.6254                   23852766.5514
 -21501418.93048 -16736644.15745  21751099.6954                   21751097.9264
 -61435517.26247 -47853013.56746  21898666.0474                   21898663.9804
 -25130300.73447 -19564494.56144  22962809.6884                   22962810.5394
 -31499268.92248 -24526921.75145  21351399.6954                   21351397.7734
  -3996419.42647  -3091824.31244  23416746.5234                   23416745.1914
 11  9 29  0 52  0.0000000  0 10G29G12G02G25G21G15G05G30G26G18
 -42737581.21547 -33285303.57447  20444181.6024                   20444179.5904
 -58016437.57847 -45189186.59344  23962552.1724                   23962553.4064
 -81933833.56247 -63825826.14844  22933194.6414                   22933190.9184
 -46156616.61348 -35947210.95245  22755320.4064                   22755321.5634
  -8464853.61747  -6581530.16243  23822398.3594                   23822396.0204
 -21680337.39548 -16876061.06646  21717052.8834                   21717050.9964
 -61456470.38747 -47869340.66046  21894678.9614                   21894676.9734
 -25188730.12547 -19610023.93944  22951691.7274                   22951691.3444
 -31640549.22747 -24637010.25745  21324514.9614                   21324513.0554
  -4172499.54347  -3229029.51644  23383239.6804                   23383237.9884
 11  9 29  0 52 30.0000000  0 10G29G12G02G25G21G15G05G30G26G18
 -41304539.50448 -32168647.66047  20716880.4844                   20716878.6134
 -56446553.93747 -43965900.71044  24261291.8754                   24261291.7734
 -80402963.50447 -62632940.37644  23224509.6804                   23224505.6764
 -44607035.22747 -34739744.95245  23050195.7504                   23050196.9104
  -7049026.33647  -5478288.05244  24091821.5084                   24091819.1334
 -20283459.14548 -15787584.43546  21982869.8914                   21982868.0824
 -59901794.69947 -46657905.04246  22190523.6954                   22190521.6914
 -23671282.50447 -18427597.19444  23240452.8984                   23240451.9614
 -30205771.63348 -23519001.71545  21597544.1094                   21597541.8094
  -2772882.87947  -2138418.96144  23649577.9064                   23649576.2734
 11  9 29  0 53  0.0000000  0 10G29G12G02G25G21G15G05G30G26G18
 -41446455.91048 -32279231.81446  20689874.7034                   20689872.5864
 -56452100.66047 -43970222.88644  24260236.4304                   24260236.1414
 -80447353.58647 -62667530.02744  23216062.7584                   23216058.9304
 -44632617.98047 -34759679.58345  23045327.6724                   23045328.8914
  -7208627.19947  -5602652.24744  24061450.5704                   24061448.3714
 -20461633.62148 -15926421.61646  21948964.3134                   21948962.2504
 -59922334.09047 -46673909.73646  22186615.2734                   22186612.8284
 -23728804.97747 -18472419.90244  23229505.9694                   23229505.6994
 -30345783.42648 -23628101.76945  21570900.3284                   21570898.9304
  -2948421.15247  -2275201.90143  23616173.4924                   23616171.3794
 11  9 29  0 53 30.0000000  0 10G29G12G02G25G21G15G05G30G26G18
 -41587902.60548 -32389449.98147  20662958.2274                   20662956.1604
 -56457659.07847 -43974554.17344  24259178.5234                   24259179.0234
 -80491580.43047 -62701992.49044  23207646.1174                   23207642.4024
 -44657946.07847 -34779415.78345  23040507.8054                   23040509.0434
  -7368230.12947  -5727018.05144  24031078.8054                   24031076.8324
 -20639430.64147 -16064964.67646  21915130.4454                   21915128.7274
 -59942668.98447 -46689755.09746  22182745.8444                   22182743.5514
 -23785876.93747 -18516891.52144  23218645.9614                   23218645.4024
 -30485156.55547 -23736704.15645  21544378.5704                   21544376.8364
  -3123686.65247  -2411772.32443  23582820.9924                   23582819.0904
 11  9 29  0 54  0.0000000  0 10G29G12G02G25G21G15G05G30G26G18
 -41728878.22748 -32499301.07347  20636131.6414                   20636129.6294
 -56463232.78947 -43978897.37843  24258118.5314                   24258118.5004
 -80535644.41047 -62736328.03044  23199260.5234                   23199257.1054
 -44683023.48447 -34798956.63745  23035735.6724                   23035737.6454
  -7527836.04747  -5851386.19344  24000707.1954                   24000704.8634
 -20816848.34848 -16203212.16546  21881369.3674                   21881366.7854
 -59962802.48447 -46705443.51746  22178914.2194                   22178912.1174
 -23842501.93747 -18561014.90044  23207870.4224                   23207870.3094
 -30623889.46547 -23844807.66545  21517978.4694                   21517976.7304
  -3298679.78547  -2548130.46344  23549521.1564                   23549519.9304
 11  9 29  0 54 30.0000000  0 10G29G12G02G25G21G15G05G30G26G18
 -41869380.00848 -32608782.94046  20609394.9454                   20609392.8284
 -56468824.07047 -43983254.31343  24257053.9454                   24257054.5354
 -80579544.50047 -62770535.90144  23190907.3984                   23190903.6374
 -44707852.50047 -34818303.94545  23031011.4304                   23031012.5594
  -7687444.44947  -5975756.26444  23970334.0084                   23970332.2344
 -20993883.14848 -16341161.28746  21847680.6414                   21847678.5044
 -59982736.16047 -46720976.22546  22175120.5474                   22175119.0784
 -23898681.72347 -18604791.32044  23197179.4774                   23197179.0434
 -30761979.07047 -23952409.88445  21491701.1414                   21491699.2704
  -3473398.60546  -2684274.90943  23516272.7274                   23516272.3014
 11  9 29  0 55  0.0000000  0 10G29G12G02G25G21G15G05G30G26G18
 -42009407.07448 -32717894.90047  20582748.6884                   20582746.3984
 -56474437.00446 -43987628.09443  24255985.6174                   24255986.3244
 -80623281.66447 -62804616.75044  23182584.3594                   23182580.8594
 -44732437.58247 -34837461.16445  23026332.2504                   23026334.0474
  -7847056.63347  -6100129.29944  23939960.6024                   23939959.2154
 -21170533.12548 -16478810.53446  21814065.0554                   21814063.1484
 -60002473.03547 -46736355.59345  22171365.3284                   22171363.2114
 -23954420.28147 -18648223.94944  23186573.1024                   23186572.2504
 -30899424.39548 -24059510.07345  21465546.1254                   21465544.1334
  -3647844.03546  -2820206.26343  23483076.7424                   23483076.4104
 11  9 29  0 55 30.0000000  0 10G29G12G02G25G21G15G05G30G26G18
 -42148955.23048 -32826633.68147  20556193.5084                   20556191.3954
 -56480071.92646 -43992019.02543  24254913.7034                   24254914.5084
 -80666853.09847 -62838568.47744  23174292.7114                   23174288.9694
 -44756779.63347 -34856429.05345  23021700.1884                   23021702.2344
  -8006670.43747  -6224503.56544  23909587.0554                   23909585.8134
 -21346793.43047 -16616156.16846  21780523.9064                   21780521.9924
 -60022013.98847 -46751582.28145  22167646.5944                   22167644.4384
 -24009718.00847 -18691313.09244  23176050.5784                   23176049.6134
 -31036221.01648 -24166104.77045  21439514.8284                   21439512.3364
  -3822013.00447  -2955922.21044  23449933.4454                   23449932.7304
 11  9 29  0 56  0.0000000  0 10G29G12G02G25G21G15G05G30G26G18
 -42288024.46948 -32934999.28547  20529729.9384                   20529727.6564
 -56485733.42246 -43996430.63043  24253835.7974                   24253836.7034
 -80710260.65247 -62872392.55144  23166032.8284                   23166029.1724
 -44780884.00447 -34875211.67945  23017113.4224                   23017115.4144
  -8166288.44946  -6348881.13644  23879212.1644                   23879210.6564
 -21522663.30948 -16753197.56446  21747056.7504                   21747054.4264
 -60041362.98447 -46766659.39145  22163964.7344                   22163962.4574
 -24064579.78547 -18734062.54844  23165610.9144                   23165609.8324
 -31172368.83647 -24272193.92445  21413605.8914                   21413604.2974
  -3995906.79747  -3091423.75044  23416842.8524                   23416841.2544
 11  9 29  0 56 30.0000000  0 10G29G12G02G25G21G15G05G30G26G18
 -42426613.38748 -33042990.61547  20503356.8444                   20503354.7664
 -56491424.70746 -44000865.51244  24252753.5084                   24252754.3634
 -80753503.86747 -62906088.53944  23157803.7034                   23157799.5434
 -44804753.73447 -34893811.52145  23012570.9534                   23012573.0594
  -8325910.49247  -6473261.83844  23848837.7814                   23848835.9774
 -21698139.17247 -16889931.92446  21713664.5554                   21713662.8634
 -60060522.22347 -46781588.65246  22160318.8284                   22160316.5514
 -24119008.24247 -18776474.31744  23155253.0004                   23155252.4144
 -31307865.93048 -24377776.00046  21387822.0634                   21387820.0634
  -4169525.46547  -3226710.89644  23383804.4454                   23383803.0204
 11  9 29  0 57  0.0000000  0 10G29G12G02G25G21G15G05G30G26G18
 -42564719.88348 -33150606.03047  20477076.0474                   20477073.6374
 -56497148.37546 -44005325.59944  24251664.5554                   24251665.8094
 -80796582.27347 -62939656.11944  23149605.8524                   23149602.2304
 -44828391.94547 -34912230.94145  23008072.5944                   23008075.3674
  -8485536.86746  -6597645.93444  23818461.2504                   23818460.5394
 -21873218.97747 -17026357.68846  21680347.7974                   21680345.9304
 -60079493.84847 -46796371.71345  22156708.9304                   22156706.2774
 -24173006.11347 -18818550.58644  23144977.9774                   23144977.0474
 -31442709.76648 -24482849.05145  21362162.0004                   21362160.1564
  -4342867.97747  -3361782.87344  23350818.3674                   23350816.9964
 11  9 29  0 57 30.0000000  0 10G29G12G02G25G21G15G05G30G26G18
 -42702341.39548 -33257843.53047  20450887.3914                   20450885.0864
 -56502906.85546 -44009812.77944  24250568.6334                   24250569.5554
 -80839494.98846 -62973094.57244  23141440.1414                   23141436.3634
 -44851801.55947 -34930472.20445  23003617.7274                   23003620.0394
  -8645167.18447  -6722033.15044  23788085.0314                   23788082.6454
 -22047899.43448 -17162472.25846  21647107.1884                   21647105.5084
 -60098279.54347 -46811009.88145  22153134.0474                   22153131.4304
 -24226575.67247 -18860293.11744  23134783.8754                   23134782.9534
 -31576897.98047 -24587411.23446  21336626.6724                   21336624.8094
  -4515933.53547  -3496639.02544  23317884.7034                   23317883.8484
 11  9 29  0 58  0.0000000  0 10G29G12G02G25G21G15G05G30G26G18
 -42839476.74648 -33364702.20647  20424791.3914                   20424789.0634
 -56508703.44947 -44014329.74644  24249465.6174                   24249466.2344
 -80882242.68447 -63006404.44544  23133305.6334                   23133301.2424
 -44874986.46547 -34948538.42045  22999205.9454                   22999208.3484
  -8804802.41047  -6846424.15344  23757707.7274                   23757705.2234
 -22222178.09847 -17298273.75546  21613943.1094                   21613940.8554
 -60116882.85947 -46825505.94546  22149593.7034                   22149591.4694
 -24279720.42247 -18901704.63744  23124670.5704                   23124670.0944
 -31710429.30947 -24691461.53845  21311216.5634                   21311214.6294
  -4688722.34046  -3631279.54544  23285004.2114                   23285002.1254
 11  9 29  0 58 30.0000000  0 10G29G12G02G25G21G15G05G30G26G18
 -42976123.87548 -33471180.45147  20398788.1414                   20398786.1214
 -56514540.38747 -44018878.08644  24248354.9774                   24248355.6914
 -80924824.57847 -63039585.08544  23125202.7894                   23125198.6564
 -44897949.61347 -34966431.79945  22994836.6414                   22994838.9384
  -8964442.42247  -6970818.92644  23727329.0314                   23727326.6454
 -22396052.04747 -17433759.87746  21580856.0784                   21580853.7234
 -60135305.59447 -46839861.30345  22146087.8444                   22146085.7114
 -24332443.02347 -18942787.17944  23114637.6094                   23114637.2274
 -31843301.60247 -24794998.35245  21285931.8054                   21285930.3094
  -4861233.63347  -3765703.79444  23252176.1644                   23252174.5904
 11  9 29  0 59  0.0000000  0 10G29G12G02G25G21G15G05G30G26G18
 -43112283.25848 -33577278.64647  20372878.0474                   20372875.8094
 -56520423.64847 -44023462.54644  24247235.9144                   24247236.2114
 -80967242.63747 -63072638.05044  23117130.7814                   23117126.4574
 -44920696.60247 -34984156.74945  22990508.3984                   22990509.8874
  -9124089.73047  -7095219.39444  23696949.2274                   23696946.6454
 -22569520.95347 -17568930.38546  21547846.0864                   21547843.8754
 -60153552.13347 -46854079.37545  22142615.9454                   22142613.4924
 -24384748.51647 -18983544.72844  23104684.9144                   23104683.5784
 -31975514.98847 -24898021.72245  21260772.4224                   21260770.6134
  -5033468.97347  -3899913.03044  23219400.0004                   23219398.9384
 11  9 29  0 59 30.0000000  0 10G29G12G02G25G21G15G05G30G26G18
 -43247950.42248 -33682993.26447  20347061.3054                   20347059.1764
 -56526352.45747 -44028082.45544  24246107.3284                   24246108.5434
 -81009494.07847 -63105561.21444  23109090.4924                   23109086.1094
 -44943227.93447 -35001713.68245  22986220.8754                   22986222.3554
  -9283741.96547  -7219623.67944  23666568.2974                   23666565.8014
 -22742579.24648 -17703780.93846  21514913.9454                   21514912.2074
 -60171622.26647 -46868159.95845  22139176.9694                   22139174.7074
 -24436637.12147 -19023977.40344  23094810.3364                   23094809.8594
 -32107065.14147 -25000528.28845  21235738.8834                   21235737.4184
  -5205425.38747  -4033904.92844  23186678.1094                   23186676.2974
 11  9 29  1  0  0.0000000  0 10G29G12G02G25G21G15G05G30G26G18
 -43383123.16848 -33788322.64847  20321339.2274                   20321336.6214
 -56532329.89547 -44032740.31644  24244970.4534                   24244970.9344
 -81051578.02747 -63138353.85644  23101081.8524                   23101077.9104
 -44965546.33647 -35019104.68045  22981973.6334                   22981975.4574
  -9443398.41847  -7344031.26444  23636186.9224                   23636183.0634
 -22915223.73447 -17838309.03946  21482060.7504                   21482058.9614
 -60189517.77347 -46882104.52045  22135771.6414                   22135769.3404
 -24488111.13747 -19064087.01444  23085015.1094                   23085014.7304
 -32237949.62947 -25102516.15745  21210832.3444                   21210830.8204
  -5377101.89847  -4167678.73144  23154009.2504                   23154008.0084
 11  9 29  1  0 30.0000000  0 10G29G12G02G25G21G15G05G30G26G18
 -41942375.50448 -32665662.09647  20595504.1804                   20595502.0204
 -54962938.64547 -42809838.11243  24543615.6804                   24543615.8754
 -79518073.28547 -61943415.07744  23392897.9454                   23392894.1254
 -43412234.89147 -33808732.12845  23277558.9144                   23277561.1054
  -8027634.64547  -6240838.65144  23905598.0864                   23905595.1174
 -21512026.54748 -16744908.56046  21749080.5004                   21749078.4614
 -58631820.71547 -45668314.57246  22432191.3834                   22432189.2774
 -22963752.29747 -17876274.97444  23375091.4454                   23375091.1884
 -30792742.72747 -23976380.86646  21485846.3984                   21485844.2384
  -3973072.57447  -3073629.82544  23421187.1254                   23421185.3284
 11  9 29  1  1  0.0000000  0 10G29G12G02G25G21G15G05G30G26G18
 -42076555.27048 -32770217.71547  20569970.5944                   20569967.8914
 -54969022.28147 -42814578.70143  24542457.7034                   24542458.9144
 -79559822.63347 -61975947.01044  23384953.5634                   23384949.3954
 -43434138.61747 -33825799.99845  23273390.9144                   23273392.9264
  -8187301.92647  -6365254.65944  23875214.0084                   23875211.7544
 -21683837.00848 -16878786.78346  21716385.7274                   21716383.7704
 -58649374.67248 -45681992.98545  22428850.9844                   22428848.6684
 -23014407.27046 -17915746.40644  23365451.7424                   23365451.8674
 -30922291.43447 -24077327.87745  21461194.0944                   21461192.2274
  -4144189.12547  -3206967.25344  23388624.9924                   23388623.8874
 11  9 29  1  1 30.0000000  0 10G29G12G02G25G21G15G05G30G26G18
 -42210233.60248 -32874382.61847  20544532.3524                   20544530.0004
 -54975160.52346 -42819361.83843  24541289.5474                   24541290.8324
 -79601401.69947 -62008346.26244  23377041.0474                   23377037.3324
 -43455837.34047 -33842708.10245  23269262.0164                   23269263.8954
  -8346972.42647  -6489673.14044  23844829.6884                   23844826.7814
 -21855223.76648 -17012334.83646  21683771.7734                   21683770.4844
 -58666758.93447 -45695539.14645  22425543.0164                   22425540.5784
 -23064654.59046 -17954900.15144  23355889.5944                   23355889.5044
 -31051167.17247 -24177750.50346  21436669.7974                   21436667.9844
  -4315022.85247  -3340084.36144  23356116.1094                   23356114.9734
 11  9 29  1  2  0.0000000  0 10G29G12G02G25G21G15G05G30G26G18
 -42343410.06648 -32978156.44447  20519189.5704                   20519187.4924
 -54981357.70346 -42824190.89643  24540110.7034                   24540111.6804
 -79642811.58247 -62040613.66744  23369161.1414                   23369156.9494
 -43477335.87147 -33859460.23145  23265170.8594                   23265172.2504
  -8506647.60246  -6614095.21344  23814444.3984                   23814442.4064
 -22026185.39148 -17145551.61946  21651238.7814                   21651236.7344
 -58683977.13347 -45708955.91745  22422266.4694                   22422264.1804
 -23114498.58246 -17993739.63644  23346404.8674                   23346405.1024
 -31179369.60248 -24277648.46945  21412273.5864                   21412272.3554
  -4485574.72347  -3472981.80944  23323660.8754                   23323660.0084
 11  9 29  1  2 30.0000000  0 10G29G12G02G25G21G15G05G30G26G18
 -42476083.05948 -33081537.96447  20493942.4534                   20493940.6524
 -54987616.61746 -42829068.08143  24538919.6094                   24538920.8914
 -79684052.40246 -62072749.35244  23361312.8444                   23361308.7424
 -43498637.48447 -33876058.93244  23261117.2974                   23261119.0474
  -8666327.74247  -6738521.18744  23784057.5704                   23784055.7664
 -22196719.80948 -17278435.50746  21618787.6724                   21618785.4454
 -58701031.50847 -45722245.03945  22419021.3984                   22419018.6054
 -23163942.31247 -18032267.26444  23336996.0164                   23336996.1214
 -31306896.92248 -24377020.36845  21388005.9844                   21388004.1484
  -4655844.18747  -3605659.20444  23291259.8754                   23291258.3674
 11  9 29  1  3  0.0000000  0 10G29G12G02G25G21G15G05G30G26G18
 -42608249.58248 -33184524.83847  20468792.2664                   20468789.8324
 -54993939.05546 -42833994.79543  24537716.1174                   24537716.9734
 -79725122.71546 -62104752.16644  23353497.6644                   23353493.8954
 -43519744.53947 -33892506.01144  23257100.3594                   23257102.6884
  -8826012.38746  -6862950.63744  23753670.3364                   23753669.2384
 -22366823.25448 -17410983.57946  21586417.6724                   21586415.7384
 -58717923.53947 -45735407.63545  22415806.8984                   22415804.1684
 -23212987.85946 -18070484.55244  23327662.7664                   23327662.5594
 -31433746.67248 -24475864.30446  21363867.5314                   21363865.3524
  -4825829.90247  -3738115.53344  23258912.1644                   23258911.1334
 11  9 29  1  3 30.0000000  0 10G29G12G02G25G21G15G05G30G26G18
 -42739909.53548 -33287116.96547  20443738.3444                   20443735.9654
 -55000328.80546 -42838973.88443  24536500.9774                   24536501.3284
 -79766023.05146 -62136622.52644  23345714.5784                   23345710.4494
 -43540661.24647 -33908804.74644  23253120.4694                   23253122.1054
  -8985702.16446  -6987384.08344  23723282.1884                   23723281.2544
 -22536494.04747 -17543194.52446  21554130.4454                   21554128.3674
 -58734656.30147 -45748446.13945  22412622.6414                   22412620.7504
 -23261639.08246 -18108394.61244  23318404.9924                   23318404.6454
 -31559918.20748 -24574179.74846  21339857.7114                   21339855.3284
  -4995532.66847  -3870351.33444  23226619.1954                   23226617.6094
 11  9 29  1  4  0.0000000  0 10G29G12G02G25G21G15G05G30G26G18
 -42871062.30148 -33389313.88747  20418780.5634                   20418778.2504
 -55006789.78546 -42844008.50543  24535271.0474                   24535271.5084
 -79806754.61346 -62168361.39344  23337963.3674                   23337959.3914
 -43561392.16047 -33924958.74844  23249175.2344                   23249177.5354
  -9145398.70346  -7111822.76144  23692893.3134                   23692891.8204
 -22705730.83648 -17675067.27646  21521925.2814                   21521923.4064
 -58751233.49647 -45761363.42745  22409468.1024                   22409465.9654
 -23309900.17646 -18146000.67344  23309220.8594                   23309221.4964
 -31685411.25448 -24671966.49546  21315977.0394                   21315975.2624
  -5164953.48447  -4002367.46244  23194379.5554                   23194377.1414
 11  9 29  1  4 30.0000000  0 10G29G12G02G25G21G15G05G30G26G18
 -43001704.72347 -33491113.14047  20393920.1954                   20393917.5234
 -55013323.26646 -42849099.64843  24534027.2034                   24534028.5204
 -79847315.77046 -62199967.47444  23330245.3524                   23330240.8164
 -43581938.98047 -33940969.26844  23245265.6254                   23245267.0514
  -9305100.45746  -7236265.53644  23662503.2194                   23662501.0554
 -22874529.34848 -17806598.51746  21489804.0634                   21489802.1334
 -58767655.71947 -45774159.96945  22406343.5474                   22406340.4494
 -23357772.78147 -18183303.99644  23300112.0474                   23300111.4264
 -31810222.41048 -24769221.90146  21292226.3914                   21292224.3324
  -5334090.11347  -4134162.11644  23162193.1414                   23162191.9654
 11  9 29  1  5  0.0000000  0 10G29G12G02G25G21G15G05G30G26G18
 -43131833.59848 -33592512.21947  20369157.3444                   20369155.1374
 -55019930.45346 -42854248.14643  24532770.7814                   24532771.1884
 -79887704.70346 -62231439.34944  23322559.7504                   23322555.3364
 -43602303.72747 -33956837.94244  23241390.2664                   23241391.9654
  -9464806.62547  -7360711.73744  23632111.9224                   23632109.6884
 -23042885.94148 -17937785.40446  21457766.9144                   21457764.8204
 -58783923.82447 -45786836.39845  22403246.6254                   22403245.1994
 -23405258.39147 -18220305.78644  23291075.3054                   23291074.9774
 -31934348.85948 -24865943.78046  21268605.6174                   21268603.5984
  -5502941.07047  -4265734.18144  23130061.9304                   23130059.8634
 11  9 29  1  5 30.0000000  0 10G29G12G02G25G21G15G05G30G26G18
 -43261448.16448 -33693510.54847  20344492.6254                   20344490.2624
 -55026615.55146 -42859457.45943  24531498.6414                   24531499.9774
 -79927922.03946 -62262777.53644  23314905.8834                   23314902.0704
 -43622490.37147 -33972567.83344  23237548.9844                   23237550.6764
  -9624518.12547  -7485162.09844  23601720.1564                   23601717.8834
 -23210798.77048 -18068626.50946  21425814.1094                   21425812.3134
 -58800040.77047 -45799395.03545  22400179.9064                   22400178.0984
 -23452360.89147 -18257009.04844  23282112.2274                   23282111.6954
 -32057789.68448 -24962131.39545  21245115.8914                   21245113.9454
  -5671507.11747  -4397084.23444  23097985.1174                   23097983.0274
 11  9 29  1  6  0.0000000  0 10G29G12G02G25G21G15G05G30G26G18
 -43390547.67248 -33794107.52647  20319925.5004                   20319923.2504
 -55033381.18746 -42864729.46443  24530211.8054                   24530212.7544
 -79967968.10946 -62293982.24944  23307285.8204                   23307281.9574
 -43642502.75447 -33988161.92644  23233740.3984                   23233742.4694
  -9784235.03547  -7609616.67744  23571326.6174                   23571323.8714
 -23378265.59848 -18199120.07446  21393946.6334                   21393944.0634
 -58816009.44147 -45811838.13945  22397141.8914                   22397139.0004
 -23499083.90247 -18293416.57844  23273221.0944                   23273220.8204
 -32180544.38348 -25057784.36845  21221756.1954                   21221754.2154
  -5839788.10247  -4528212.16344  23065962.4924                   23065960.7274
 11  9 29  1  6 30.0000000  0 10G29G12G02G25G21G15G05G30G26G18
 -43519126.63348 -33894298.88447  20295457.9534                   20295455.5044
 -55040226.07846 -42870063.31544  24528909.1644                   24528910.0984
 -80007838.78946 -62325050.31344  23299698.5634                   23299694.5904
 -43662340.24647 -34003619.72244  23229965.4534                   23229968.1174
  -9943954.05947  -7734072.94544  23540932.8524                   23540930.4384
 -23545280.13347 -18329261.21146  21362164.2194                   21362162.4774
 -58831827.79347 -45824164.12445  22394131.4774                   22394128.9774
 -23545426.50047 -18329527.67944  23264402.5784                   23264402.0664
 -32302607.39848 -25152898.35645  21198528.3914                   21198526.2504
  -6007780.03147  -4659114.81644  23033994.0394                   23033992.4184
 11  9 29  1  7  0.0000000  0 10G29G12G02G25G21G15G05G30G26G18
 -43647185.51647 -33994084.99547  20271089.0164                   20271087.1604
 -55047155.60946 -42875463.04644  24527590.3914                   24527591.0314
 -80047535.97746 -62355983.19544  23292144.6484                   23292139.8204
 -43682008.34847 -34018945.55044  23226223.0634                   23226225.6294
 -10103677.35247  -7858532.52044  23510538.4304                   23510535.8874
 -23711842.26648 -18459049.83546  21330468.9384                   21330466.6564
 -58847500.40647 -45836376.49245  22391149.4064                   22391146.4494
 -23591393.98047 -18365346.50744  23255654.9534                   23255654.1954
 -32423979.39548 -25247473.89746  21175431.7114                   21175429.8524
  -6175484.53947  -4789793.55044  23002081.2504                   23002079.1174
 11  9 29  1  7 30.0000000  0 10G29G12G02G25G21G15G05G30G26G18
 -43774720.71548 -34093463.03047  20246819.9844                   20246817.6724
 -55054170.53946 -42880929.33044  24526255.0084                   24526257.2234
 -80087057.53547 -62386779.18544  23284623.7814                   23284619.6884
 -43701508.50047 -34034140.51145  23222512.3674                   23222514.4494
 -10263403.22347  -7982994.13344  23480143.3524                   23480139.9774
 -23877947.54748 -18588482.46146  21298859.7194                   21298857.5944
 -58863027.85547 -45848475.79745  22388193.8364                   22388191.8834
 -23636987.51647 -18400873.91344  23246978.7664                   23246977.5904
 -32544657.26248 -25341508.53446  21152467.7734                   21152465.6764
  -6342900.05547  -4920247.01644  22970222.6254                   22970221.3164
 11  9 29  1  8  0.0000000  0 10G29G12G02G25G21G15G05G30G26G18
 -43901732.57048 -34192433.28147  20222650.2734                   20222648.0704
 -55061274.51246 -42886465.07344  24524904.0784                   24524904.5314
 -80126404.69146 -62417439.31544  23277136.5634                   23277132.0944
 -43720845.35547 -34049208.21945  23218832.5864                   23218834.4694
 -10423133.13747  -8107458.88944  23449747.4384                   23449744.8674
 -24043594.77048 -18717558.15446  21267338.3754                   21267336.1804
 -58878413.56647 -45860464.64645  22385266.3284                   22385263.8984
 -23682211.55147 -18436113.43544  23238372.7344                   23238372.4104
 -32664641.19548 -25435002.46645  21129635.4924                   21129632.8754
  -6510027.55946  -5050476.08744  22938419.4384                   22938417.4144
 11  9 29  1  8 30.0000000  0 10G29G12G02G25G21G15G05G30G26G18
 -42452794.08648 -33063390.26547  20498373.9774                   20498371.6994
 -53493049.31646 -41664471.52843  24823327.1024                   24823328.7074
 -78590154.74647 -61220361.41044  23569474.8364                   23569470.5514
 -42164600.48047 -32836549.90445  23514976.3444                   23514977.8874
  -9007440.91047  -7004321.98144  23719145.3444                   23719142.0864
 -22633354.90248 -17618669.90146  21535698.0474                   21535695.3164
 -57318238.21147 -44644743.55645  22682157.9454                   22682155.4224
 -22151646.76247 -17243465.52044  23529629.2034                   23529629.5164
 -31208504.55548 -24300350.48646  21406729.1414                   21406726.8054
  -5101439.93447  -3952875.17744  23206464.6174                   23206462.6804
 11  9 29  1  9  0.0000000  0 10G29G12G02G25G21G15G05G30G26G18
 -42578753.91448 -33161540.73747  20474404.7034                   20474402.5514
 -53500339.73846 -41670152.49243  24821939.7504                   24821941.6214
 -78629152.03147 -61250748.92844  23562053.8754                   23562050.1994
 -42183620.21147 -32851370.49745  23511357.0784                   23511358.7974
  -9167178.82847  -7128792.98544  23688747.3594                   23688744.4144
 -22798078.41848 -17747025.80946  21504352.0474                   21504349.7584
 -57333346.46547 -44656516.20345  22679282.8754                   22679280.3444
 -22196140.91847 -17278136.28344  23521162.7734                   23521161.8204
 -31327095.85948 -24392759.25346  21384161.8364                   21384159.7034
  -5267989.90247  -4082654.23944  23174771.2814                   23174769.1954
 11  9 29  1  9 30.0000000  0 10G29G12G02G25G21G15G05G30G26G18
 -42704183.98448 -33259278.41847  20450536.0234                   20450533.6254
 -53507726.03146 -41675908.20243  24820534.9534                   24820535.4654
 -78667972.30147 -61280998.44944  23554667.1484                   23554662.8634
 -42202484.69147 -32866070.11245  23507766.7974                   23507769.4654
  -9326919.20347  -7253265.92144  23658349.8364                   23658347.7274
 -22962334.63348 -17875017.59946  21473095.0164                   21473092.6564
 -57348317.77347 -44668182.11645  22676434.0234                   22676431.5744
 -22240273.21146 -17312525.09644  23512764.0474                   23512763.0904
 -31444987.48848 -24484622.80945  21361727.7664                   21361725.5594
  -5434249.41847  -4212206.96244  23143132.6094                   23143130.8134
 11  9 29  1 10  0.0000000  0 10G29G12G02G25G21G15G05G30G26G18
 -42829081.85548 -33356601.40147  20426768.8364                   20426766.4454
 -53515209.38346 -41681739.54743  24819110.5394                   24819111.7304
 -78706614.47747 -61311109.25444  23547313.0704                   23547309.3914
 -42221196.15247 -32880650.49245  23504206.7114                   23504209.0204
  -9486661.19947  -7377740.12844  23627952.3054                   23627949.9774
 -23126120.11748 -18002642.59846  21441927.7734                   21441925.5904
 -57363153.45347 -44679742.36645  22673610.6884                   22673608.3054
 -22284045.65647 -17346633.47444  23504434.9534                   23504434.2194
 -31562176.96548 -24575939.23146  21339427.4144                   21339425.2154
  -5600217.00047  -4341532.20744  23111550.4774                   23111548.1294
 11  9 29  1 10 30.0000000  0  9G29G02G25G21G15G05G30G26G18
 -42953445.30148 -33453507.94747  20403103.3754                   20403100.7344
 -78745078.02747 -61341080.85544  23539994.3134                   23539989.7504
 -42239757.28147 -32895113.72945  23500674.5864                   23500676.8874
  -9646404.39547  -7502215.30044  23597553.4844                   23597551.9264
 -23289432.09848 -18129898.61546  21410850.2114                   21410847.7664
 -57377854.66447 -44691197.83545  22670813.1174                   22670811.1454
 -22327460.75846 -17380463.41044  23496173.0314                   23496172.1604
 -31678662.55148 -24666707.17246  21317261.1484                   21317258.5824
  -5765891.92247  -4470629.41944  23080022.7814                   23080021.2814
 11  9 29  1 11  0.0000000  0  9G29G02G25G21G15G05G30G26G18
 -43077272.17648 -33549996.39747  20379539.9454                   20379537.4104
 -78783362.17646 -61370912.65844  23532709.0474                   23532704.8094
 -42258170.55947 -32909461.76744  23497170.5554                   23497173.3164
  -9806147.89147  -7626690.68244  23567156.5704                   23567153.6174
 -23452267.09048 -18256782.96746  21379863.6564                   21379861.5664
 -57392422.82447 -44702549.63245  22668040.5554                   22668038.4494
 -22370520.89546 -17414016.85043  23487978.9384                   23487978.5704
 -31794442.39848 -24756925.16946  21295228.7424                   21295226.3054
  -5931272.94547  -4599497.61444  23048552.3204                   23048550.0634
 11  9 29  1 11 30.0000000  0  9G29G02G25G21G15G05G30G26G18
 -43200554.24648 -33646060.31847  20356080.2194                   20356077.5004
 -78821458.73446 -61400598.27344  23525458.9304                   23525454.9414
 -42276432.11747 -32923691.57844  23493696.0164                   23493697.1134
  -9965884.37947  -7751160.62444  23536759.5944                   23536756.8834
 -23614615.71948 -18383288.30946  21348969.8754                   21348967.4224
 -57406853.00847 -44713793.89245  22665294.8984                   22665292.4964
 -22413222.11346 -17447290.50644  23479853.4304                   23479853.1374
 -31909508.34048 -24846586.89946  21273332.3054                   21273329.9344
  -6096353.35247  -4728131.57344  23017138.5234                   23017136.3404
 11  9 29  1 12  0.0000000  0  9G29G02G25G21G15G05G30G26G18
 -43323286.48848 -33741695.80147  20332724.6804                   20332722.4304
 -78859364.53546 -61430135.25044  23518245.8204                   23518241.6334
 -42294541.81647 -32937803.04944  23490249.3984                   23490250.4804
 -10125610.85947  -7875622.75444  23506364.7344                   23506361.4304
 -23776472.33648 -18509410.28146  21318169.3364                   21318166.9844
 -57421144.02047 -44724929.74345  22662575.4454                   22662573.0704
 -22455564.19146 -17480284.37544  23471795.6024                   23471796.3634
 -32023855.60248 -24935688.61746  21251572.8834                   21251570.5474
  -6261129.09847  -4856528.13344  22985782.8054                   22985780.3054
 11  9 29  1 12 30.0000000  0  9G29G02G25G21G15G05G30G26G18
 -43445465.98848 -33836900.58747  20309474.8594                   20309472.4104
 -78897077.76646 -61459522.19744  23511069.2664                   23511065.2974
 -42312501.43047 -32951797.58744  23486832.0704                   23486833.6524
 -10285326.24647  -8000076.27644  23475971.6954                   23475968.2504
 -23937832.88748 -18635145.71546  21287463.7504                   21287460.7704
 -57435296.31647 -44735957.48445  22659881.8834                   22659879.9144
 -22497548.73046 -17512999.60344  23463806.7274                   23463806.3094
 -32137481.85948 -25024228.51745  21229950.5394                   21229948.5124
  -6425598.99247  -4984686.37644  22954484.7894                   22954482.8094
 11  9 29  1 13  0.0000000  0  9G29G02G25G21G15G05G30G26G18
 -43567094.25848 -33931675.82347  20286329.8054                   20286327.5984
 -78934600.87147 -61488760.98543  23503928.9064                   23503925.0044
 -42330316.90647 -32965679.79444  23483441.5474                   23483443.4494
 -10445033.01247  -8124523.02544  23445579.4144                   23445577.0394
 -24098697.73448 -18760494.87246  21256851.7344                   21256849.5944
 -57449314.68747 -44746880.88045  22657214.8754                   22657212.1174
 -22539181.56247 -17545440.82244  23455884.1644                   23455884.0634
 -32250388.76248 -25112207.88446  21208464.5704                   21208462.6724
  -6589765.36347  -5112608.11644  22923244.7034                   22923242.2664
 11  9 29  1 13 30.0000000  0  9G29G02G25G21G15G05G30G26G18
 -43688171.19148 -34026021.45647  20263289.6334                   20263287.3284
 -78971935.38346 -61517852.82243  23496824.6254                   23496820.3014
 -42347992.73047 -32979453.19044  23480078.1094                   23480079.5864
 -10604731.88747  -8248963.64244  23415190.1484                   23415186.8364
 -24259066.16047 -18885457.20846  21226334.4454                   21226332.3754
 -57463202.69947 -44757702.68045  22654571.6564                   22654569.6334
 -22580467.18047 -17577611.44244  23448028.2034                   23448027.6454
 -32362576.47348 -25199626.83546  21187116.2814                   21187114.3714
  -6753629.21947  -5240294.16744  22892062.7664                   22892060.1454
 11  9 29  1 14  0.0000000  0  9G29G02G25G21G15G05G30G26G18
 -43808695.62548 -34119936.57847  20240354.4694                   20240351.9454
 -79009081.10246 -61546797.49443  23489755.6174                   23489751.7274
 -42365532.80947 -32993120.76944  23476740.3364                   23476742.0784
 -10764423.87147  -8373398.88744  23384801.0314                   23384798.4534
 -24418936.15647 -19010031.18046  21195912.4384                   21195909.9574
 -57476962.76647 -44768424.80845  22651953.1484                   22651950.9454
 -22621409.37947 -17609514.45144  23440237.4774                   23440237.2734
 -32474044.70748 -25286485.17146  21165904.3674                   21165901.7734
  -6917191.31647  -5367745.05844  22860937.9694                   22860935.2464
 11  9 29  1 14 30.0000000  0  9G29G02G25G21G15G05G30G26G18
 -43928669.45748 -34213422.64747  20217524.2734                   20217521.6914
 -79046040.98046 -61575597.43443  23482722.4614                   23482718.1134
 -42382943.19147 -33006687.33544  23473427.1024                   23473429.7974
 -10924112.02747  -8497831.15644  23354413.7424                   23354410.8094
 -24578308.19148 -19134217.10046  21165584.9454                   21165582.3524
 -57490600.12547 -44779051.30045  22649358.6644                   22649356.2664
 -22662014.10547 -17641154.48944  23432510.7424                   23432510.1724
 -32584795.40648 -25372784.37646  21144829.3594                   21144826.9304
  -7080454.00447  -5494962.66844  22829870.1174                   22829866.9694
 11  9 29  1 15  0.0000000  0  9G29G02G25G21G15G05G30G26G18
 -44048089.25048 -34306477.00747  20194799.2114                   20194796.7974
 -79082812.61346 -61604250.67243  23475725.0234                   23475720.5634
 -42400224.69947 -33020153.48044  23470139.2814                   23470140.9104
 -11083793.49647  -8622258.19844  23324027.7114                   23324023.9884
 -24737177.64848 -19258011.41846  21135353.3914                   21135350.5554
 -57504114.07047 -44789581.63045  22646786.5314                   22646784.6254
 -22702282.23447 -17672532.29344  23424847.0394                   23424847.4064
 -32694825.21948 -25458521.86645  21123891.0944                   21123888.8754
  -7243414.85947  -5621945.06544  22798859.0234                   22798856.8484
 11  9 29  1 15 30.0000000  0  9G29G02G25G21G15G05G30G26G18
 -44166956.54348 -34399100.84047  20172179.7424                   20172177.1484
 -79119398.22746 -61632758.95143  23468763.1724                   23468758.8594
 -42417383.36747 -33033523.88244  23466873.4064                   23466875.6564
 -11243471.16346  -8746682.10644  23293641.7894                   23293638.7234
 -24895545.10547 -19381414.57546  21105216.3834                   21105213.9534
 -57517509.65247 -44800019.73445  22644237.4774                   22644235.0864
 -22742219.71547 -17703652.41844  23417247.2734                   23417247.3954
 -32804135.98448 -25543699.05145  21103090.0394                   21103087.8914
  -7406076.88347  -5748694.61744  22767906.2504                   22767903.1844
 11  9 29  1 16  0.0000000  0  9G29G02G25G21G15G05G30G26G18
 -44285271.30948 -34491294.12647  20149664.9144                   20149662.8244
 -79155799.40246 -61661123.54343  23461836.2194                   23461831.9344
 -42434424.01247 -33046802.31744  23463630.6334                   23463632.9774
 -11403146.69547  -8871104.70444  23263256.9694                   23263253.4144
 -25053409.64147 -19504425.83746  21075176.1484                   21075173.6334
 -57530790.34047 -44810368.31445  22641710.4774                   22641707.5594
 -22781831.16847 -17734518.48744  23409710.0004                   23409710.0394
 -32912728.52748 -25628316.58446  21082425.7734                   21082422.9694
  -7568441.33247  -5875212.31844  22737008.9774                   22737006.4304
 11  9 29  1 16 30.0000000  0  9G29G02G25G21G15G05G30G26G18
 -42827604.33248 -33355449.69647  20427049.6724                   20427047.4184
 -77616590.75846 -60461740.14843  23754738.0234                   23754733.5984
 -40875925.19147 -31832387.68844  23760203.2664                   23760205.4264
  -9987390.78147  -7767918.19644  23532665.7274                   23532662.8674
 -23635340.16847 -18399436.59946  21345025.3444                   21345023.2034
 -55968533.91047 -43593025.62645  22938997.8674                   22938995.2814
 -21245694.63346 -16537528.97544  23702026.8134                   23702026.5274
 -31445174.43048 -24484767.91846  21361691.9144                   21361689.2734
  -6155078.48447  -4773890.57544  23005962.6724                   23005959.9844
 11  9 29  1 17  0.0000000  0  9G29G02G25G21G15G05G30G26G18
 -42944804.81648 -33446774.71247  20404747.2974                   20404744.8484
 -77652616.96546 -60489812.52244  23747882.6174                   23747878.6024
 -40892733.69547 -31845485.22244  23757004.6024                   23757006.8014
 -10147056.19547  -7892332.71145  23502282.7114                   23502279.6484
 -23792186.91447 -18521654.78246  21315178.5314                   21315175.8834
 -55981585.46947 -43603195.65145  22936514.1254                   22936511.4614
 -21284658.22347 -16567890.19544  23694612.0164                   23694612.4304
 -31552322.28548 -24568259.70646  21341302.1024                   21341299.9774
  -6316841.69147  -4899939.75144  22975180.2034                   22975177.6214
 11  9 29  1 17 30.0000000  0  9G29G02G25G21G15G05G30G26G18
 -43061448.19148 -33537665.63247  20382550.7114                   20382548.5004
 -77688456.92646 -60517739.72944  23741062.7504                   23741057.5274
 -40909432.70747 -31858497.47745  23753827.2194                   23753829.6564
 -10306718.48447  -8016744.78644  23471899.8594                   23471897.2034
 -23948523.46948 -18643475.42246  21285428.6564                   21285426.3204
 -55994527.23447 -43613280.14145  22934051.2424                   22934049.2774
 -21323304.41447 -16598004.10644  23687258.0234                   23687257.9884
 -31658748.55548 -24651189.24446  21321049.7894                   21321047.6604
  -6478306.23047  -5025756.21344  22944454.3674                   22944452.0394
 11  9 29  1 18  0.0000000  0  9G29G02G25G21G15G05G30G26G18
 -43177533.08648 -33628121.34947  20360460.5004                   20360458.1454
 -77724110.42246 -60545521.67143  23734277.0004                   23734273.9654
 -40926025.30547 -31871426.78344  23750669.8674                   23750671.7274
 -10466376.88347  -8141153.80544  23441517.7504                   23441515.0744
 -24104347.09048 -18764896.38946  21255776.1334                   21255773.5554
 -56007360.85247 -43623280.35145  22931609.6884                   22931606.3984
 -21361636.32447 -16627873.11144  23679963.8594                   23679963.8164
 -31764452.29748 -24733555.75245  21300935.1804                   21300932.9104
  -6639471.53147  -5151339.48844  22913785.9534                   22913782.9224
 11  9 29  1 18 30.0000000  0  9G29G02G25G21G15G05G30G26G18
 -43293060.54748 -33718142.71947  20338476.1414                   20338473.7304
 -77759579.73846 -60573160.11944  23727528.4224                   23727524.3524
 -40942516.94147 -31884277.42844  23747531.4844                   23747533.1094
 -10626034.19147  -8265562.00144  23411135.7034                   23411133.1994
 -24259658.05148 -18885917.87046  21226221.3524                   21226219.4844
 -56020091.02047 -43633199.92145  22929186.5634                   22929183.9304
 -21399659.42247 -16657501.47244  23672727.8834                   23672728.0824
 -31869435.16048 -24815360.54446  21280957.4064                   21280955.1644
  -6800340.03947  -5276691.51644  22883173.3054                   22883170.3834
 11  9 29  1 19  0.0000000  0  9G29G02G25G21G15G05G30G26G18
 -43408028.62548 -33807728.20647  20316598.4844                   20316596.2154
 -77794863.75046 -60600654.19444  23720814.0234                   23720809.4304
 -40958909.94147 -31897051.22344  23744412.4064                   23744414.1724
 -10785688.71147  -8389968.01044  23380754.3054                   23380752.1524
 -24414452.97348 -19006537.24346  21196765.1644                   21196762.7384
 -56032718.38347 -43643039.42745  22926783.4924                   22926781.2034
 -21437376.00846 -16686890.99144  23665550.6484                   23665550.8364
 -31973695.53548 -24896602.35746  21261117.5554                   21261115.1644
  -6960911.00047  -5401811.67344  22852617.1644                   22852614.6804
 11  9 29  1 19 30.0000000  0  9G29G02G25G21G15G05G30G26G18
 -43522435.03148 -33896876.02347  20294827.5474                   20294825.3674
 -77829961.10546 -60628002.81744  23714134.8284                   23714131.2114
 -40975206.41847 -31909749.76844  23741310.9844                   23741312.5864
 -10945339.60947  -8514371.21344  23350373.8524                   23350370.8524
 -24568729.22348 -19126752.45946  21167407.0864                   21167405.0044
 -56045243.95347 -43652799.59245  22924399.9774                   22924397.7034
 -21474788.17246 -16716043.27043  23658431.0944                   23658431.2544
 -32077231.85248 -24977279.97945  21241414.8754                   21241412.6524
  -7121182.79347  -5526698.70344  22822118.7034                   22822116.5234
 11  9 29  1 20  0.0000000  0  9G29G02G25G21G15G05G30G26G18
 -43636277.77748 -33985584.62747  20273163.9384                   20273161.6684
 -77864870.40446 -60655204.84544  23707492.1484                   23707488.5314
 -40991408.33247 -31922374.69044  23738227.7664                   23738229.8244
 -11104986.00847  -8638770.89145  23319993.9694                   23319991.1134
 -24722482.96548 -19246560.52846  21138149.1724                   21138146.4884
 -56057668.55147 -43662481.04345  22922035.3444                   22922033.6884
 -21511898.07446 -16744960.09043  23651369.1414                   23651368.7664
 -32180042.14148 -25057391.85446  21221851.1724                   21221848.4414
  -7281154.43447  -5651351.85944  22791677.0314                   22791674.7664
 11  9 29  1 20 30.0000000  0  9G29G02G25G21G15G05G30G26G18
 -43749554.52348 -34073852.18347  20251608.5554                   20251606.0554
 -77899591.10546 -60682259.97744  23700885.4304                   23700881.0594
 -41007518.04747 -31934927.72044  23735161.7424                   23735163.9574
 -11264626.66047  -8763166.10244  23289615.7974                   23289612.0904
 -24875711.40248 -19365959.26346  21108990.6024                   21108988.1954
 -56069993.28147 -43672084.72245  22919690.3674                   22919688.1294
 -21548708.02346 -16773643.10243  23644364.1414                   23644363.0634
 -32282125.07848 -25136936.96245  21202425.3524                   21202422.5824
  -7440825.06647  -5775770.46244  22761292.8524                   22761290.2194
 11  9 29  1 21  0.0000000  0  9G29G02G25G21G15G05G30G26G18
 -43862266.50848 -34161679.67247  20230159.9614                   20230157.3794
 -77934125.02747 -60709169.54744  23694314.1414                   23694308.7584
 -41023541.14547 -31947413.27244  23732113.3134                   23732115.2274
 -11424263.80547  -8887558.62044  23259237.2274                   23259234.2664
 -25028415.07848 -19484949.09246  21079931.8754                   21079929.5004
 -56082222.55947 -43681614.01145  22917363.4774                   22917360.3634
 -21585223.76646 -16802096.91843  23637415.7894                   23637414.1954
 -32383482.74247 -25215916.91846  21183137.2664                   21183135.0634
  -7600197.12547  -5899956.41444  22730965.0784                   22730962.6804
 11  9 29  1 21 30.0000000  0  9G29G02G25G21G15G05G30G26G18
 -43974413.12548 -34249066.62447  20208818.6254                   20208816.7734
 -77968471.89547 -60735933.37744  23687777.6884                   23687773.7274
 -41039480.72747 -31959833.74744  23729079.4384                   23729080.7704
 -11583897.31247  -9011948.26444  23228860.4224                   23228856.8014
 -25180591.53948 -19603528.10746  21050973.9304                   21050971.5594
 -56094357.89147 -43691070.10245  22915054.0004                   22915051.6684
 -21621448.36746 -16830323.82243  23630523.1024                   23630521.6684
 -32484114.52048 -25294331.24845  21163987.6414                   21163985.1484
  -7759270.40647  -6023909.51944  22700694.9064                   22700692.0234
 11  9 29  1 22  0.0000000  0  9G29G02G25G21G15G05G30G26G18
 -44085994.81648 -34336013.36847  20187585.7114                   20187583.5434
 -78002633.28947 -60762552.66644  23681276.7114                   23681272.5824
 -41055341.46147 -31972192.81544  23726061.5474                   23726063.7814
 -11743528.57847  -9136336.16044  23198483.6724                   23198479.9884
 -25332240.34448 -19721695.95346  21022115.8984                   21022113.5634
 -56106402.97347 -43700455.87145  22912762.1254                   22912759.3444
 -21657386.70346 -16858327.74143  23623683.8754                   23623682.9184
 -32584021.59447 -25372180.86845  21144976.3674                   21144973.6724
  -7918046.68447  -6147631.19144  22670480.1804                   22670477.7424
 11  9 29  1 22 30.0000000  0  9G29G02G25G21G15G05G30G26G18
 -44197008.75848 -34422517.71247  20166460.5944                   20166458.4694
 -78036607.19947 -60789025.81944  23674811.8054                   23674807.4654
 -41071124.87947 -31984491.62244  23723058.3284                   23723060.2234
 -11903155.89546  -9260721.01645  23168106.9694                   23168103.7234
 -25483357.82448 -19839449.77446  20993359.4384                   20993356.8134
 -56118357.96947 -43709771.41645  22910487.2894                   22910484.7894
 -21693040.34446 -16886109.74143  23616899.6804                   23616898.4574
 -32683201.81647 -25449464.11146  21126102.7504                   21126100.4734
  -8076524.32447  -6271120.16344  22640323.2894                   22640320.6884
 11  9 29  1 23  0.0000000  0  9G29G02G25G21G15G05G30G26G18
 -44307454.64548 -34508579.41447  20145443.1724                   20145440.6174
 -78070394.48447 -60815353.61444  23668382.2734                   23668377.7974
 -41086834.79747 -31996733.13444  23720068.9064                   23720070.0984
 -12062779.66847  -9385103.09144  23137731.5084                   23137728.4344
 -25633942.56248 -19956788.47846  20964704.0314                   20964701.5704
 -56130225.85547 -43719019.12845  22908228.5394                   22908226.0864
 -21728413.10946 -16913672.95443  23610167.8524                   23610166.9024
 -32781655.38747 -25526181.16545  21107367.9534                   21107365.2034
  -8234703.95347  -6394376.93844  22610221.8134                   22610220.1414
 11  9 29  1 23 30.0000000  0  9G29G02G25G21G15G05G30G26G18
 -44417330.98048 -34594197.31847  20124534.8754                   20124532.0904
 -78103994.48446 -60841535.46144  23661988.2504                   23661984.9654
 -41102474.00047 -32008919.57044  23717092.8134                   23717093.8754
 -12222399.34047  -9509481.96944  23107356.8984                   23107353.4574
 -25783992.17248 -20073710.18846  20936150.3134                   20936147.5164
 -56142007.98447 -43728199.98745  22905987.0314                   22905984.0394
 -21763508.02746 -16941019.61143  23603489.7114                   23603488.7974
 -32879381.64147 -25602331.46046  21088770.9304                   21088768.2074
  -8392585.48847  -6517401.37545  22580178.5554                   22580176.0044
 11  9 29  1 24  0.0000000  0  9G29G02G25G21G15G05G30G26G18
 -44526639.52748 -34679372.78147  20103733.8054                   20103731.6454
 -78137409.55146 -60867573.19943  23655629.1804                   23655625.5514
 -41118048.33247 -32021055.46144  23714128.7584                   23714131.1994
 -12382017.20347  -9633859.41044  23076982.7034                   23076979.5124
 -25933507.49648 -20190215.58146  20907698.2114                   20907695.9144
 -56153708.44947 -43737317.22045  22903760.5004                   22903757.4734
 -21798330.99646 -16968154.37844  23596862.7894                   23596862.9104
 -32976382.93747 -25677916.85346  21070312.3054                   21070309.9964
  -8550171.42647  -6640195.52744  22550190.7664                   22550188.7274
 11  9 29  1 24 30.0000000  0  9G29G02G25G21G15G05G30G26G18
 -43059954.72348 -33536501.48447  20382834.4064                   20382832.1644
 -76595217.54346 -59665865.14043  23949099.5234                   23949095.1844
 -39558139.13747 -30805541.82444  24010970.2034                   24010971.6254
 -10966206.78547  -8530630.44244  23346402.4454                   23346398.9614
 -24507060.64848 -19078698.49446  21179142.4694                   21179139.5904
 -54589907.79347 -42518771.23145  23201341.7344                   23201338.8404
 -20257462.85247 -15767477.89144  23890080.4614                   23890080.3284
 -31497234.60247 -24525333.70846  21351784.4844                   21351782.3324
  -7132035.27347  -5535154.25645  22820052.9614                   22820051.0784
 11  9 29  1 25  0.0000000  0  9G29G02G25G21G15G05G30G26G18
 -43168123.02348 -33620788.44847  20362250.9454                   20362248.6804
 -76628260.81646 -59691613.17543  23942811.0314                   23942806.6414
 -39573590.96547 -30817582.25744  24008030.0004                   24008031.4694
 -11125819.00847  -8655003.52544  23316029.1174                   23316025.7304
 -24655499.29748 -19194364.91146  21150895.1414                   21150892.4144
 -54601448.91847 -42527764.30345  23199145.5704                   23199142.6174
 -20291749.57047 -15794194.77744  23883556.2194                   23883555.7934
 -31592783.23448 -24599787.15346  21333602.6334                   21333599.9774
  -7289028.03147  -5657486.11945  22790177.5474                   22790175.5704
 11  9 29  1 25 30.0000000  0  9G29G02G25G21G15G05G30G26G18
 -43275718.10248 -33704628.74447  20341776.1804                   20341773.8364
 -76661116.14146 -59717214.75243  23936559.1804                   23936555.1454
 -39588984.43747 -30829577.26444  24005100.5784                   24005103.0124
 -11285426.16847  -8779372.65945  23285657.0164                   23285653.5944
 -24803394.98448 -19309608.24146  21122751.9144                   21122748.9494
 -54612911.54747 -42536696.22745  23196964.0634                   23196961.2934
 -20325771.28546 -15820705.22144  23877082.2734                   23877081.4964
 -31687603.34848 -24673672.92546  21315558.7664                   21315556.2814
  -7445722.24247  -5779585.36945  22760360.0474                   22760357.2894
 11  9 29  1 26  0.0000000  0  9G29G02G25G21G15G05G30G26G18
 -43382742.79748 -33788024.58647  20321410.0864                   20321407.7584
 -76693787.15646 -59742672.71543  23930341.7894                   23930337.5314
 -39604326.53947 -30841532.15344  24002180.8984                   24002183.0164
 -11445031.76247  -8903740.58744  23255284.7584                   23255281.0904
 -24950749.68748 -19424430.02746  21094710.9844                   21094707.9574
 -54624301.23047 -42545571.27644  23194796.5784                   23194793.9884
 -20359535.12147 -15847014.67944  23870656.9304                   23870657.4654
 -31781698.73447 -24746993.98346  21297652.5784                   21297650.2274
  -7602122.61347  -5901455.67844  22730597.9694                   22730595.4344
 11  9 29  1 26 30.0000000  0  9G29G02G25G21G15G05G30G26G18
 -43489195.64148 -33870974.82347  20301152.8914                   20301150.3324
 -76726273.27346 -59767986.59843  23924159.1644                   23924155.7854
 -39619619.62147 -30853448.88744  23999271.4534                   23999272.9574
 -11604635.22347  -9028106.86544  23224912.8984                   23224909.6484
 -25097560.67648 -19538828.14346  21066773.7344                   21066770.7274
 -54635619.16847 -42554390.43645  23192642.5944                   23192640.4884
 -20393043.55546 -15873125.14344  23864281.1724                   23864280.6054
 -31875068.43048 -24819749.58446  21279885.3284                   21279882.9344
  -7758228.15247  -6023096.20745  22700891.9144                   22700889.2034
 11  9 29  1 27  0.0000000  0  9G29G02G25G21G15G05G30G26G18
 -43595074.73848 -33953478.00047  20281004.8834                   20281002.0164
 -76758572.91846 -59793155.15643  23918012.6254                   23918009.7424
 -39634865.62947 -30865328.95144  23996370.3364                   23996371.5354
 -11764235.03147  -9152470.29444  23194542.2584                   23194538.6334
 -25243824.97748 -19652800.26746  21038940.4304                   21038937.7154
 -54646865.71947 -42563153.97145  23190502.8284                   23190500.1914
 -20426298.75047 -15899038.25244  23857951.9534                   23857952.5314
 -31967711.32448 -24891938.82146  21262255.8594                   21262253.1884
  -7914037.89547  -6144506.26745  22671242.3444                   22671239.3674
 11  9 29  1 27 30.0000000  0  9G29G02G25G21G15G05G30G26G18
 -43700383.28948 -34035536.58447  20260965.0394                   20260962.4574
 -76790690.55546 -59818181.91943  23911901.8984                   23911897.6764
 -39650072.01247 -30877178.12444  23993475.9224                   23993478.1724
 -11923835.17247  -9276833.95944  23164171.1644                   23164167.7894
 -25389544.87948 -19766348.19546  21011210.7344                   21011207.8554
 -54658047.04747 -42571866.71244  23188375.1564                   23188372.0824
 -20459308.25446 -15924759.95544  23851670.8834                   23851670.4304
 -32059631.46948 -24963564.87845  21244764.3914                   21244761.9454
  -8069556.19947  -6265689.25144  22641647.7734                   22641644.9494
 11  9 29  1 28  0.0000000  0  9G29G02G25G21G15G05G30G26G18
 -43805116.21148 -34117146.63347  20241035.1954                   20241032.6954
 -76822621.40646 -59843063.06943  23905826.3444                   23905821.2734
 -39665237.21947 -30888995.24344  23990590.1644                   23990592.6484
 -12083430.88747  -9401194.22044  23133801.2114                   23133798.1484
 -25534714.15648 -19879467.06946  20983585.8364                   20983583.2344
 -54669160.47747 -42580526.48144  23186260.2114                   23186257.2974
 -20492070.84046 -15950289.21644  23845436.3674                   23845436.5904
 -32150824.53548 -25034624.37946  21227410.5864                   21227407.9184
  -8224778.57447  -6386641.62444  22612109.9384                   22612106.7194
 11  9 29  1 28 30.0000000  0  9G29G02G25G21G15G05G30G26G18
 -43909280.93448 -34198313.91947  20221212.7974                   20221210.8714
 -76854373.43446 -59867804.94843  23899783.0634                   23899778.9414
 -39680372.40246 -30900788.92644  23987709.8444                   23987712.3594
 -12243030.02347  -9525557.12744  23103430.3594                   23103427.0394
 -25679339.10948 -19992161.77446  20956064.6644                   20956061.8954
 -54680215.82447 -42589141.03344  23184156.1804                   23184153.6094
 -20524597.72346 -15975634.83644  23839246.1644                   23839246.3794
 -32241298.30148 -25105123.36546  21210193.9694                   21210191.2464
  -8379713.13747  -6507369.73644  22582626.8984                   22582623.9734
 11  9 29  1 29  0.0000000  0  9G29G02G25G21G15G05G30G26G18
 -44012873.30948 -34279035.22847  20201500.3524                   20201497.4184
 -76885943.09046 -59892404.73843  23893775.9144                   23893771.7424
 -39695477.35246 -30912559.11344  23984835.5004                   23984837.9414
 -12402628.91047  -9649919.83744  23073059.4614                   23073056.2544
 -25823414.50448 -20104428.27846  20928647.5234                   20928645.4454
 -54691211.63747 -42597709.18744  23182064.0554                   23182061.3054
 -20556889.00846 -16000796.87244  23833101.4304                   23833101.5084
 -32331049.67648 -25175059.48246  21193114.4454                   21193112.2234
  -8534357.06247  -6627871.38544  22553198.7424                   22553196.0594
 11  9 29  1 29 30.0000000  0  9G29G02G25G21G15G05G30G26G18
 -44115889.13348 -34359307.27147  20181897.1484                   20181894.3094
 -76917327.22346 -59916859.95543  23887804.0004                   23887800.0274
 -39710552.09446 -30924305.72444  23981966.7034                   23981969.5204
 -12562224.09447  -9774279.64745  23042689.5234                   23042686.6684
 -25966935.56248 -20216262.83146  20901336.7894                   20901333.6994
 -54702146.43047 -42606229.79145  23179983.1334                   23179980.5664
 -20588944.93046 -16025775.51344  23827001.3594                   23827001.5084
 -32420075.70748 -25244430.37746  21176173.6334                   21176171.3244
  -8688707.12947  -6748144.07244  22523827.2114                   22523824.0274
 11  9 29  1 30  0.0000000  0  9G29G02G25G21G15G05G30G26G18
 -44218330.12948 -34439131.40647  20162402.9614                   20162400.6804
 -76948527.94146 -59941172.12343  23881866.1804                   23881861.0474
 -39725601.61347 -30936032.63644  23979102.9614                   23979105.6954
 -12721817.38347  -9898638.00345  23012320.0234                   23012316.9614
 -26109902.49648 -20327665.59946  20874131.2114                   20874128.3954
 -54713024.03547 -42614705.82945  23177913.2664                   23177910.9144
 -20620770.60946 -16050574.72443  23820945.3204                   23820944.8794
 -32508378.35948 -25313237.63445  21159370.1644                   21159367.7034
  -8842765.55947  -6868189.48444  22494510.6644                   22494508.0514
 11  9 29  1 30 30.0000000  0  9G29G02G25G21G15G05G30G26G18
 -44320197.41448 -34518508.48347  20143018.6334                   20143015.7384
 -76979547.08246 -59965342.86743  23875963.9064                   23875959.9104
 -39740630.89147 -30947743.84544  23976244.1254                   23976245.4804
 -12881410.45347 -10022996.16444  22981950.5864                   22981947.3834
 -26252315.56248 -20438636.79346  20847030.2894                   20847028.0234
 -54723848.14546 -42623140.18745  23175853.3364                   23175851.1724
 -20652371.40646 -16075198.73443  23814931.6334                   23814931.2304
 -32595959.54748 -25381482.67346  21142703.8364                   21142701.3554
  -8996534.54347  -6988009.37845  22465249.2034                   22465245.9534
 11  9 29  1 31  0.0000000  0  9G29G02G25G21G15G05G30G26G18
 -44421489.92248 -34597437.68347  20123742.7274                   20123740.3404
 -77010383.87146 -59989371.58943  23870095.1724                   23870091.4264
 -39755642.37147 -30959441.16944  23973387.9224                   23973390.1844
 -13041002.44947 -10147353.50245  22951581.4454                   22951577.8834
 -26394172.55948 -20549174.67246  20820036.1724                   20820033.1804
 -54734619.82046 -42631533.68545  23173803.6094                   23173800.8714
 -20683749.80146 -16099649.46343  23808960.0704                   23808960.6644
 -32682818.91848 -25449165.27446  21126175.2814                   21126172.6454
  -9150013.68047  -7107603.43745  22436043.3444                   22436040.1684
 11  9 29  1 31 30.0000000  0  9G29G02G25G21G15G05G30G26G18
 -44522207.58248 -34675918.94047  20104576.7734                   20104574.3834
 -77041039.48046 -60013259.04143  23864262.5234                   23864258.0514
 -39770640.12547 -30971127.78044  23970533.1724                   23970535.5944
 -13200594.29747 -10271710.73244  22921211.8914                   22921208.2584
 -26535472.68748 -20659278.63946  20793147.6954                   20793144.7774
 -54745341.70347 -42639888.40245  23171763.3674                   23171760.6604
 -20714910.21946 -16123930.26143  23803030.5944                   23803030.7074
 -32768958.00448 -25516286.59446  21109783.3364                   21109781.1024
  -9303203.99247  -7226972.39145  22406891.7504                   22406889.3404
 11  9 29  1 32  0.0000000  0  9G29G02G25G21G15G05G30G26G18
 -44622349.49648 -34753951.57847  20085520.6484                   20085518.0234
 -77071513.04346 -60037004.74943  23858463.3524                   23858459.2974
 -39785626.63347 -30982805.64844  23967681.1804                   23967683.3674
 -13360184.29747 -10396066.50844  22890842.7734                   22890839.5594
 -26676213.47748 -20768946.75646  20766365.6484                   20766362.6724
 -54756015.03946 -42648205.26245  23169732.0084                   23169729.3554
 -20745855.25046 -16148043.29543  23797143.0554                   23797141.6564
 -32854376.07048 -25582846.10245  21093528.9924                   21093526.5044
  -9456104.93447  -7346115.90845  22377795.5004                   22377792.3524
 11  9 29  1 32 30.0000000  0  9G29G02G25G21G15G05G30G26G18
 -43146493.35948 -33603933.78547  20366366.7114                   20366364.2464
 -75526384.78146 -58833008.63743  24152491.1724                   24152486.8284
 -38225186.13347 -29766878.04844  24264623.3834                   24264625.5594
 -11944349.11747  -9292818.26145  23160267.4924                   23160263.6174
 -25240970.41848 -19650575.51046  21039483.1884                   21039479.9574
 -53191222.99247 -41428886.77945  23467502.2274                   23467499.8094
 -19201169.08646 -14944391.78043  24091086.6174                   24091085.1804
 -31363652.51648 -24421243.30245  21377204.3754                   21377201.8054
  -8033293.72347  -6237431.74444  22648547.8284                   22648544.6094
 11  9 29  1 33  0.0000000  0  9G29G02G25G21G15G05G30G26G18
 -43245485.38348 -33681070.39047  20347528.9304                   20347526.4654
 -75556497.30946 -58856472.98943  24146760.8364                   24146756.8674
 -38240162.85547 -29778548.31444  24261773.0314                   24261775.4104
 -12103939.24247  -9417174.15045  23129898.5554                   23129895.3204
 -25380591.60548 -19759371.19746  21012913.6724                   21012911.3284
 -53201808.12947 -41437134.92445  23465488.3444                   23465485.2664
 -19231697.16446 -14968179.90843  24085276.6804                   24085276.3914
 -31447633.81648 -24486683.26446  21361223.3134                   21361220.6294
  -8185620.79747  -6356128.09045  22619560.6024                   22619557.9804
 11  9 29  1 33 30.0000000  0  9G29G02G25G21G15G05G30G26G18
 -43343902.60948 -33757759.11747  20328800.8444                   20328798.2934
 -75586430.22746 -58879797.40743  24141065.5394                   24141061.3524
 -38255139.89547 -29790218.78444  24258923.3134                   24258925.8714
 -12263529.59447  -9541530.20745  23099528.9614                   23099525.6994
 -25519651.30948 -19867729.37546  20986451.7424                   20986449.1454
 -53212352.05947 -41445350.98745  23463481.3444                   23463479.2194
 -19262022.35946 -14991809.96443  24079506.9844                   24079506.2114
 -31530897.64148 -24551564.14245  21345378.5944                   21345375.6054
  -8337662.08647  -6474601.74745  22590628.6414                   22590625.1804
 11  9 29  1 34  0.0000000  0  9G29G02G25G21G15G05G30G26G18
 -43441744.84848 -33833999.79447  20310182.0864                   20310179.4264
 -75616183.81646 -58902982.03943  24135403.2814                   24135399.1644
 -38270120.58647 -29801892.05344  24256072.3444                   24256075.0124
 -12423120.11747  -9665886.40545  23069159.9844                   23069157.0164
 -25658148.65248 -19975649.34146  20960096.7034                   20960094.0594
 -53222857.03147 -41453536.65445  23461482.4304                   23461480.2734
 -19292148.15246 -15015284.53643  24073774.0944                   24073773.0744
 -31613444.67248 -24615886.48245  21329670.2504                   21329667.5864
  -8489417.93747  -6592852.95945  22561749.6644                   22561746.8954
 11  9 29  1 34 30.0000000  0  9G29G02G25G21G15G05G30G26G18
 -43539009.64148 -33909790.52047  20291673.2114                   20291670.7194
 -75645756.35947 -58926025.59843  24129776.1804                   24129771.1644
 -38285106.37947 -29813569.34343  24253221.1954                   24253222.7584
 -12582708.84447  -9790241.18245  23038791.2734                   23038787.7814
 -25796079.99648 -20083128.26346  20933849.2664                   20933846.4184
 -53233323.04347 -41461692.01145  23459490.8524                   23459488.0314
 -19322076.38346 -15038605.29943  24068078.4844                   24068078.0664
 -31695273.94548 -24679649.53145  21314098.7504                   21314095.9494
  -8640887.10247  -6710880.80445  22532926.1954                   22532923.1174
 11  9 29  1 35  0.0000000  0  9G29G02G25G21G15G05G30G26G18
 -43635698.15648 -33985132.19847  20273273.8134                   20273271.4654
 -75675149.64146 -58948929.42444  24124182.5704                   24124178.5664
 -38300101.91847 -29825254.20343  24250367.7584                   24250368.5704
 -12742296.89147  -9914595.45845  23008422.7584                   23008418.8134
 -25933445.47348 -20190166.26246  20907709.3754                   20907706.4884
 -53243753.46946 -41469819.61044  23457505.5554                   23457503.7384
 -19351811.93746 -15061775.87443  24062421.0394                   24062420.1604
 -31776387.52048 -24742854.88346  21298663.1174                   21298660.4574
  -8792071.31647  -6828686.58745  22504157.1024                   22504153.7584
 11  9 29  1 35 30.0000000  0  9G29G02G25G21G15G05G30G26G18
 -43731813.02748 -34060026.87747  20254983.6884                   20254981.5354
 -75704366.44546 -58971695.79843  24118622.4534                   24118618.7544
 -38315113.05147 -29836951.22543  24247511.0634                   24247513.2074
 -12901886.72747 -10038951.10945  22978053.4614                   22978050.1994
 -26070246.63748 -20296764.53346  20881676.9614                   20881674.0164
 -53254152.57846 -41477922.82344  23455526.8204                   23455524.6214
 -19381360.95746 -15084801.12843  24056797.5784                   24056796.6024
 -31856788.65648 -24805505.10446  21283363.2034                   21283360.4574
  -8942974.28147  -6946273.23445  22475440.7584                   22475438.1524
 11  9 29  1 36  0.0000000  0  9G29G02G25G21G15G05G30G26G18
 -43827350.82848 -34134471.90447  20236803.6254                   20236801.1564
 -75733403.31646 -58994321.92143  24113097.8444                   24113092.5784
 -38330139.52347 -29848660.24843  24244652.1954                   24244653.9024
 -13061474.94147 -10163305.50145  22947685.1884                   22947681.4024
 -26206478.79748 -20402919.41646  20855752.6174                   20855750.2234
 -53264519.29747 -41486000.78344  23453554.1954                   23453551.7344
 -19410723.59446 -15107681.07743  24051210.1564                   24051209.4574
 -31936474.72748 -24867598.13046  21268199.7424                   21268197.2974
  -9093592.69147  -7063638.15145  22446778.8984                   22446776.2274
 11  9 29  1 36 30.0000000  0  9G29G02G25G21G15G05G30G26G18
 -43922311.19948 -34208466.98447  20218733.4224                   20218730.7894
 -75762260.71146 -59016808.20543  24107605.9844                   24107601.7934
 -38345184.75847 -29860383.80744  24241788.8364                   24241790.8164
 -13221061.53147 -10287658.65845  22917316.5784                   22917313.1414
 -26342140.84448 -20508630.06246  20829937.1254                   20829933.9924
 -53274855.25446 -41494054.78244  23451586.8364                   23451584.9614
 -19439903.44946 -15130418.69943  24045657.3984                   24045656.5744
 -32015446.80948 -24929134.80445  21253171.5554                   21253169.0474
  -9243927.23847  -7180781.85445  22418171.3364                   22418168.4654
 11  9 29  1 37  0.0000000  0  9G29G02G25G21G15G05G30G26G18
 -44016694.03148 -34282012.03947  20200772.6024                   20200770.2544
 -75790939.07046 -59039155.09543  24102148.4224                   24102144.5704
 -38360252.00447 -29872124.60444  24238920.7424                   24238923.8954
 -13380646.34047 -10412010.39845  22886948.4774                   22886944.7894
 -26477231.66448 -20613895.59446  20804230.0004                   20804227.0744
 -53285162.40647 -41502086.31344  23449626.1334                   23449623.5984
 -19468904.22346 -15153016.68143  24040138.4304                   24040138.0554
 -32093705.79348 -24990115.80545  21238279.5004                   21238276.8984
  -9393978.73047  -7297705.00945  22389617.4614                   22389614.0554
 11  9 29  1 37 30.0000000  0  9G29G02G25G21G15G05G30G26G18
 -44110501.35548 -34355108.63847  20182921.7344                   20182919.1954
 -75819440.59446 -59061364.12043  24096725.4304                   24096721.2974
 -38375346.33246 -29883886.45843  24236048.9454                   24236051.5084
 -13540231.21547 -10536362.18645  22856580.9384                   22856577.1604
 -26611752.03548 -20718716.62346  20778631.7894                   20778628.5084
 -53295444.63347 -41510098.43844  23447669.3674                   23447666.8984
 -19497731.25447 -15175479.31844  24034653.0944                   24034652.7774
 -32171254.45348 -25050543.30845  21223522.4454                   21223519.7074
  -9543749.30147  -7414409.26145  22361117.4064                   22361113.7384
 11  9 29  1 38  0.0000000  0  9G29G02G25G21G15G05G30G26G18
 -44203735.33248 -34427758.47447  20165179.9144                   20165177.3284
 -75847767.70746 -59083437.14443  24091333.5234                   24091330.5824
 -38390473.22746 -29895673.76144  24233170.3284                   24233173.6884
 -13699818.08247 -10660715.56045  22826212.2734                   22826209.3484
 -26745702.95748 -20823093.93846  20753141.7114                   20753138.7704
 -53305705.96147 -41518094.26144  23445716.7814                   23445714.3984
 -19526390.32046 -15197811.09744  24029198.8444                   24029199.2384
 -32248095.65248 -25110419.54345  21208900.2974                   21208897.4384
  -9693241.99647  -7530896.97245  22332669.3834                   22332666.5354
 11  9 29  1 38 30.0000000  0  9G29G02G25G21G15G05G30G26G18
 -44296392.88348 -34499959.14747  20147547.7344                   20147545.2704
 -75875917.71555 -59105372.33953  24085977.5234                   24085973.4454
 -38405632.93046 -29907486.60344  24230284.6484                   24230288.8674
 -13859403.70747 -10785067.92845  22795844.0234                   22795840.4694
 -26879080.51648 -20927024.46346  20727760.8444                   20727757.5474
 -53315944.95347 -41526072.71444  23443768.2344                   23443765.4924
 -19554882.13346 -15220012.51743  24023777.8914                   24023777.3794
 -32324227.90648 -25169743.36545  21194412.3284                   21194410.0434
  -9842454.19147  -7647166.15145  22304275.3674                   22304272.0434
 11  9 29  1 39  0.0000000  0  9G29G02G25G21G15G05G30G26G18
 -44388473.53148 -34571710.29547  20130025.5164                   20130022.9064
 -75903890.27046 -59127169.11543  24080654.7114                   24080651.2034
 -38420827.94946 -29919326.98843  24227393.6334                   24227397.4414
 -14018987.44147 -10909418.82945  22765476.3594                   22765472.6484
 -27011882.90248 -21030506.79946  20702489.1724                   20702486.2034
 -53326163.08647 -41534034.86044  23441823.7814                   23441821.1254
 -19583209.50446 -15242085.80044  24018387.6804                   24018386.7664
 -32399651.19548 -25228514.74245  21180060.0004                   21180057.5274
  -9991385.94947  -7763216.77645  22275934.2344                   22275930.9184
 11  9 29  1 39 30.0000000  0  9G29G02G25G21G15G05G30G26G18
 -44479977.71948 -34643012.24947  20112612.7664                   20112610.1684
 -75931686.10546 -59148828.29843  24075364.9924                   24075361.4574
 -38436062.09446 -29931197.80543  24224495.1254                   24224498.2464
 -14178569.35547 -11033768.33345  22735108.6954                   22735105.3244
 -27144109.48848 -21133540.47646  20677327.5164                   20677324.4734
 -53336362.53147 -41541982.49344  23439883.2114                   23439880.3674
 -19611376.52046 -15264034.17043  24013027.0314                   24013026.2074
 -32474366.99248 -25286734.81745  21165842.0704                   21165839.1994
 -10140038.67247  -7879049.98445  22247646.5864                   22247643.2974
 11  9 29  1 40  0.0000000  0  9G29G02G25G21G15G05G30G26G18
 -44570904.59048 -34713864.33947  20095309.9304                   20095307.3794
 -75959304.64146 -59170349.27143  24070110.6334                   24070105.4734
 -38451337.83646 -29943101.14144  24221589.1174                   24221591.8914
 -14338148.71547 -11158115.83645  22704741.3834                   22704738.0944
 -27275758.89547 -21236124.39846  20652275.5634                   20652272.1764
 -53346544.77747 -41549916.70144  23437945.6804                   23437943.0084
 -19639386.10546 -15285859.81844  24007696.5084                   24007696.7504
 -32548376.12148 -25344404.25846  21151758.6174                   21151755.8834
 -10288412.10247  -7994665.58345  22219411.8524                   22219409.0634
 11  9 29  1 40 30.0000000  0  9G29G02G25G21G15G05G30G26G18
 -43085830.62148 -33556663.83547  20377909.8674                   20377907.3754
 -74411325.18046 -57964131.48543  24364681.5944                   24364676.1604
 -36891237.43047 -28727438.53344  24518465.8054                   24518469.3204
 -12922299.52747 -10054856.65845  22974168.6954                   22974165.2624
 -25831405.09448 -20110653.86746  20927127.2194                   20927123.7584
 -51781290.54747 -40330238.11944  23735803.5864                   23735800.5474
 -18091820.33246 -14079964.42543  24302188.9774                   24302188.3484
 -31046256.39848 -24173921.33845  21437602.4304                   21437599.7274
  -8861081.45347  -6882459.79445  22491023.8054                   22491020.9964
 11  9 29  1 41  0.0000000  0  9G29G02G25G21G15G05G30G26G18
 -43175602.03148 -33626615.56347  20360826.9614                   20360824.3244
 -74438589.50846 -57985376.44543  24359492.1884                   24359489.1884
 -36906604.77747 -28739413.16344  24515541.9064                   24515544.2464
 -13081872.25447 -10179198.98845  22943802.9774                   22943799.1764
 -25961895.76648 -20212334.88546  20902295.1484                   20902292.2894
 -51791442.24246 -40338148.49844  23733871.8834                   23733868.8094
 -18119524.43046 -14101552.04543  24296917.0634                   24296916.5824
 -31118853.66448 -24230490.60946  21423787.9614                   21423784.7814
  -9008897.09047  -6997640.74845  22462895.0164                   22462892.0824
 11  9 29  1 41 30.0000000  0  9G29G02G25G21G15G05G30G26G18
 -43264797.72348 -33696118.68647  20343853.8284                   20343851.2074
 -74465679.07446 -58006485.25043  24354337.6094                   24354332.4224
 -36922024.61747 -28751428.66744  24512607.5704                   24512609.4064
 -13241443.34847 -10303540.03445  22913437.9924                   22913434.0744
 -26091807.54347 -20313564.80646  20877574.3914                   20877570.9804
 -51801583.15646 -40346050.52144  23731941.7664                   23731938.8874
 -18147083.03946 -14123026.28744  24291673.4694                   24291672.5784
 -31190748.84047 -24286512.80346  21410106.7814                   21410104.0044
  -9156436.87147  -7112606.75145  22434819.4924                   22434816.8794
 11  9 29  1 42  0.0000000  0  9G29G02G25G21G15G05G30G26G18
 -43353415.91448 -33765171.81147  20326990.0784                   20326987.6884
 -74492592.25846 -58027456.60542  24349215.5864                   24349210.9774
 -36937498.04747 -28763485.95944  24509663.4924                   24509665.7854
 -13401010.44547 -10427877.98245  22883073.0394                   22883069.5474
 -26221137.34448 -20414341.24046  20852963.1174                   20852959.8484
 -51811713.21546 -40353944.06944  23730014.1484                   23730011.6024
 -18174497.66846 -14144388.34143  24286455.2814                   24286454.9264
 -31261940.75847 -24341987.00845  21396558.9224                   21396556.4654
  -9303699.00847  -7227356.38845  22406796.4844                   22406793.2704
 11  9 29  1 42 30.0000000  0  9G29G02G25G21G15G05G30G26G18
 -43441458.79348 -33833776.63347  20310236.1484                   20310233.4454
 -74519331.31645 -58048292.17643  24344127.1094                   24344123.1174
 -36953030.23447 -28775589.00544  24506707.7894                   24506709.7734
 -13560574.75047 -10552213.73945  22852708.7734                   22852705.0514
 -26349886.39847 -20514665.14246  20828463.0004                   20828459.8714
 -51821836.10246 -40361832.06944  23728087.7664                   23728084.6564
 -18201773.85546 -14165642.55143  24281265.4144                   24281265.1454
 -31332433.10547 -24396916.10345  21383144.9924                   21383142.1644
  -9450686.07047  -7341891.68945  22378825.6484                   22378822.1994
 11  9 29  1 43  0.0000000  0  9G29G02G25G21G15G05G30G26G18
 -43528925.19548 -33901932.26947  20293592.1094                   20293589.6414
 -74545894.99245 -58068991.24743  24339074.1334                   24339068.6174
 -36968623.21147 -28787739.40344  24503740.8834                   24503742.2424
 -13720135.45347 -10676546.69245  22822345.4844                   22822341.8484
 -26478052.52347 -20614534.83346  20804073.9774                   20804070.5354
 -51831952.35246 -40369714.88144  23726162.2734                   23726160.1294
 -18228914.10946 -14186790.85143  24276100.5164                   24276100.6844
 -31402225.84847 -24451300.03745  21369863.8134                   21369861.3244
  -9597398.49647  -7456213.03845  22350907.2424                   22350903.6844
 11  9 29  1 43 30.0000000  0  9G29G02G25G21G15G05G30G26G18
 -43615815.11748 -33969638.67847  20277057.2974                   20277054.5944
 -74572283.68046 -58089553.90243  24334051.3054                   24334046.6994
 -36984279.67647 -28799939.29643  24500760.7274                   24500762.7934
 -13879691.97747 -10800876.40045  22791982.9384                   22791978.7424
 -26605634.56247 -20713949.37246  20779795.9144                   20779792.7384
 -51842063.42246 -40377593.62344  23724238.7734                   23724236.4064
 -18255921.45346 -14207835.54743  24270961.4384                   24270961.4184
 -31471319.91047 -24505139.57045  21356715.4924                   21356713.1844
  -9743836.31247  -7570320.35945  22323041.0474                   22323037.8794
 11  9 29  1 44  0.0000000  0  9G29G02G25G21G15G05G30G26G18
 -43702128.48848 -34036895.83947  20260632.2734                   20260630.0634
 -74598497.56646 -58109980.28943  24329062.4384                   24329058.2734
 -37000002.50447 -28812190.86343  24497768.8444                   24497771.4924
 -14039243.84447 -10925202.45445  22761621.2034                   22761617.6684
 -26732631.84447 -20812908.27346  20755628.7344                   20755625.5434
 -51852170.72346 -40385469.48444  23722315.5004                   23722312.7234
 -18282799.20746 -14228779.29243  24265847.0944                   24265846.8874
 -31539716.23447 -24558435.37945  21343699.7114                   21343697.1134
  -9889999.47747  -7684213.67845  22295227.0864                   22295223.6334
 11  9 29  1 44 30.0000000  0  8G29G25G21G15G05G30G26G18
 -43787866.61348 -34103704.76447  20244316.9694                   20244314.4654
 -37015795.76647 -28824497.31743  24494764.0164                   24494766.3914
 -14198791.09447 -11049524.92445  22731260.4844                   22731256.1094
 -26859044.06248 -20911411.27346  20731573.7114                   20731570.5044
 -51862277.04747 -40393344.55044  23720392.2664                   23720389.4884
 -18309551.87145 -14249625.50443  24260755.7664                   24260755.5704
 -31607417.28547 -24611189.42245  21330816.3524                   21330814.2934
 -10035889.99647  -7797894.58245  22267465.1094                   22267461.7814
 11  9 29  1 45  0.0000000  0  8G29G25G21G15G05G30G26G18
 -43873024.75448 -34170061.75347  20228111.6954                   20228109.2854
 -37031657.89146 -28836857.55743  24491745.0004                   24491746.5904
 -14358329.07047 -11173840.19045  22700901.0944                   22700897.2734
 -26984865.97747 -21009454.28146  20707630.0474                   20707627.2384
 -51872379.24247 -40401216.36644  23718470.1564                   23718467.3324
 -18336178.27346 -14270373.42743  24255689.7814                   24255689.2624
 -31674419.59447 -24663399.00345  21318066.9224                   21318064.1374
 -10181503.61347  -7911359.69245  22239755.6254                   22239752.2774
 11  9 29  1 45 30.0000000  0  8G29G25G21G15G05G30G26G18
 -43957600.30548 -34235964.75747  20212017.6644                   20212015.3404
 -37047588.80146 -28849271.37743  24488713.7424                   24488716.7814
 -14517854.79747 -11298145.87945  22670544.1954                   22670540.7274
 -27110093.49248 -21107034.13746  20683799.9224                   20683796.6414
 -51882475.94547 -40409083.94044  23716548.6254                   23716546.1524
 -18362678.86746 -14291023.28243  24250647.0864                   24250646.3754
 -31740721.66047 -24715062.93945  21305449.9384                   21305447.3134
 -10326838.05547  -8024607.27445  22212100.0164                   22212095.9184
 11  9 29  1 46  0.0000000  0  8G29G25G21G15G05G30G26G18
 -44041588.07048 -34301409.76247  20196035.3054                   20196032.4804
 -37063586.08246 -28861736.85143  24485669.8054                   24485673.0704
 -14677361.04347 -11422436.43145  22640190.9844                   22640187.0554
 -27234720.33648 -21204145.94546  20660084.4384                   20660081.4694
 -51892563.22747 -40416944.18944  23714629.0394                   23714626.2034
 -18389051.57046 -14311573.43643  24245628.1024                   24245627.4964
 -31806319.23847 -24766177.92345  21292967.2114                   21292964.8244
 -10471888.51247  -8137633.56745  22184496.9534                   22184493.8874
 11  9 29  1 46 30.0000000  0  8G29G25G21G15G05G30G26G18
 -44124991.93448 -34366399.76747  20180164.1954                   20180161.7344
 -37079656.58646 -28874259.48443  24482611.4844                   24482614.5704
 -14836852.93047 -11546715.74245  22609840.8524                   22609837.1294
 -27358749.55548 -21300792.05146  20636482.6334                   20636479.4804
 -51902646.77347 -40424801.49344  23712710.1954                   23712707.5554
 -18415303.61746 -14332029.62243  24240631.5634                   24240632.2074
 -31871217.62147 -24816748.09945  21280617.3134                   21280615.3014
 -10616659.51647  -8250442.11645  22156948.5084                   22156945.4494
 11  9 29  1 47  0.0000000  0  8G29G25G21G15G05G30G26G18
 -44207814.63348 -34430936.93047  20164403.4774                   20164401.0274
 -37095805.60247 -28886843.18844  24479539.0004                   24479541.7624
 -14996331.53147 -11670984.75345  22579492.9384                   22579489.1684
 -27482182.93448 -21396973.88146  20612994.1644                   20612991.1414
 -51912730.07447 -40432658.59244  23710791.2424                   23710788.6254
 -18441440.68447 -14352396.10744  24235658.2194                   24235658.6024
 -31935420.53947 -24866776.32645  21268399.9774                   21268397.2704
 -10761154.04347  -8363035.20545  22129451.8754                   22129448.5164
 11  9 29  1 47 30.0000000  0  8G29G25G21G15G05G30G26G18
 -44290056.97748 -34495021.86647  20148753.2114                   20148750.4384
 -37112036.55147 -28899490.80743  24476450.6484                   24476453.1994
 -15155796.71547 -11795243.30845  22549147.7814                   22549143.9654
 -27605020.04748 -21492691.09546  20589618.8524                   20589615.7664
 -51922815.66447 -40440517.48644  23708872.3834                   23708869.0124
 -18467466.91846 -14372676.34143  24230706.1884                   24230704.8054
 -31998929.93047 -24916264.16845  21256314.7034                   21256311.9104
 -10905373.09847  -8475413.65845  22102007.8054                   22102004.3834
 11  9 29  1 48  0.0000000  0  8G29G25G21G15G05G30G26G18
 -44371718.13348 -34558653.92847  20133213.6254                   20133210.7664
 -37128351.41047 -28912203.76643  24473345.7814                   24473347.8754
 -15315247.43747 -11919490.57945  22518805.4534                   22518801.1564
 -27727259.12548 -21587942.29446  20566357.5634                   20566354.4414
 -51932903.72347 -40448378.33044  23706952.1954                   23706949.8444
 -18493384.53546 -14392871.86843  24225774.2274                   24225773.5634
 -32061746.28947 -24965211.97145  21244360.7274                   21244358.4694
 -11049316.55547  -8587577.36245  22074616.3674                   22074612.2704
 11  9 29  1 48 30.0000000  0  8G29G25G21G15G05G30G26G18
 -44452800.55548 -34621835.03147  20117784.1884                   20117781.3874
 -37144755.18747 -28924986.00843  24470223.5944                   24470227.0084
 -15474684.73847 -12043727.40545  22488465.6724                   22488461.4104
 -27848901.59048 -21682728.61146  20543209.7274                   20543206.2034
 -51942997.64546 -40456243.71044  23705031.5634                   23705028.9414
 -18519199.02346 -14412987.09243  24220862.4454                   24220861.8754
 -32123873.12947 -25013622.47645  21232538.2424                   21232535.6374
 -11192986.92247  -8699528.26845  22047276.5554                   22047273.1134
 11  9 29  1 49  0.0000000  0  8G29G25G21G15G05G30G26G18
 -42957883.34048 -33456964.46047  20402257.4614                   20402254.9344
 -35585831.67247 -27710240.48243  24766877.9454                   24766880.0864
 -14058684.67647 -10940350.69345  22757921.0234                   22757917.5904
 -26394524.27748 -20549447.56346  20819968.2504                   20819965.3364
 -50377680.37547 -39236515.92844  24002901.7504                   24002898.8014
 -16969494.41446 -13205425.04044  24515760.3834                   24515760.3324
 -30609891.58647 -23833896.59745  21520639.9924                   21520636.8834
  -9760961.72347  -7583664.44645  22319781.6884                   22319778.2344
 11  9 29  1 49 30.0000000  0  8G29G25G21G15G05G30G26G18
 -43037810.90248 -33519245.67347  20387047.7114                   20387044.9734
 -35602423.40246 -27723169.16743  24763720.3754                   24763722.6334
 -14218095.90647 -11064567.21645  22727586.0004                   22727582.6024
 -26514973.02048 -20643303.70146  20797047.5164                   20797044.4024
 -50387792.66446 -39244395.67244  24000977.3364                   24000974.8984
 -16995114.37146 -13225388.61243  24510885.7274                   24510884.7624
 -30670645.75047 -23881237.48745  21509078.6334                   21509076.1414
  -9904089.69147  -7695192.69745  22292545.3524                   22292541.7704
 11  9 29  1 50  0.0000000  0  8G29G25G21G15G05G30G26G18
 -43117162.09448 -33581077.75047  20371947.6094                   20371944.9454
 -35619114.13346 -27736175.00043  24760543.9454                   24760546.5354
 -14377494.05947 -11188773.55145  22697253.5944                   22697250.4804
 -26634824.65248 -20736694.55746  20774240.3984                   20774237.8284
 -50397916.82446 -39252284.65444  23999050.9064                   23999048.3364
 -17020642.69947 -13245280.86743  24506027.7194                   24506026.9344
 -30730716.59048 -23928045.94145  21497647.3594                   21497645.0514
 -10046947.81647  -7806510.69945  22265360.6094                   22265357.0704
 11  9 29  1 50 30.0000000  0  8G29G25G21G15G05G30G26G18
 -43195936.36348 -33642460.30347  20356957.5164                   20356954.4614
 -35635905.62946 -27749259.36243  24757349.6094                   24757352.2424
 -14536877.11348 -11312968.09645  22666923.9774                   22666920.6884
 -26754077.39548 -20829618.75146  20751547.4774                   20751544.9024
 -50408053.79346 -39260183.62544  23997121.8754                   23997119.2304
 -17046081.74647 -13265103.47843  24501186.5554                   24501186.6484
 -30790104.47747 -23974322.21445  21486346.3594                   21486343.8244
 -10189535.80147  -7917618.18945  22238226.7194                   22238222.9774
 11  9 29  1 51  0.0000000  0  8G29G25G21G15G05G30G26G18
 -43274136.16048 -33703395.21447  20342076.3674                   20342073.9104
 -35652802.69146 -27762426.05443  24754133.6174                   24754136.3164
 -14696247.11347 -11437152.47345  22636596.9774                   22636593.4024
 -26872732.42648 -20922077.19346  20728968.3984                   20728965.1994
 -50418206.21546 -39268094.62744  23995189.6024                   23995187.6684
 -17071436.80146 -13284860.71143  24496361.9694                   24496361.5164
 -30848813.20748 -24020069.26645  21475174.5864                   21475172.2194
 -10331856.50047  -8028517.39845  22211144.0314                   22211140.6604
 11  9 29  1 51 30.0000000  0  8G29G25G21G15G05G30G26G18
 -43351765.54348 -33763885.63147  20327304.1724                   20327301.5084
 -35669811.86746 -27775680.07743  24750897.5864                   24750899.5904
 -14855606.93748 -11561328.93345  22606271.9614                   22606268.2704
 -26990792.85248 -21014072.30946  20706502.0474                   20706498.8754
 -50428379.77346 -39276022.09744  23993253.9064                   23993251.4104
 -17096714.78146 -13304557.81643  24491550.7734                   24491551.0904
 -30906848.12548 -24065291.27245  21464130.7194                   21464127.9264
 -10473914.10948  -8139211.60445  22184111.2034                   22184108.0004
 11  9 29  1 52  0.0000000  0  7G29G21G15G05G30G26G18
 -43428819.92648 -33823927.99647  20312641.3914                   20312638.4964
 -15014950.80547 -11685492.94445  22575950.0704                   22575945.8014
 -27108253.34448 -21105599.93746  20684150.0634                   20684146.9804
 -50438570.43046 -39283962.87044  23991314.5554                   23991312.2274
 -17121914.17646 -13324193.76543  24486755.4304                   24486755.6764
 -30964205.65247 -24109985.45745  21453216.1094                   21453213.6334
 -10615704.35948  -8249697.47345  22157129.5634                   22157126.4184
 11  9 29  1 52 30.0000000  0  7G29G21G15G05G30G26G18
 -43505299.70348 -33883522.62547  20298087.5864                   20298084.8914
 -15174278.25047 -11809644.15245  22545630.7894                   22545626.6214
 -27225113.25848 -21196659.58946  20661912.3054                   20661909.0944
 -50448779.70346 -39291918.19344  23989372.3284                   23989369.4064
 -17147038.19146 -13343770.96543  24481975.0164                   24481974.3444
 -31020887.79747 -24154153.35045  21442429.6094                   21442427.1294
 -10757227.76648  -8359975.41945  22130198.9384                   22130195.2384
 11  9 29  1 53  0.0000000  0  7G29G21G15G05G30G26G18
 -43581199.33248 -33942665.19247  20283644.3054                   20283641.6724
 -15333582.09447 -11933776.95745  22515316.4064                   22515312.6024
 -27341365.96948 -21287246.09346  20639790.0704                   20639786.9184
 -50459003.03147 -39299884.42644  23987426.9384                   23987424.0044
 -17172083.96545 -13363287.18943  24477208.8284                   24477208.7194
 -31076889.85548 -24197791.31745  21431772.6884                   21431770.3634
 -10898478.96148  -8470041.25145  22103319.5864                   22103316.2384
 11  9 29  1 53 30.0000000  0  7G29G21G15G05G30G26G18
 -43656515.10248 -34001352.78547  20269312.0784                   20269309.1644
 -15492857.85947 -12057887.88245  22485007.0004                   22485003.1254
 -27457006.61348 -21377355.66446  20617784.1884                   20617781.6994
 -50469237.40647 -39307859.27244  23985479.7114                   23985476.5594
 -17197050.70345 -13382741.79243  24472458.3674                   24472458.0944
 -31132209.62547 -24240897.60845  21421246.0944                   21421243.0784
 -11039454.53547  -8579892.30145  22076492.7274                   22076489.4614
 11  9 29  1 54  0.0000000  0  7G29G21G15G05G30G26G18
 -43731250.41848 -34059588.09847  20255090.4304                   20255087.6294
 -15652107.95747 -12181978.81345  22454702.6484                   22454699.1214
 -27572037.67648 -21466990.22846  20595894.6724                   20595891.7584
 -50479487.20347 -39315846.11344  23983528.7194                   23983526.2274
 -17221944.51246 -13402139.51843  24467721.0944                   24467720.7034
 -31186851.68748 -24283475.82945  21410847.9144                   21410845.2074
 -11180157.82448  -8689531.18245  22049717.6954                   22049713.7234
 11  9 29  1 54 30.0000000  0  7G29G21G15G05G30G26G18
 -43805406.94548 -34117372.39747  20240979.2504                   20240976.2424
 -15811332.85947 -12306050.09845  22424402.8594                   22424399.4064
 -27686459.80548 -21556150.32146  20574120.9384                   20574117.6054
 -50489754.66847 -39323846.74344  23981574.9224                   23981572.2424
 -17246769.73445 -13421483.91343  24462996.1254                   24462996.0474
 -31240818.76648 -24325528.08545  21400578.2344                   21400575.3914
 -11320590.68748  -8798959.34645  22022993.7974                   22022990.7344
 11  9 29  1 55  0.0000000  0  7G29G21G15G05G30G26G18
 -43878988.11748 -34174708.36947  20226976.7504                   20226974.2704
 -15970534.01247 -12430102.86845  22394108.0554                   22394104.1994
 -27800275.29348 -21644837.69146  20552462.6024                   20552459.3714
 -50500043.72346 -39331864.21344  23979616.9614                   23979613.9734
 -17271532.59846 -13440779.68743  24458285.4534                   24458284.2114
 -31294115.73447 -24367058.18845  21390436.0474                   21390433.1724
 -11460756.71947  -8908179.58445  21996321.4454                   21996317.5354
 11  9 29  1 55 30.0000000  0  7G29G21G15G05G30G26G18
 -43951994.70748 -34231596.61447  20213084.2424                   20213081.7194
 -16129711.56247 -12554137.26345  22363817.4844                   22363813.7894
 -27913484.19548 -21733052.41146  20530919.6804                   20530916.8484
 -50510356.12946 -39339899.84144  23977654.4844                   23977651.8524
 -17296236.61746 -13460029.62943  24453584.1174                   24453583.6094
 -31346744.77047 -24408067.82645  21380421.0554                   21380418.9144
 -11600656.68448  -9017192.51345  21969699.4844                   21969695.4964
 11  9 29  1 56  0.0000000  0  7G29G21G15G05G30G26G18
 -44024424.65648 -34288035.52847  20199301.4694                   20199299.0554
 -16288861.89547 -12678150.43545  22333532.3674                   22333528.4614
 -28026083.28948 -21820791.94446  20509492.9224                   20509489.9184
 -50520691.07046 -39347953.02343  23975687.8674                   23975684.6954
 -17320882.17646 -13479233.92043  24448893.7584                   24448893.3594
 -31398705.03547 -24448556.32945  21370533.2034                   21370530.5744
 -11740288.65247  -9125996.59445  21943127.9534                   21943124.4804
 11  9 29  1 56 30.0000000  0  7G29G21G15G05G30G26G18
 -44096282.60948 -34344028.73147  20185627.0394                   20185624.1524
 -16447988.47347 -12802145.11945  22303251.2194                   22303246.8874
 -28138076.30948 -21908059.22246  20488181.2814                   20488178.0314
 -50531053.35246 -39356027.50043  23973716.1254                   23973712.5004
 -17345476.61347 -13498398.45544  24444214.2194                   24444214.0434
 -31450002.09847 -24488528.05945  21360772.0394                   21360769.3444
 -11879657.63347  -9234595.75245  21916606.8914                   21916603.0634
 11  9 29  1 57  0.0000000  0  7G29G21G15G05G30G26G18
 -42592149.61748 -33171977.04447  20471854.0944                   20471851.5394
 -15031668.02347 -11698518.76145  22572768.1884                   22572764.1884
 -26674041.81248 -20767253.10046  20766777.6174                   20766774.3284
 -48966026.32846 -38136525.91643  24271530.2194                   24271527.3674
 -15794605.05147 -12289927.15244  24739334.5784                   24739334.7584
 -29925219.07047 -23300385.42045  21650928.6094                   21650926.0234
 -10443341.91047  -8115388.65345  22189928.7974                   22189925.4304
 11  9 29  1 57 30.0000000  0  7G29G21G15G05G30G26G18
 -42662870.25448 -33227084.02847  20458396.5634                   20458393.9024
 -15190749.26247 -11822478.11845  22542495.7194                   22542491.9454
 -26784826.64848 -20853578.93846  20745695.8524                   20745692.7304
 -48976451.45746 -38144649.37243  24269546.5704                   24269543.3594
 -15819111.88347 -12309023.44744  24734672.0164                   24734670.8954
 -29975200.97747 -23339332.35145  21641417.0784                   21641414.7934
 -10582191.25847  -8223582.91045  22163506.5944                   22163502.9344
 11  9 29  1 58  0.0000000  0  7G29G21G15G05G30G26G18
 -42733023.05548 -33281748.56147  20445047.0634                   20445044.0944
 -15349806.57047 -11946418.83445  22512228.3054                   22512224.3714
 -26895006.04747 -20939432.99846  20724729.3914                   20724726.3204
 -48986909.82846 -38152798.79443  24267556.5864                   24267553.4064
 -15843579.25447 -12328088.97744  24730015.5004                   24730015.8754
 -30024527.61347 -23377768.68945  21632030.5704                   21632028.0554
 -10720781.15247  -8331574.99045  22137133.7894                   22137130.4384
 11  9 29  1 58 30.0000000  0  7G29G21G15G05G30G26G18
 -42802607.27348 -33335970.02847  20431805.4694                   20431802.5984
 -15508837.95347 -12070339.35145  22481965.5394                   22481961.6524
 -27004578.53548 -21024814.14146  20703878.5084                   20703875.4144
 -48997401.19546 -38160973.87343  24265560.6954                   24265556.8204
 -15868008.89847 -12347125.13243  24725367.0704                   24725366.9774
 -30073199.83247 -23415695.07845  21622768.7114                   21622765.9414
 -10859111.26647  -8439364.63745  22110810.2344                   22110806.9884
 11  9 29  1 59  0.0000000  0  7G29G21G15G05G30G26G18
 -42871624.78148 -33389749.90447  20418671.7814                   20418668.8874
 -15667843.21547 -12194239.50845  22451707.7344                   22451703.9614
 -27113545.15648 -21109723.19046  20683143.1414                   20683139.9774
 -49007927.64546 -38169176.30843  24263556.4614                   24263553.8674
 -15892405.41047 -12366135.45743  24720724.7734                   24720723.0554
 -30121220.63347 -23453113.88045  21613630.3754                   21613627.9064
 -10997183.65247  -8546953.44045  22084536.4304                   22084532.2504
 11  9 29  1 59 30.0000000  0  7G29G21G15G05G30G26G18
 -42940075.01648 -33443087.74347  20405646.0394                   20405643.7854
 -15826820.50847 -12318117.87745  22421455.2034                   22421451.3204
 -27221904.44948 -21194158.98046  20662522.7424                   20662519.8444
 -49018489.33646 -38177406.20644  24261547.3984                   24261544.1684
 -15916770.60247 -12385121.40343  24716088.1174                   24716087.1764
 -30168591.12947 -23490025.96245  21604616.2664                   21604613.7034
 -11134997.74647  -8654341.00345  22058311.1024                   22058306.9344
 11  9 29  2  0  0.0000000  0  7G29G21G15G05G30G26G18
 -43007959.84848 -33495985.02147  20392728.1644                   20392725.3444
 -15985770.37147 -12441974.90845  22391208.1724                   22391204.1414
 -27329657.50448 -21278122.38446  20642017.7504                   20642014.8634
 -49029088.51246 -38185665.29544  24259530.2034                   24259527.5904
 -15941108.77346 -12404086.24543  24711456.9454                   24711455.8364
 -30215314.40647 -23526433.70045  21595725.1094                   21595722.1174
 -11272554.89147  -8761528.34545  22032134.1644                   22032130.7194
 11  9 29  2  0 30.0000000  0  7G29G21G15G05G30G26G18
 -43075279.66848 -33548442.03047  20379917.8524                   20379914.7734
 -16144690.92247 -12565809.07045  22360966.7274                   22360962.5704
 -27436803.42248 -21361612.69346  20621629.1024                   20621625.7344
 -49039726.14146 -38193954.34544  24257505.9534                   24257503.3324
 -15965422.80146 -12423032.32843  24706829.3984                   24706829.7704
 -30261392.05947 -23562338.36145  21586956.7194                   21586953.8444
 -11409855.43747  -8868515.71745  22006007.0234                   22006003.4104
 11  9 29  2  1  0.0000000  0  7G29G21G15G05G30G26G18
 -43142036.01248 -33600459.95647  20367214.5084                   20367211.6054
 -16303582.65647 -12689620.79045  22330730.5164                   22330726.5944
 -27543342.57048 -21444630.18646  20601355.2734                   20601351.8634
 -49050403.67646 -38202274.51744  24255474.5554                   24255471.9454
 -15989715.99246 -12441962.16143  24702207.1724                   24702207.0434
 -30306826.71947 -23597741.99445  21578310.9384                   21578308.0314
 -11546901.17247  -8975304.56045  21979927.9774                   21979924.2894
 11  9 29  2  1 30.0000000  0  7G29G21G15G05G30G26G18
 -43208230.14148 -33652039.80347  20354617.8984                   20354615.4064
 -16462444.55147 -12813409.25745  22300500.3754                   22300495.6954
 -27649275.45748 -21527175.27746  20581196.8594                   20581193.6414
 -49061122.74247 -38210627.02844  24253434.5944                   24253431.2504
 -16013992.34446 -12460878.81143  24697587.5864                   24697586.4064
 -30351621.04747 -23632646.67545  21569786.8834                   21569784.1994
 -11683693.07848  -9081895.58345  21953897.0704                   21953893.8324
 11  9 29  2  2  0.0000000  0  7G29G21G15G05G30G26G18
 -43273860.73448 -33703180.52847  20342128.8834                   20342126.2074
 -16621274.46547 -12937172.80345  22270275.7114                   22270271.5634
 -27754599.66847 -21609246.07146  20561154.1804                   20561151.1414
 -49071882.50047 -38219011.23844  24251386.8054                   24251384.0124
 -16038252.87945 -12479783.15243  24692970.3364                   24692970.6374
 -30395775.17247 -23667052.47345  21561383.8524                   21561381.7304
 -11820229.80547  -9188287.80045  21927915.2274                   21927911.8524
 11  9 29  2  2 30.0000000  0  7G29G21G15G05G30G26G18
 -43338929.79348 -33753883.69147  20329746.5234                   20329743.8794
 -16780071.87547 -13060911.01745  22240057.8284                   22240053.8984
 -27859316.48048 -21690843.57346  20541227.0554                   20541224.3094
 -49082684.78547 -38227428.61644  24249331.2894                   24249328.8164
 -16062501.44546 -12498678.27243  24688356.2194                   24688356.3014
 -30439292.29747 -23700961.90545  21553103.4924                   21553100.8914
 -11956512.96947  -9294482.42545  21901981.5004                   21901978.3404
 11  9 29  2  3  0.0000000  0  7G29G21G15G05G30G26G18
 -43403438.41848 -33804150.15647  20317471.0944                   20317468.2504
 -16938836.55147 -13184623.73045  22209845.7194                   22209841.7624
 -27963426.14848 -21771967.98346  20521416.1564                   20521412.5434
 -49093531.32446 -38235880.48344  24247267.1334                   24247264.5004
 -16086741.89146 -12517567.00042  24683742.8754                   24683743.4414
 -30482175.04747 -23734377.06145  21544942.7584                   21544940.7774
 -12092543.97348  -9400480.58045  21876095.9534                   21876091.9344
 11  9 29  2  3 30.0000000  0  7G29G21G15G05G30G26G18
 -43467389.48848 -33853982.17047  20305301.7344                   20305298.8324
 -17097569.65648 -13308311.83745  22179639.5474                   22179635.6644
 -28066930.73447 -21852620.88046  20501719.5704                   20501716.3244
 -49104425.47746 -38244369.46444  24245194.0164                   24245191.2814
 -16110979.46146 -12536453.43742  24679131.4304                   24679130.9414
 -30524427.78147 -23767301.27945  21536903.1334                   21536900.0984
 -12228325.59448  -9506284.40445  21850257.1174                   21850254.0004
 11  9 29  2  4  0.0000000  0  7G29G21G15G05G30G26G18
 -43530780.85248 -33903378.03747  20293238.4304                   20293236.1094
 -17256266.53148 -13431971.72245  22149441.1174                   22149436.5124
 -28169826.76648 -21932799.58746  20482139.1804                   20482135.9224
 -49115364.94546 -38252893.67144  24243112.8134                   24243109.5944
 -16135213.91846 -12555337.41442  24674519.1644                   24674519.6374
 -30566049.52747 -23799733.81545  21528982.5704                   21528979.7854
 -12363855.23048  -9611891.88245  21824466.8444                   21824462.7814
 11  9 29  2  4 30.0000000  0  6G29G21G15G05G26G18
 -43593614.59448 -33952339.40647  20281281.8284                   20281279.1454
 -17414927.25447 -13555603.43545  22119248.4694                   22119244.7304
 -28272114.87148 -22012504.59246  20462674.0084                   20462671.2894
 -49126351.63346 -38261454.75043  24241021.5944                   24241018.6564
 -30607043.04347 -23831676.80845  21521181.7974                   21521179.0904
 -12499134.17248  -9717304.01745  21798723.9454                   21798720.4614
 11  9 29  2  5  0.0000000  0  6G29G21G15G05G26G18
 -42080471.10248 -32773266.55347  20569223.3524                   20569220.7384
 -15998127.74647 -12451603.77345  22388856.1334                   22388851.9144
 -26798373.82048 -20864134.92147  20743117.8134                   20743114.8914
 -47561967.27346 -37042453.97643  24538713.8594                   24538711.2854
 -29071991.05947 -22635532.41545  21813292.1804                   21813289.4414
 -11058740.67248  -8594919.43845  22072822.1094                   22072818.2664
 11  9 29  2  5 30.0000000  0  6G29G21G15G05G26G18
 -42142185.02748 -32821355.31647  20557479.6094                   20557476.6724
 -16156706.83647 -12575171.85745  22358679.8674                   22358675.7304
 -26899440.05148 -20942887.80647  20723885.5704                   20723882.3914
 -47573043.65246 -37051084.93043  24536606.1884                   24536603.5434
 -29111728.31247 -22666496.51245  21805730.7034                   21805727.9104
 -11193513.77048  -8699937.41145  22047174.8754                   22047171.5784
 11  9 29  2  6  0.0000000  0  6G29G21G15G05G26G18
 -42203332.85248 -32869002.98247  20545843.7584                   20545841.0354
 -16315236.08647 -12698701.12045  22328512.5634                   22328508.6484
 -26999887.67247 -21021158.66446  20704770.9304                   20704767.6604
 -47584159.36746 -37059746.53643  24534490.7664                   24534487.6564
 -29150833.83647 -22696968.34845  21798288.7734                   21798286.6094
 -11328027.79348  -8804753.51945  22021578.0394                   22021574.5984
 11  9 29  2  6 30.0000000  0  6G29G21G15G05G26G18
 -42263917.40648 -32916211.72847  20534314.6174                   20534312.0434
 -16473715.83647 -12822191.79045  22298355.4534                   22298350.8834
 -27099718.30947 -21098948.76047  20685773.8524                   20685771.0784
 -47595316.84046 -37068440.71943  24532367.4454                   24532364.8204
 -29189310.72347 -22726950.33645  21790967.1094                   21790964.4964
 -11462284.44148  -8909369.05345  21996030.0634                   21996026.0204
 11  9 29  2  7  0.0000000  0  6G29G21G15G05G26G18
 -42323941.90648 -32962984.07047  20522892.6334                   20522889.9304
 -16632147.35547 -12945644.86345  22268206.3444                   22268202.3834
 -27198934.41848 -21176260.00546  20666893.7664                   20666890.5554
 -47606519.02046 -37077169.66243  24530236.7114                   24530233.4184
 -29227164.11347 -22756446.49745  21783764.1804                   21783761.1724
 -11596287.36748  -9013786.86145  21970529.6174                   21970526.5784
 11  9 29  2  7 30.0000000  0  6G29G21G15G05G26G18
 -42383407.23848 -33009320.69447  20511576.7194                   20511574.0474
 -16790529.72347 -13069059.65845  22238067.2194                   22238063.5314
 -27297535.80547 -21253092.24746  20648130.5084                   20648127.0664
 -47617766.82446 -37085934.20343  24528096.1724                   24528092.8094
 -29264396.08647 -22785458.43545  21776678.6954                   21776675.9494
 -11730036.95748  -9118007.31145  21945078.2504                   21945074.0824
 11  9 29  2  8  0.0000000  0  6G29G21G15G05G26G18
 -42442316.39848 -33055223.94447  20500366.8984                   20500363.9694
 -16948863.50047 -13192436.59145  22207937.2734                   22207933.0554
 -27395524.87147 -21329447.34546  20629483.7274                   20629480.5164
 -47629063.28546 -37094736.66643  24525946.8834                   24525943.2424
 -29301011.09047 -22813989.61445  21769711.1884                   21769708.3984
 -11863535.70748  -9222032.27945  21919674.5554                   21919670.5594
 11  9 29  2  8 30.0000000  0  6G29G21G15G05G26G18
 -42500673.22348 -33100696.79947  20489261.2974                   20489258.9304
 -17107150.32847 -13315776.93645  22177816.4144                   22177812.2384
 -27492904.36747 -21405327.45846  20610953.0634                   20610949.9264
 -47640411.64546 -37103579.52343  24523786.4844                   24523784.0514
 -29337013.93447 -22842043.79645  21762860.2734                   21762857.2194
 -11996786.76248  -9325864.22945  21894317.2584                   21894313.5354
 11  9 29  2  9  0.0000000  0  6G29G21G15G05G26G18
 -42558478.96148 -33145740.22447  20478261.3594                   20478258.5274
 -17265389.42647 -13439080.09345  22147704.3674                   22147700.1724
 -27589674.36748 -21480732.64646  20592538.2114                   20592535.0634
 -47651813.67646 -37112464.25843  24521617.6804                   24521613.5044
 -29372407.44547 -22869623.14545  21756125.0704                   21756121.9454
 -12129791.33248  -9429504.12245  21869007.5164                   21869003.4414
 11  9 29  2  9 30.0000000  0  7G29G22G21G15G05G26G18
 -42615736.25048 -33190356.30647  20467365.9454                   20467363.1374
  24955131.75857  19464866.64853  24648331.6954                   24648328.1994
 -17423581.07048 -13562346.27345  22117601.2814                   22117597.5864
 -27685836.87948 -21555664.45246  20574239.1564                   20574236.2774
 -47663271.03946 -37121392.06843  24519436.7504                   24519433.0044
 -29407195.57047 -22896730.77145  21749505.0864                   21749502.4064
 -12262551.75848  -9532953.76045  21843743.9774                   21843740.0944
 11  9 29  2 10  0.0000000  0  7G29G22G21G15G05G26G18
 -42672451.25048 -33234549.81546  20456573.2664                   20456570.9144
  24786140.21546  19333185.11743  24616172.9844                   24616168.2734
 -17581729.48847 -13685578.77545  22087507.0004                   22087503.0274
 -27781397.34448 -21630127.14246  20556054.6094                   20556051.1954
 -47674790.33246 -37130368.11443  24517244.7814                   24517241.8834
 -29441386.13347 -22923372.78845  21742998.9844                   21742996.1994
 -12395074.24248  -9636218.00445  21818525.6884                   21818521.9184
 11  9 29  2 10 30.0000000  0  7G29G22G21G15G05G26G18
 -42728628.94148 -33278324.64147  20445882.8834                   20445880.5204
  24617308.58246  19201628.16043  24584045.3284                   24584040.4454
 -17739836.82847 -13808779.26446  22057420.0164                   22057415.6414
 -27876359.59048 -21704123.68946  20537984.1414                   20537980.5664
 -47686375.69946 -37139395.71943  24515040.4774                   24515037.7154
 -29474985.00047 -22949553.72145  21736605.3914                   21736602.3164
 -12527362.73848  -9739299.92945  21793351.9454                   21793348.2704
 11  9 29  2 11  0.0000000  0  7G29G22G21G15G05G26G18
 -42784269.66448 -33321681.05547  20435295.0314                   20435292.4184
  24448637.89146  19070196.57343  24551948.5474                   24551944.1914
 -17897901.70747 -13931946.67945  22027341.2424                   22027337.3914
 -27970723.16447 -21777653.73246  20520026.9454                   20520023.6644
 -47698027.09446 -37148474.66744  24512823.1564                   24512819.5824
 -29507993.83247 -22975274.89245  21730323.8134                   21730321.1764
 -12659417.24648  -9842199.50545  21768222.9534                   21768219.5044
 11  9 29  2 11 30.0000000  0  7G29G22G21G15G05G26G18
 -42839375.07848 -33364620.33347  20424808.8364                   20424806.0314
  24280127.61346  18938889.98443  24519881.8984                   24519877.3164
 -18055923.05548 -14055080.18245  21997270.6954                   21997266.7234
 -28064488.39847 -21850717.54546  20502184.0704                   20502181.0204
 -47709745.94546 -37157606.27143  24510592.6024                   24510589.8364
 -29540415.65247 -23000538.67945  21724154.2734                   21724151.4064
 -12791238.78148  -9944917.53445  21743137.9924                   21743134.1024
 11  9 29  2 12  0.0000000  0  7G29G22G21G15G05G26G18
 -42893942.09448 -33407140.09346  20414425.0944                   20414422.3054
  24111782.11746  18807711.73543  24487846.8364                   24487842.2704
 -18213895.49648 -14178175.55745  21967209.7344                   21967205.6094
 -28157651.71548 -21923312.31746  20484455.9064                   20484452.6374
 -47721528.59846 -37166787.59344  24508350.6954                   24508347.5944
 -29572248.69147 -23025343.64245  21718096.2894                   21718094.0124
 -12922823.98848 -10047451.42345  21718098.3364                   21718094.5044
 11  9 29  2 12 30.0000000  0  7G29G22G21G15G05G26G18
 -42947971.99648 -33449241.33447  20404143.6334                   20404140.7384
  23943601.12546  18676661.76343  24455842.7424                   24455839.3014
 -18371817.41448 -14301231.58445  21937158.0554                   21937153.9024
 -28250213.52048 -21995438.39547  20466841.9534                   20466838.4534
 -47733376.34446 -37176019.59643  24506095.6094                   24506093.6524
 -29603495.68447 -23049691.95045  21712150.3134                   21712147.8134
 -13054173.60548 -10149801.72345  21693103.1884                   21693099.1414
 11  9 29  2 13  0.0000000  0  7G29G22G21G15G05G26G18
 -43001465.85548 -33490924.86347  20393963.9694                   20393961.2424
  23775585.57046  18545740.65443  24423869.6884                   24423866.7544
 -18529687.88348 -14424247.51445  21907116.2734                   21907112.3054
 -28342173.46947 -22067095.48847  20449342.3674                   20449339.7194
 -47745289.37146 -37185302.49843  24503829.5314                   24503826.9104
 -29634158.57847 -23073585.12745  21706315.6414                   21706313.1214
 -13185287.99648 -10251968.76745  21668152.7894                   21668149.1024
 11  9 29  2 13 30.0000000  0  7G29G22G21G15G05G26G18
 -41479003.57848 -32304590.62047  20683678.8834                   20683676.5124
  25183160.17646  19642552.16843  24691722.9844                   24691718.9774
 -17112080.99247 -13319618.74245  22176877.9454                   22176873.8324
 -26858109.66048 -20910682.11846  20731750.2034                   20731747.3054
 -46181848.78546 -35967037.13643  24801341.9844                   24801339.1764
 -28088819.64847 -21869424.92445  22000383.9224                   22000381.1374
 -11740744.32448  -9126350.27846  21943040.7034                   21943036.6414
 11  9 29  2 14  0.0000000  0  7G29G22G21G15G05G26G18
 -41531429.29748 -32345441.84747  20673702.3594                   20673700.0084
  25015474.39546  19511888.03543  24659813.2114                   24659809.4534
 -17269845.25848 -13442551.91546  22146856.2894                   22146851.9884
 -26948868.26248 -20981403.09447  20714479.6804                   20714476.4614
 -46193895.36345 -35976424.11643  24799049.3594                   24799046.6884
 -28118322.96547 -21892414.55245  21994769.3984                   21994766.6804
 -11871391.35948  -9228153.13145  21918178.8984                   21918175.2194
 11  9 29  2 14 30.0000000  0  7G29G22G21G15G05G26G18
 -41583324.12548 -32385879.38247  20663827.4454                   20663824.6334
  24847952.43846  19381351.50543  24627935.0004                   24627930.6884
 -17427555.47747 -13565442.97746  22116844.7734                   22116841.0434
 -27039028.23448 -21051657.60447  20697322.8674                   20697319.7194
 -46206011.41446 -35985865.21143  24796744.1024                   24796741.5434
 -28147251.90247 -21914956.58945  21989264.6484                   21989261.7274
 -12001806.84848  -9329775.56145  21893362.0704                   21893358.3324
 11  9 29  2 15  0.0000000  0  7G29G22G21G15G05G26G18
 -41634686.50848 -32425902.02747  20654053.5474                   20654050.8094
  24680597.17647  19250944.93744  24596087.8134                   24596084.1684
 -17585207.95748 -13688289.06045  22086845.0234                   22086840.6804
 -27128587.05948 -21121443.68546  20680280.3444                   20680276.9614
 -46218194.41846 -35995358.51643  24794425.6564                   24794423.0554
 -28175606.06647 -21937050.73145  21983869.1884                   21983866.3524
 -12131988.88748  -9431216.07245  21868589.0784                   21868584.9804
 11  9 29  2 15 30.0000000  0  7G29G22G21G15G05G26G18
 -41685519.82048 -32465512.40447  20644380.3284                   20644377.3634
  24513407.06647  19120667.02544  24564272.6254                   24564268.5124
 -17742802.94548 -13811090.31945  22056855.2974                   22056851.2624
 -27217546.73048 -21190762.89846  20663351.6724                   20663348.5004
 -46230446.81646 -36004905.89343  24792093.7664                   24792091.8134
 -28203389.83647 -21958700.43845  21978582.0394                   21978579.3164
 -12261939.80547  -9532476.49545  21843860.0164                   21843856.1884
 11  9 29  2 16  0.0000000  0  7G29G22G21G15G05G26G18
 -41735823.00448 -32504709.69947  20634807.9064                   20634805.0164
  24346384.20347  18990519.44844  24532489.8834                   24532485.7814
 -17900336.87947 -13933844.01346  22026877.8754                   22026873.5314
 -27305905.59848 -21259613.95946  20646537.4924                   20646534.4924
 -46242767.21946 -36014506.21943  24789750.2194                   24789746.6414
 -28230603.55547 -21979905.94145  21973403.4454                   21973400.7664
 -12391658.32048  -9633555.83346  21819175.3054                   21819171.4344
 11  9 29  2 16 30.0000000  0  7G29G22G21G15G05G26G18
 -41785597.69948 -32543495.19147  20625336.1024                   20625333.4734
  24179528.34847  18860502.02344  24500737.4064                   24500733.2704
 -18057809.16847 -14056549.67646  21996911.7584                   21996907.4774
 -27393664.54748 -21327997.54946  20629837.4694                   20629834.4024
 -46255156.38746 -36024160.10243  24787391.7894                   24787388.9064
 -28257250.19547 -22000669.57845  21968332.1724                   21968329.9104
 -12521145.09048  -9734454.58945  21794534.9534                   21794531.0044
 11  9 29  2 17  0.0000000  0  7G29G22G21G15G05G26G18
 -41834845.15648 -32581869.84846  20615964.4694                   20615962.1884
  24012839.82047  18730614.98844  24469017.2974                   24469014.6134
 -18215217.59847 -14179205.56146  21966957.7504                   21966953.7774
 -27480823.76648 -21395913.80546  20613251.5394                   20613248.7814
 -46267615.03946 -36033868.15143  24785020.9454                   24785017.9534
 -28283332.23047 -22020993.23345  21963368.7424                   21963366.5084
 -12650401.07847  -9835173.51445  21769938.0234                   21769934.4344
 11  9 29  2 17 30.0000000  0  7G29G22G21G15G05G26G18
 -41883565.13348 -32619833.47447  20606693.6334                   20606690.5314
  23846319.77047  18600859.24544  24437330.1564                   24437326.4804
 -18372559.47747 -14301809.58845  21937016.7504                   21937012.4184
 -27567382.39548 -21463362.08246  20596780.5164                   20596777.2074
 -46280142.00846 -36043629.41543  24782638.1564                   24782634.8714
 -28308850.71947 -22040877.79245  21958513.4384                   21958510.3674
 -12779425.31647  -9935711.86145  21745385.8134                   21745381.5704
 11  9 29  2 18  0.0000000  0  7G29G22G21G15G05G26G18
 -41931764.27048 -32657391.25946  20597521.4844                   20597518.8874
  23679963.88346  18471231.42444  24405673.0164                   24405669.4844
 -18529838.77047 -14424364.86245  21907087.6174                   21907083.2774
 -27653346.25848 -21530346.90746  20580421.8594                   20580418.3634
 -46292743.27346 -36053448.68042  24780240.2664                   24780237.2734
 -28333813.53947 -22060329.33845  21953763.0234                   21953760.0514
 -12908223.45347 -10036074.03846  21720876.1954                   21720872.5944
 11  9 29  2 18 30.0000000  0  6G29G22G21G15G26G18
 -41979440.49248 -32694541.56646  20588448.8674                   20588446.2584
  23513775.10546  18341733.86444  24374048.5314                   24374044.1134
 -18687050.91047 -14546867.79545  21877170.8524                   21877166.7854
 -27738712.59048 -21596866.10346  20564177.0634                   20564174.2344
 -28358220.27347 -22079347.57145  21949118.6724                   21949115.7304
 -13036793.02047 -10136258.09445  21696410.6254                   21696406.0744
 11  9 29  2 19  0.0000000  0  6G29G22G21G15G26G18
 -42026590.25848 -32731281.65646  20579476.4924                   20579473.9924
  23347758.34446  18212370.25743  24342457.0004                   24342452.0744
 -18844189.23048 -14669313.21146  21847268.5394                   21847264.5044
 -27823476.82448 -21662916.15846  20548047.0474                   20548043.6914
 -28382068.55547 -22097930.66245  21944580.6484                   21944577.7704
 -13165129.81647 -10236260.76845  21671988.3134                   21671984.7154
 11  9 29  2 19 30.0000000  0  6G29G22G21G15G26G18
 -42073213.89548 -32767611.76146  20570604.5634                   20570601.6454
  23181915.39546  18083142.18943  24310898.0004                   24310893.3134
 -19001250.79347 -14791698.82546  21817380.7734                   21817376.6564
 -27907638.22748 -21728496.46246  20532031.6024                   20532028.6294
 -28405359.70347 -22116079.61945  21940148.5474                   21940145.5394
 -13293233.25047 -10336081.58445  21647611.2344                   21647607.4964
 11  9 29  2 20  0.0000000  0  6G29G22G21G15G26G18
 -42119306.60548 -32803528.17446  20561833.2194                   20561830.7664
  23016252.06646  17954053.95843  24279372.4844                   24279367.4734
 -19158227.98847 -14914018.69146  21787508.6644                   21787504.3554
 -27991191.32048 -21793602.75846  20516131.8134                   20516128.4844
 -28428090.21547 -22133791.73745  21935822.6024                   21935820.2664
 -13421097.60947 -10435716.14145  21623279.4614                   21623275.4184
 11  9 29  2 20 30.0000000  0  6G29G22G21G15G26G18
 -42164876.02048 -32839036.81546  20553161.7114                   20553159.2424
  22850762.57846  17825101.33943  24247880.6884                   24247876.8244
 -19315125.93047 -15036276.79746  21757652.1024                   21757647.8284
 -28074143.18448 -21858240.57846  20500347.0084                   20500343.8984
 -28450269.15247 -22151074.01845  21931602.3054                   21931599.4454
 -13548729.98847 -10535169.92945  21598991.8444                   21598988.0514
 11  9 29  2 21  0.0000000  0  6G29G22G21G15G26G18
 -42209921.25048 -32874136.99347  20544590.0314                   20544587.3834
  22685448.78946  17696285.53143  24216422.7894                   24216417.7154
 -19471941.08248 -15158470.40745  21727811.0004                   21727806.7774
 -28156492.10948 -21922408.57047  20484676.4844                   20484673.0124
 -28471897.02047 -22167926.92545  21927486.2894                   21927483.9304
 -13676128.55147 -10634441.52145  21574748.6414                   21574744.7194
 11  9 29  2 21 30.0000000  0  6G29G22G21G15G26G18
 -40679025.68748 -31681231.37246  20835909.7814                   20835906.8404
  24095733.48446  18795208.71943  24484790.7894                   24484786.6884
 -18053249.42247 -14052996.37446  21997778.8134                   21997774.8874
 -26662819.00848 -20758507.43746  20768912.5234                   20768909.4844
 -26917559.14147 -20956754.54845  22223267.2504                   22223264.9654
 -12227873.34847  -9505930.94345  21850342.3284                   21850338.8204
 11  9 29  2 22  0.0000000  0  6G29G22G21G15G26G18
 -40723032.50848 -31715522.40846  20827535.3914                   20827532.7194
  23930766.50046  18666663.19543  24453399.0634                   24453394.2154
 -18209898.76247 -14175060.76846  21967969.8134                   21967965.5784
 -26743969.04748 -20821741.22446  20753470.5314                   20753467.3594
 -26938098.24247 -20972759.07545  22219359.0474                   22219356.5274
 -12354812.37547  -9604844.46646  21826186.5634                   21826182.8794
 11  9 29  2 22 30.0000000  0  6G29G22G21G15G26G18
 -40766526.48848 -31749413.84346  20819258.9224                   20819256.2734
  23765969.05946  18538249.69543  24422038.6884                   24422034.6524
 -18366467.19948 -14297062.12846  21938175.7814                   21938171.7544
 -26824525.10948 -20884512.18646  20738140.9924                   20738138.2114
 -26958101.11347 -20988345.74745  22215552.4774                   22215550.0594
 -12481526.13748  -9703582.44346  21802073.9224                   21802069.7464
 11  9 29  2 23  0.0000000  0  6G29G22G21G15G26G18
 -40809508.04748 -31782905.97746  20811079.8754                   20811077.1024
  23601341.98846  18409968.99744  24390711.0634                   24390706.6334
 -18522952.19548 -14418998.47846  21908397.6564                   21908393.2854
 -26904486.32448 -20946819.61746  20722924.9694                   20722922.0394
 -26977569.59447 -21003516.01345  22211847.6564                   22211844.9614
 -12608014.85548  -9802145.07746  21778003.8134                   21777999.7854
 11  9 29  2 23 30.0000000  0  6G29G22G21G15G26G18
 -40851981.68448 -31816002.32146  20802997.4064                   20802994.5314
  23436882.89146  18281819.15644  24359415.5554                   24359411.5044
 -18679354.87147 -14540870.67346  21878634.9224                   21878631.0864
 -26983856.59448 -21008666.58546  20707821.3284                   20707818.2344
 -26996509.12547 -21018274.11345  22208243.9924                   22208241.0044
 -12734281.66448  -9900534.77445  21753976.2424                   21753972.0594
 11  9 29  2 24  0.0000000  0  6G29G22G21G15G26G18
 -40893944.87548 -31848700.92346  20795012.1334                   20795009.3244
  23272595.34846  18153803.00144  24328152.5634                   24328148.4884
 -18835669.88348 -14662674.56446  21848889.1954                   21848885.1134
 -27062632.99248 -21070050.77746  20692830.8284                   20692827.5984
 -27014919.37547 -21032619.77645  22204740.4144                   22204737.6054
 -12860323.77347  -9998749.38846  21729990.9614                   21729987.2074
 11  9 29  2 24 30.0000000  0  6G29G22G21G15G26G18
 -40935400.68048 -31881004.16146  20787123.2034                   20787120.6764
  23108478.32446  18025919.72244  24296921.4614                   24296917.1764
 -18991896.50048 -14784409.57346  21819160.4614                   21819156.0314
 -27140817.26648 -21130973.59246  20677953.0084                   20677949.5314
 -27032803.31247 -21046555.32445  22201337.5394                   22201334.5864
 -12986142.55147 -10096789.99046  21706048.6644                   21706044.6564
 11  9 29  2 25  0.0000000  0  7G29G22G09G21G15G26G18
 -40976351.28548 -31912913.72646  20779330.9534                   20779327.9614
  22944531.09446  17898168.69644  24265723.2504                   24265718.6764
  28089095.53556  21908085.46153  24884904.7814                   24884903.0704
 -19148034.75447 -14906075.73046  21789448.5004                   21789444.1134
 -27218411.15648 -21191436.35246  20663187.0394                   20663183.8444
 -27050165.25047 -21060084.13245  22198033.6484                   22198030.9884
 -13111740.01647 -10194658.12646  21682148.2584                   21682144.2734
 11  9 29  2 25 30.0000000  0  7G29G22G09G21G15G26G18
 -41016809.66448 -31944439.74946  20771631.8284                   20771628.8914
  22780742.54747  17770541.34744  24234556.2734                   24234550.8594
  27908498.46546  21767360.56743  24850537.0084                   24850536.1684
 -19304093.42247 -15027679.88246  21759751.5394                   21759746.9104
 -27295426.93748 -21251448.63846  20648531.8444                   20648528.5354
 -27067019.02347 -21073216.95245  22194826.3054                   22194823.9964
 -13237127.79347 -10292362.86345  21658287.6334                   21658283.3794
 11  9 29  2 26  0.0000000  0  7G29G22G09G21G15G26G18
 -41056781.45348 -31975586.60146  20764025.2734                   20764022.7704
  22617108.27046  17643034.28143  24203417.1804                   24203412.3244
  27727793.05546  21626551.30943  24816151.2894                   24816148.9264
 -19460075.43448 -15149224.29246  21730068.6644                   21730064.8404
 -27371869.11748 -21311013.97746  20633985.1414                   20633981.9224
 -27083371.64547 -21085959.26345  22191714.0004                   22191711.5044
 -13362310.59447 -10389907.88245  21634465.8914                   21634461.8754
 11  9 29  2 26 30.0000000  0  7G29G22G09G21G15G26G18
 -41096264.02348 -32006352.25846  20756512.0634                   20756509.5314
  22453633.23046  17515651.24144  24172308.9694                   24172304.4494
  27546986.40246  21485663.16743  24781743.7814                   24781742.6524
 -19615974.12947 -15270703.78746  21700402.2274                   21700397.8524
 -27447734.61748 -21370129.94546  20619548.4454                   20619545.4264
 -27099221.43447 -21098309.76444  22188698.4064                   22188695.5594
 -13487284.72747 -10487290.30146  21610684.2584                   21610680.1994
 11  9 29  2 27  0.0000000  0  7G29G22G09G21G15G26G18
 -41135258.68448 -32036737.72746  20749091.6174                   20749088.8204
  22290317.41446  17388392.22344  24141230.0554                   24141226.6174
  27366081.97346  21344698.71843  24747318.6804                   24747317.8834
 -19771788.16848 -15392117.32046  21670752.1484                   21670747.6724
 -27523024.00448 -21428796.99546  20605221.0704                   20605218.0514
 -27114571.16447 -21110270.60144  22185777.1644                   22185774.2854
 -13612050.74247 -10584510.53745  21586942.3984                   21586938.0164
 11  9 29  2 27 30.0000000  0  7G29G22G09G21G15G26G18
 -41173766.44548 -32066743.77746  20741764.0004                   20741761.1174
  22127161.50446  17261257.90043  24110181.5554                   24110178.5864
  27185083.46946  21203661.14143  24712876.1484                   24712874.3674
 -19927515.44147 -15513463.22046  21641118.0634                   21641113.9414
 -27597737.24648 -21487015.09646  20591003.8134                   20591000.8324
 -27129423.03547 -21121843.47944  22182951.2034                   22182948.0704
 -13736608.48047 -10681568.51746  21563239.1804                   21563235.5664
 11  9 29  2 28  0.0000000  0  7G29G22G09G21G15G26G18
 -41211786.58647 -32096369.87546  20734528.9454                   20734526.4104
  21964168.03546  17134250.04944  24079166.3914                   24079161.8204
  27003996.15646  21062554.25944  24678416.8754                   24678414.6884
 -20083151.55147 -15634738.11346  21611501.7664                   21611497.3404
 -27671873.13348 -21544783.31746  20576896.2504                   20576893.0084
 -27143777.37947 -21133028.68744  22180219.7974                   22180216.3404
 -13860956.06247 -10778462.69945  21539576.7664                   21539572.7154
 11  9 29  2 28 30.0000000  0  7G29G22G09G21G15G26G18
 -41249322.27047 -32125618.47046  20727386.2194                   20727383.5944
  21801335.34446  17007367.53044  24048179.9224                   24048175.9454
  26822821.54746  20921379.34843  24643939.3674                   24643938.2584
 -20238696.52347 -15755941.98046  21581902.3204                   21581897.8524
 -27745434.21148 -21602103.63746  20562898.0474                   20562894.6134
 -27157638.69147 -21143829.69244  22177581.8054                   22177579.1564
 -13985096.13347 -10875195.18646  21515954.0704                   21515949.9454
 11  9 29  2 29  0.0000000  0  7G29G22G09G21G15G26G18
 -41286370.76647 -32154487.44046  20720335.9384                   20720333.4224
  21638668.00446  16880613.84144  24017226.1954                   24017221.5204
  26641566.99246  20780142.14243  24609447.7974                   24609446.5704
 -20394143.82047 -15877069.72646  21552321.9304                   21552317.5234
 -27818416.77748 -21658973.16446  20549009.4844                   20549006.4494
 -27171005.49247 -21154245.42244  22175038.0474                   22175035.7584
 -14109024.60247 -10971762.79746  21492371.2424                   21492366.9454
 11  9 29  2 29 30.0000000  0  7G29G22G09G21G15G26G18
 -41322936.27347 -32182980.05446  20713377.8134                   20713375.1764
  21476163.78546  16753987.27243  23986302.0634                   23986297.8014
  26460233.11546  20638843.12543  24574941.9304                   24574940.0704
 -20549493.70747 -15998121.58046  21522759.6174                   21522754.9534
 -27890824.56648 -21715394.82546  20535231.0004                   20535227.8324
 -27183882.83247 -21164279.73744  22172587.6884                   22172585.2344
 -14232744.68047 -11068168.03846  21468827.4534                   21468823.5744
 11  9 29  2 30  0.0000000  0  7G29G22G09G21G15G26G18
 -39783595.82848 -30983494.01146  21006304.6564                   21006302.0514
  22889251.57447  17855094.73643  24255203.5944                   24255198.6914
  27854252.36746  21725092.01743  24840214.8364                   24840213.3134
 -19129317.07447 -14891490.41946  21793009.7424                   21793005.7974
 -26387232.44548 -20543764.59346  20821355.0234                   20821352.1024
 -25620850.04347 -19946332.13344  22470023.0234                   22470020.0434
 -12780829.23848  -9936805.33146  21745118.1174                   21745114.1254
 11  9 29  2 30 30.0000000  0  7G29G22G09G21G15G26G18
 -39819196.68748 -31011234.95346  20999529.8364                   20999527.1724
  22727077.34046  17728725.27344  24224342.9304                   24224337.7154
  27672772.66446  21583679.37144  24805680.2664                   24805678.4064
 -19284464.73048 -15012384.68546  21763486.5784                   21763482.2034
 -26458489.21948 -20599289.34946  20807795.5634                   20807792.2624
 -25632753.86747 -19955607.83644  22467757.4694                   22467754.7544
 -12904130.35248 -10032884.08946  21721654.6414                   21721650.8244
 11  9 29  2 31  0.0000000  0  7G29G22G09G21G15G26G18
 -39854320.21147 -31038603.94346  20992846.3674                   20992843.5744
  22565065.98847  17602482.71144  24193513.3444                   24193508.4454
  27491222.28147  21442211.66343  24771132.0784                   24771129.6604
 -19439510.62148 -15133199.64646  21733982.3914                   21733977.9804
 -26529174.56248 -20654368.84046  20794344.6024                   20794341.1844
 -25644177.52747 -19964509.41544  22465584.0554                   22465581.4614
 -13027224.95748 -10128801.92746  21698230.6804                   21698226.8244
 11  9 29  2 31 30.0000000  0  7G29G22G09G21G15G26G18
 -39888967.17247 -31065601.59546  20986252.6334                   20986250.4184
  22403218.50047  17476367.84443  24162714.5554                   24162709.3134
  27309605.51646  21300692.15043  24736571.6024                   24736569.3794
 -19594452.07847 -15253933.23246  21704498.2274                   21704493.9224
 -26599288.31248 -20709002.92946  20781002.1024                   20780999.1684
 -25655122.68746 -19973038.13944  22463500.5864                   22463498.5274
 -13150113.09447 -10224558.89946  21674845.6644                   21674841.9844
 11  9 29  2 32  0.0000000  0  7G29G22G09G21G15G26G18
 -39923138.36747 -31092228.50746  20979750.6644                   20979747.8324
  22241535.18446  17350380.96044  24131947.1094                   24131941.9654
  27127926.11346  21159123.90043  24701998.8674                   24701996.9184
 -19749286.75847 -15374583.60346  21675033.8834                   21675029.6454
 -26668831.18448 -20763192.17146  20767768.4534                   20767765.2504
 -25665592.15247 -19981196.16244  22461508.9534                   22461506.7384
 -13272794.89547 -10320155.09446  21651500.1414                   21651496.2664
 11  9 29  2 32 30.0000000  0  7G29G22G09G21G15G26G18
 -39956837.15247 -31118487.31746  20973337.8594                   20973335.5164
  22080015.00847  17224521.06444  24101211.0004                   24101205.4614
  26946185.62546  21017507.98643  24667414.3444                   24667412.1214
 -19904014.02747 -15495150.30246  21645589.7194                   21645585.7774
 -26737805.49648 -20816938.38746  20754643.1564                   20754640.0354
 -25675589.93047 -19988986.66444  22459606.4384                   22459604.0314
 -13395272.33647 -10415592.02546  21628193.1954                   21628189.8484
 11  9 29  2 33  0.0000000  0  7G29G22G09G21G15G26G18
 -39990065.47747 -31144379.53446  20967015.0704                   20967012.1214
  21918658.34846  17098788.64643  24070505.4844                   24070501.5354
  26764387.77746  20875847.42943  24632819.4774                   24632817.8594
 -20058631.98447 -15615631.81046  21616167.1414                   21616162.8594
 -26806211.94948 -20870242.12246  20741625.8594                   20741623.0314
 -25685118.65647 -19996411.65844  22457793.3444                   22457790.9414
 -13517545.50447 -10510869.79546  21604925.4534                   21604921.6174
 11  9 29  2 33 30.0000000  0  7G29G22G09G21G15G26G18
 -40022824.96548 -31169906.41546  20960781.0314                   20960778.2814
  21757465.10246  16973183.62343  24039831.1804                   24039826.5664
  26582535.34446  20734144.31643  24598214.5314                   24598211.9024
 -20213138.12948 -15736026.19246  21586765.6254                   21586761.5594
 -26874052.47348 -20923104.87146  20728716.3674                   20728713.2854
 -25694181.35247 -20003473.51944  22456069.1174                   22456066.2424
 -13639615.17647 -10605989.00046  21581696.6884                   21581692.8364
 11  9 29  2 34  0.0000000  0  7G29G22G09G21G15G26G18
 -40055117.05548 -31195069.09346  20954636.1174                   20954633.3874
  21596435.49646  16847706.09043  24009188.6334                   24009183.5234
  26400631.91446  20592401.42643  24563598.8444                   24563596.4224
 -20367530.80148 -15856332.14846  21557385.5084                   21557381.5354
 -26941326.89148 -20975526.49746  20715914.4224                   20715911.5084
 -25702780.62147 -20010174.26544  22454432.2814                   22454429.5124
 -13761481.57448 -10700949.81646  21558506.1024                   21558501.9734
 11  9 29  2 34 30.0000000  0  7G29G22G09G21G15G26G18
 -40086942.99248 -31219868.54246  20948579.6094                   20948577.0904
  21435570.35546  16722356.70943  23978576.4694                   23978571.4184
  26218681.13746  20450621.64243  24528975.1724                   24528972.9774
 -20521807.80948 -15976547.98946  21528027.7114                   21528023.6884
 -27008036.14147 -21027507.72946  20703220.2664                   20703216.8954
 -25710918.74247 -20016515.67844  22452883.8984                   22452881.2664
 -13883144.79348 -10795752.30146  21535354.2504                   21535350.1914
 11  9 29  2 35  0.0000000  0  7G29G22G09G21G15G26G18
 -40118307.06248 -31244308.08846  20942611.1484                   20942608.7774
  21274867.28546  16597133.55043  23947995.3364                   23947990.2934
  26036683.61746  20308805.46943  24494341.7424                   24494339.5004
 -20675969.76647 -16096674.16246  21498691.8134                   21498687.3714
 -27074183.79347 -21079051.35646  20690632.6954                   20690629.4384
 -25718601.35247 -20022502.13944  22451422.2504                   22451419.4264
 -14004607.95348 -10890398.89846  21512240.2974                   21512236.7194
 11  9 29  2 35 30.0000000  0  7G29G22G09G21G15G26G18
 -40149206.76648 -31268385.78546  20936731.4774                   20936728.8364
  21114330.46546  16472039.97843  23917446.4454                   23917442.1294
  25854647.41846  20166959.18343  24459701.1484                   24459699.0744
 -20830010.19947 -16216705.65646  21469378.6724                   21469374.5234
 -27139766.91048 -21130155.07646  20678152.7664                   20678149.2154
 -25725826.87547 -20028132.42844  22450046.7344                   22450043.4064
 -14125867.00847 -10984886.45946  21489165.7504                   21489162.0004
 11  9 29  2 36  0.0000000  0  7G29G22G09G21G15G26G18
 -40179646.03547 -31292104.72146  20930938.9304                   20930936.6254
  20953957.83646  16347074.41444  23886928.7114                   23886924.3674
  25672573.55546  20025083.52843  24425054.4064                   24425052.2304
 -20983929.18447 -16336642.51446  21440088.9144                   21440084.6134
 -27204788.70347 -21180821.39746  20665779.4064                   20665776.1844
 -25732600.33646 -20033410.45644  22448758.0474                   22448755.5744
 -14246924.88747 -11079217.25346  21466129.1334                   21466125.0984
 11  9 29  2 36 30.0000000  0  7G29G22G09G21G15G26G18
 -40209626.17247 -31315465.88246  20925233.8284                   20925231.4534
  20793750.13347  16222237.33044  23856442.2584                   23856438.2774
  25490465.57445  19883181.20143  24390399.3134                   24390397.4534
 -21137724.34048 -16456482.88146  21410822.7734                   21410818.3324
 -27269250.11348 -21231051.07046  20653512.8524                   20653509.3674
 -25738924.00046 -20038338.02644  22447554.1334                   22447551.7504
 -14367781.90647 -11173391.52746  21443131.0784                   21443126.8244
 11  9 29  2 37  0.0000000  0  8G29G22G09G06G21G15G26G18
 -40239153.06648 -31338473.86146  20919614.9924                   20919612.3134
  20633703.54347  16097525.74244  23825986.6804                   23825981.1214
  25308322.97346  19741252.02843  24355739.4534                   24355737.2424
  29662719.71156  23134507.99353  24705391.7664                   24705389.5904
 -21291397.53148 -16576228.22046  21381580.0394                   21381575.4884
 -27333155.76648 -21280847.67946  20641351.9304                   20641348.7934
 -25744805.00446 -20042920.62344  22446435.6094                   22446432.4964
 -14488442.19148 -11267412.52246  21420170.2894                   21420165.8204
 11  9 29  2 37 30.0000000  0  8G29G22G09G06G21G15G26G18
 -40268234.60547 -31361134.82146  20914080.9304                   20914078.5784
  20473812.05547  15972935.05444  23795560.0784                   23795554.7274
  25126142.64545  19599293.41143  24321071.1954                   24321069.1724
  29481319.49646  22993157.34643  24670871.8134                   24670870.0594
 -21444953.01648 -16695881.84546  21352359.2424                   21352354.4494
 -27396513.19548 -21330217.11246  20629295.7194                   20629292.1134
 -25750252.34046 -20047165.34344  22445398.5474                   22445395.9774
 -14608912.22748 -11361285.26646  21397245.4844                   21397241.1134
 11  9 29  2 38  0.0000000  0  8G29G22G09G06G21G15G26G18
 -38721454.26648 -30155851.45246  21208423.8674                   21208421.0434
  21889498.39547  17076067.31244  24064956.3674                   24064950.8754
  26519351.77046  20684911.04643  24586190.4534                   24586188.4024
  30875597.43046  24079607.68843  24936194.2344                   24936191.2194
 -20022966.14848 -15587840.11746  21622954.2504                   21622949.8914
 -25883903.78548 -20151560.42346  20917134.8674                   20917132.2934
 -24179851.26246 -18823476.16944  22744235.8204                   22744233.1334
 -13153771.25848 -10227409.17546  21674149.4454                   21674145.5314
 11  9 29  2 38 30.0000000  0  8G29G22G09G06G21G15G26G18
 -38749656.59848 -30177827.30646  21203056.7344                   21203054.3054
  21729911.29747  16951713.83844  24034587.8674                   24034583.1294
  26337101.10946  20542897.57843  24551509.4924                   24551507.4494
  30694703.33645  23938651.40143  24901770.8054                   24901768.8754
 -20176285.58247 -15707309.80046  21593778.7584                   21593774.1644
 -25946173.84448 -20200082.54946  20905285.9454                   20905282.7774
 -24184445.71146 -18827056.31344  22743362.3054                   22743359.2734
 -13273868.83648 -10320991.69246  21651295.6564                   21651291.6914
 11  9 29  2 39  0.0000000  0  8G29G22G09G06G21G15G26G18
 -38777417.43448 -30199459.14446  21197774.0164                   21197771.4924
  21570481.31647  16827482.73844  24004249.3204                   24004244.3954
  26154824.91046  20400864.21644  24516823.4844                   24516820.5274
  30514070.73445  23797898.80942  24867397.8364                   24867394.7974
 -20329479.36747 -15826681.58346  21564626.7194                   21564622.4844
 -26007898.03947 -20248179.31846  20893540.2504                   20893536.8364
 -24188613.26646 -18830303.76844  22742568.6644                   22742566.0004
 -13393776.14547 -10414425.94546  21628477.6414                   21628473.8714
 11  9 29  2 39 30.0000000  0  8G29G22G09G06G21G15G26G18
 -38804735.81248 -30220746.20046  21192575.5784                   21192573.0864
  21411211.11347  16703376.14644  23973941.0704                   23973935.5434
  25972529.25446  20258815.79143  24482133.0004                   24482131.1174
  30333705.31645  23657354.47742  24833074.8594                   24833073.4264
 -20482542.43448 -15945951.50946  21535499.9144                   21535495.4304
 -26069074.21947 -20295849.07446  20881898.4614                   20881895.3324
 -24192354.19147 -18833218.76844  22741857.0234                   22741854.0984
 -13513491.08247 -10507710.30846  21605697.0474                   21605693.0164
 11  9 29  2 40  0.0000000  0  8G29G22G09G06G21G15G26G18
 -38831615.75448 -30241691.62146  21187460.5004                   21187458.0314
  21252098.79747  16579392.59744  23943662.7274                   23943657.6334
  25790215.26646  20116753.00044  24447439.6954                   24447437.9924
  30153607.06355  23517018.27052  24798803.2194                   24798801.2624
 -20635475.05948 -16065119.78146  21506397.9924                   21506393.5274
 -26129705.96947 -20343094.58446  20870360.7344                   20870357.7424
 -24195673.46947 -18835805.23144  22741225.2734                   22741222.6374
 -13633016.13747 -10600846.69746  21582952.0084                   21582948.0274
 11  9 29  2 40 30.0000000  0  8G29G22G09G06G21G15G26G18
 -38858057.75448 -30262295.79946  21182428.7734                   21182426.3094
  21093145.70747  16455533.07644  23913415.1254                   23913410.2074
  25607887.82046  19974679.73944  24412743.9774                   24412742.2544
  29973780.04355  23376893.46952  24764582.3674                   24764580.6804
 -20788273.63748 -16184183.62146  21477321.0704                   21477316.5354
 -26189793.19148 -20389915.80646  20858926.5084                   20858923.2814
 -24198572.59447 -18838064.32144  22740674.0394                   22740671.1174
 -13752350.39148 -10693834.43046  21560243.5084                   21560239.6844
 11  9 29  2 41  0.0000000  0  8G29G22G09G06G21G15G26G18
 -38884065.96948 -30282561.94846  21177479.4774                   21177476.9614
  20934350.87547  16331796.92544  23883197.1254                   23883192.4454
  25425548.42246  19832597.13244  24378046.4224                   24378044.0234
  29794225.00045  23236980.66643  24730415.1804                   24730413.4064
 -20940938.16848 -16303142.99446  21448269.8524                   21448265.5394
 -26249339.39148 -20436315.44646  20847595.7194                   20847592.2234
 -24201056.65247 -18839999.95244  22740201.0314                   22740198.6524
 -13871496.23048 -10786675.33946  21537570.8594                   21537566.6994
 11  9 29  2 41 30.0000000  0  8G29G22G09G06G21G15G26G18
 -38909640.24648 -30302489.97646  21172613.2194                   21172610.4804
  20775714.94147  16208184.61244  23853009.5234                   23853005.0784
  25243202.33646  19690509.32244  24343346.2734                   24343344.5004
  29614946.59446  23097283.22143  24696298.9534                   24696297.5984
 -21093464.41448 -16421994.61046  21419245.2344                   21419240.9574
 -26308343.69548 -20482292.82546  20836367.1644                   20836364.0434
 -24203126.27047 -18841612.65644  22739807.3134                   22739804.3014
 -13990452.23848 -10879368.32246  21514934.2424                   21514930.4344
 11  9 29  2 42  0.0000000  0  8G29G22G09G06G21G15G26G18
 -38934782.28548 -30322081.18246  21167828.7034                   21167826.0824
  20617238.61747  16084696.63444  23822852.5704                   23822847.6564
  25060853.12546  19548419.09243  24308646.4774                   24308644.7544
  29435947.19946  22957803.30743  24662237.5944                   24662234.5274
 -21245850.85948 -16540737.30146  21390247.1174                   21390242.4614
 -26366807.09048 -20527848.70946  20825241.7894                   20825238.5474
 -24204784.47747 -18842904.78544  22739491.8674                   22739489.1374
 -14109219.21548 -10971913.99346  21492333.4614                   21492329.8914
 11  9 29  2 42 30.0000000  0  8G29G22G09G06G21G15G26G18
 -38959492.80948 -30341336.15446  21163126.4304                   21163123.7894
  20458923.60247  15961334.33444  23792726.3754                   23792721.4924
  24878505.89146  19406330.39544  24273946.9844                   24273944.9654
  29257231.20846  22818544.13343  24628228.8524                   24628226.6174
 -21398093.07848 -16659367.60646  21361276.3054                   21361272.1094
 -26424729.83648 -20572983.32746  20814219.6954                   20814216.5124
 -24206032.85546 -18843877.57944  22739254.1414                   22739251.5164
 -14227795.89548 -11064311.40846  21469768.9844                   21469765.2464
 11  9 29  2 43  0.0000000  0  8G29G22G09G06G21G15G26G18
 -38983775.39848 -30360257.66946  21158505.5704                   21158503.0084
  20300767.82046  15838096.11844  23762629.6094                   23762625.7464
  24696161.87946  19264244.13143  24239247.9454                   24239246.3054
  29078799.13746  22679506.27143  24594273.9384                   24594272.5434
 -21550190.31648 -16777884.91446  21332333.3444                   21332329.0314
 -26482115.46148 -20617699.40246  20803299.5004                   20803296.3594
 -24206875.98046 -18844534.54344  22739094.4454                   22739091.4184
 -14346184.72747 -11156562.42846  21447240.6954                   21447236.4774
 11  9 29  2 43 30.0000000  0  8G29G22G09G06G21G15G26G18
 -39007631.52048 -30378846.86646  21153966.1334                   21153963.2234
  20142772.43847  15714982.92044  23732564.7194                   23732559.7774
  24513825.27746  19122163.79444  24204550.4614                   24204548.4804
  28900653.99646  22540691.97443  24560374.1414                   24560371.7854
 -21702140.72348 -16896287.83546  21303418.1804                   21303413.4574
 -26538964.22748 -20661997.14746  20792481.4844                   20792478.5474
 -24207316.45746 -18844877.78344  22739009.9924                   22739007.6724
 -14464385.59448 -11248666.99146  21424747.9304                   21424743.9614
 11  9 29  2 44  0.0000000  0  8G29G22G09G06G21G15G26G18
 -39031063.85548 -30397105.84546  21149507.1094                   21149504.3324
  19984936.41447  15591993.88444  23702529.4144                   23702524.5634
  24331499.09046  18980091.45243  24169854.7974                   24169853.5784
  28722798.12946  22402103.05244  24526529.0164                   24526527.2774
 -21853942.41848 -17014574.85846  21274531.0704                   21274526.4964
 -26595278.25048 -20705878.20646  20781765.2034                   20781762.0904
 -24207357.57846 -18844909.85244  22739001.8834                   22738999.9534
 -14582399.37947 -11340625.77446  21402290.7274                   21402286.4304
 11  9 29  2 44 30.0000000  0  8G29G22G09G06G21G15G26G18
 -39054075.77348 -30415037.21846  21145127.7664                   21145125.4304
  19827258.78147  15469128.23844  23672524.1484                   23672519.1884
  24149185.17646  18838028.72243  24135161.3524                   24135159.3094
  28545232.58646  22263740.36944  24492739.6884                   24492738.2464
 -22005594.58648 -17132745.37246  21245672.4694                   21245668.1914
 -26651060.45348 -20749344.87246  20771150.1414                   20771147.2894
 -24207003.87546 -18844634.22844  22739069.5164                   22739067.1804
 -14700227.96548 -11432440.24246  21379868.7974                   21379864.1804
 11  9 29  2 45  0.0000000  0  8G29G22G09G06G21G15G26G18
 -39076669.02048 -30432642.35146  21140828.4534                   21140826.1054
  19669739.59047  15346386.08144  23642549.1414                   23642543.7074
  23966887.46146  18695978.58043  24100471.8524                   24100469.7304
  28367960.07046  22125606.05143  24459005.5634                   24459004.1524
 -22157095.20348 -17250797.79246  21216843.0704                   21216838.7894
 -26706312.10948 -20792398.11246  20760636.3204                   20760633.4184
 -24206257.78946 -18844052.90544  22739211.8054                   22739208.8914
 -14817871.86348 -11524110.80246  21357481.3834                   21357477.5554
 11  9 29  2 45 30.0000000  0  8G29G22G09G06G21G15G26G18
 -39098844.81648 -30449922.21646  21136608.5164                   21136606.2854
  19512379.94947  15223768.24844  23612605.1884                   23612600.2074
  23784610.30946  18553944.48743  24065786.1024                   24065783.5664
  28190984.13746  21987702.76643  24425328.2114                   24425326.2034
 -22308440.84448 -17368729.46146  21188042.7034                   21188038.4264
 -26761033.72748 -20835038.33446  20750222.9304                   20750220.0474
 -24205121.53146 -18843167.50844  22739427.4144                   22739425.1484
 -14935330.73048 -11615637.15946  21335130.0944                   21335125.7544
 11  9 29  2 46  0.0000000  0  8G29G22G09G06G21G15G26G18
 -37545184.61748 -29239277.92246  21432260.3674                   21432258.1054
  20930604.78946                  16328878.56444                  23882483.7114
  23882479.1844   25177783.04346  19639533.65443                  24330897.2664
  24330894.5164   29589733.02045  23077637.04643  24691500.3284   24691498.6214
 -20884204.72348 -16258935.05646  21459065.9534                   21459061.3984
 -25239805.24248 -19649665.49246  21039703.1954                   21039700.0124
 -22628178.39846 -17614380.65144  23039509.4384                   23039507.3134
 -13477181.17248 -10479416.71446  21612606.3444                   21612602.4384
 11  9 29  2 46 30.0000000  0  8G29G22G09G06G21G15G26G18
 -37566533.71148 -29255913.59646  21428198.0164                   21428195.4614
  20773561.79347                  16206507.42944                  23852599.6024
  23852594.0084   24995555.29346  19497538.04243                  24296220.9844
  24296217.9774   29413355.44545  22940200.14943  24657937.2344   24657935.0984
 -21035236.37148 -16376622.04946  21430325.6804                   21430320.9184
 -25293473.48848 -19691484.91246  21029490.5704                   21029487.3754
 -22626273.11746 -17612895.97444  23039872.0314                   23039869.9574
 -13594273.68048 -10570657.61546  21590324.3674                   21590320.4614
 11  9 29  2 47  0.0000000  0  8G29G22G09G06G21G15G26G18
 -37587472.32448 -29272229.40246  21424213.3284                   21424210.7664
  20616677.46147                  16084259.92744                  23822745.6804
  23822740.1134   24813357.69546  19355565.96543                  24261548.7814
  24261547.7734   29237281.26645  22802999.49243  24624431.5004   24624428.9384
 -21186107.52748 -16494183.98446  21401615.8754                   21401611.4454
 -25346617.11348 -19732895.52646  21019377.4384                   21019374.2934
 -22623987.40246 -17611114.91643  23040307.4304                   23040304.7154
 -13711183.13348 -10661755.87846  21568077.5314                   21568073.4224
 11  9 29  2 47 30.0000000  0  8G29G22G09G06G21G15G26G18
 -37608002.99248 -29288227.33546  21420306.4774                   21420304.0474
  20459951.55547                  15962135.88044                  23792921.3914
  23792916.1454   24631193.34046  19213619.71843                  24226885.4454
  24226882.1294   29061512.63745  22666037.17943  24590983.2664   24590981.4694
 -21336816.10248 -16611619.22746  21372937.0004                   21372932.6294
 -25399238.06648 -19773898.88746  21009364.0234                   21009360.9304
 -22621324.49647 -17609039.89744  23040813.8284                   23040811.1724
 -13827910.69948 -10752712.41546  21545864.8444                   21545860.6684
 11  9 29  2 48  0.0000000  0  8G29G22G09G06G21G15G26G18
 -37628128.02048 -29303909.18946  21416477.0704                   21416474.3984
  20303383.91047                  15840135.18044                  23763127.4304
  23763122.1414   24449065.57046  19071702.00343                  24192226.0234
  24192223.9384   28886051.87146  22529314.60043  24557594.1884   24557592.3874
 -21487360.54748 -16728926.57246  21344288.9304                   21344284.6764
 -25451338.08248 -19814496.30546  20999450.0784                   20999446.7504
 -22618287.73047 -17606673.57044  23041392.3204                   23041388.8954
 -13944457.25048 -10843527.90246  21523686.7034                   21523683.0354
 11  9 29  2 48 30.0000000  0  8G29G22G09G06G21G15G26G18
 -37647850.64848 -29319277.49146  21412723.9844                   21412721.2194
  20146973.41047                  15718256.93444                  23733363.8134
  23733358.6524   24266976.94946  18929814.82743                  24157576.9614
  24157575.1804   28710900.24646  22392832.88243  24524265.0084   24524262.1054
 -21637739.49648 -16846104.96646  21315673.1414                   21315668.4344
 -25502919.72348 -19854689.80146  20989634.3444                   20989631.0514
 -22614881.30947 -17604019.16744  23042040.5784                   23042037.6644
 -14060823.98448 -10934203.26546  21501542.9064                   21501538.6334
 11  9 29  2 49  0.0000000  0  8G29G22G09G06G21G15G26G18
 -37667173.71148 -29334334.43846  21409047.0314                   21409044.2384
  19990719.15247                  15596500.44044                  23703629.5314
  23703623.9104   24084930.10246  18787960.13143                  24122934.1954
  24122931.9024   28536059.74246  22256593.63843  24490993.1024   24490990.5864
 -21787951.38748 -16963153.18446  21287088.4454                   21287084.0044
 -25553985.48448 -19894481.30146  20979916.7194                   20979913.6524
 -22611108.90247 -17601079.60444  23042757.6484                   23042754.9534
 -14177012.33248 -11024739.63646  21479433.1644                   21479428.9884
 11  9 29  2 49 30.0000000  0  8G29G22G09G06G21G15G26G18
 -37686098.18447 -29349080.78146  21405445.4614                   21405442.8244
  19834622.46547                  15474866.70944                  23673924.9224
  23673920.5234   23902929.74247  18646141.72943                  24088301.1094
  24088297.6564   28361534.00847  22120599.61843  24457781.9454   24457779.7384
 -21937992.67648 -17080068.47046  21258536.4844                   21258532.0704
 -25604535.91048 -19933871.24346  20970297.0314                   20970294.1804
 -22606972.11347 -17597856.12144  23043545.4534                   23043542.5594
 -14293021.70748 -11115136.54546  21457357.1564                   21457353.1994
 11  9 29  2 50  0.0000000  0  8G29G22G09G06G21G15G26G18
 -37704629.23048 -29363520.57746  21401919.1094                   21401916.5164
  19678679.84047                  15353353.01544                  23644250.3284
  23644245.3364   23720976.22746  18504359.80043                  24053676.0394
  24053674.3984   28187321.99246  21984850.07543  24424631.2274   24424628.0044
 -22087864.95348 -17196852.05046  21230016.7274                   21230012.4384
 -25654575.80948 -19972863.37146  20960775.2584                   20960771.8754
 -22602477.44947 -17594353.79844  23044400.5394                   23044398.0744
 -14408855.74248 -11205396.81746  21435314.6724                   21435310.6174
 11  9 29  2 50 30.0000000  0  8G29G22G09G06G21G15G26G18
 -37722767.40647 -29377654.23946  21398468.0004                   21398465.1214
  19522893.69947                  15231961.30944                  23614605.1564
  23614600.3674   23539075.25046  18362618.81443                  24019061.0944
  24019058.8404   28013428.47346  21849348.71743  24391539.3524   24391537.8984
 -22237563.54348 -17313500.30946  21201530.1564                   21201525.8364
 -25704104.68448 -20011457.30546  20951349.9064                   20951346.8204
 -22597625.91047 -17590573.31444  23045324.0084                   23045320.8674
 -14524512.93048 -11295519.28946  21413305.9384                   21413301.7194
 11  9 29  2 51  0.0000000  0  8G29G22G09G06G21G15G26G18
 -37740513.25447 -29391482.17846  21395090.6024                   21395088.1724
  19367265.52347                  15110692.64844                  23584990.0704
  23584984.9884   23357231.85247  18220922.68844                  23984457.9064
  23984456.2894   27839857.55946  21714098.78744  24358510.3134   24358508.1414
 -22387084.61348 -17430010.22846  21173077.5554                   21173073.0864
 -25753122.57848 -20049653.06146  20942022.3754                   20942019.1724
 -22592418.65247 -17586515.70344  23046315.0004                   23046311.6994
 -14639992.27348 -11385503.18746  21391330.6414                   21391327.0554
 11  9 29  2 51 30.0000000  0  8G29G22G09G06G21G15G26G18
 -37757872.78947 -29405009.11346  21391787.2974                   21391784.6644
  19211790.88747                  14989543.63244                  23555404.2894
  23555399.5124   23175445.48047  18079270.97044                  23949864.4304
  23949862.6484   27666607.51246  21579098.86543  24325542.0944   24325539.8244
 -22536430.00048 -17546383.24646  21144657.7814                   21144653.5474
 -25801635.68748 -20087455.48946  20932790.7424                   20932787.6094
 -22586862.60546 -17582186.35644  23047372.0084                   23047369.3984
 -14755298.48848 -11475352.17946  21369388.7194                   21369384.9694
 11  9 29  2 52  0.0000000  0  8G29G22G09G06G21G15G26G18
 -37774846.39548 -29418235.31546  21388557.1954                   21388554.8094
  19056472.07047                  14868516.05245                  23525848.4224
  23525842.9694   22993721.73047  17937668.09444                  23915284.4144
  23915281.6724   27493682.99646  21444352.57143  24292635.3134   24292633.1094
 -22685595.44948 -17662616.05046  21116272.6644                   21116268.1524
 -25849643.07848 -20124863.85346  20923655.1024                   20923652.1884
 -22580959.14546 -17577586.22744  23048495.5314                   23048492.8754
 -14870429.59848 -11565064.71246  21347480.2734                   21347475.8984
 11  9 29  2 52 30.0000000  0  8G29G22G09G06G21G15G26G18
 -37791437.13747 -29431163.18546  21385400.3284                   21385397.9344
  18901308.14147                  14747609.12945                  23496321.3674
  23496316.5004   22812063.31647  17796116.12244                  23880715.3134
  23880714.1764   27321085.39846  21309861.01943  24259790.7194   24259788.1604
 -22834579.72748 -17778707.70646  21087921.9064                   21087917.3714
 -25897147.80148 -20161880.52146  20914615.0394                   20914612.1374
 -22574712.21546 -17572718.51043  23049683.7814                   23049682.0124
 -14985387.56248 -11654642.34646  21325604.1644                   21325600.1914
 11  9 29  2 53  0.0000000  0  8G29G22G09G06G21G15G26G18
 -37807645.86748 -29443793.37746  21382315.9534                   21382313.1724
  18746300.41847                  14626823.94244                  23466824.5554
  23466819.4184   22630475.25047  17654618.98444                  23846161.1414
  23846158.5944   27148818.80146  21175627.40243  24227009.1954   24227006.5664
 -22983378.93448 -17894655.12646  21059606.1804                   21059601.8594
 -25944149.92248 -20198505.55146  20905671.0394                   20905667.7584
 -22568122.96546 -17567584.01743  23050937.4454                   23050935.3984
 -15100170.99648 -11744083.97746  21303761.6174                   21303757.4304
 11  9 29  2 53 30.0000000  0  8G29G22G09G06G21G15G26G18
 -37823476.43748 -29456128.90346  21379303.3364                   21379300.7544
  18591446.85247                  14506158.89244                  23437356.3594
  23437351.5984   22448959.46146  17513178.11444                  23811619.1174
  23811616.4964   26976883.48446  21041651.88943  24194291.4614   24194288.4224
 -23131992.50048 -18010457.89846  21031326.0004                   21031322.0204
 -25990653.25448 -20234741.90746  20896821.7504                   20896818.3204
 -22561196.48846 -17562186.76943  23052255.6564                   23052253.7544
 -15214782.27048 -11833391.44846  21281951.6174                   21281947.7154
 11  9 29  2 54  0.0000000  0  8G29G22G09G06G21G15G26G18
 -37838931.25848 -29468171.64246  21376362.4304                   21376360.0904
  18436747.68847                  14385614.14444                  23407918.1954
  23407913.2034   22267519.37147  17371796.31444                  23777092.6644
  23777090.3794   26805282.28146  20907936.77243  24161636.1334   24161634.4924
 -23280418.52048 -18126114.53246  21003081.4064                   21003077.3134
 -26036659.47748 -20270590.90446  20888067.0704                   20888063.9024
 -22553935.82846 -17556529.15744  23053638.0944                   23053635.2504
 -15329222.06248 -11922565.29646  21260174.8204                   21260170.7664
 11  9 29  2 54 30.0000000  0  8G29G22G09G06G21G15G26G18
 -36278590.91848 -28252322.04246  21673285.1564   21673282.7734   19857629.26247
  15492794.63544                  23678302.7584                   23678297.4344
  23661586.03946                  18458082.03244                  24042374.2504
  24042371.8164   28209444.32446  22002089.04143  24428839.1644   24428837.2504
 -21853228.27748 -17014018.23846  21274666.7424                   21274662.3554
 -24506747.55948 -19078451.74546  21179199.8594                   21179196.0204
 -20970922.91446 -16323012.56444  23354875.5004                   23354872.2034
 -13868065.87148 -10784002.01346  21538223.1644                   21538219.2704
 11  9 29  2 55  0.0000000  0  8G29G22G09G06G21G15G26G18
 -36293300.76648 -28263784.26946  21670485.9924   21670483.7114   19703238.96547
  15372490.55744                  23648923.0554                   23648918.2624
  23480308.67646                  18316826.98344                  24007878.5234
  24007875.6954   28038518.60247  21868900.25643  24396314.0474   24396311.1454
 -22001271.80148 -17129376.82746  21246495.1484                   21246490.6214
 -24551764.55548 -19113529.92446  21170633.2274                   21170629.6954
 -20963002.48047 -16316840.80744  23356382.3204                   23356379.6884
 -13982163.93048 -10872909.57546  21516511.2034                   21516507.2074
 11  9 29  2 55 30.0000000  0  8G29G22G09G06G21G15G26G18
 -36307642.88348 -28274959.96546  21667757.0234   21667754.5234   19549001.30147
  15252305.45244                  23619572.5084                   23619567.5434
  23299116.42246                  18175638.25844                  23973399.0164
  23973396.8484   27867932.84846  21735976.35343  24363851.8674   24363849.5634
 -22149121.94948 -17244584.71746  21218359.8284                   21218355.7544
 -24596291.02348 -19148225.87546  21162160.3524                   21162156.6334
 -20954758.10947 -16310416.62344  23357950.8914                   23357948.7934
 -14096093.20348 -10961685.63046  21494831.2194                   21494827.1334
 11  9 29  2 56  0.0000000  0  8G29G22G09G06G21G15G26G18
 -36321619.66448 -28285850.98246  21665096.9384   21665094.8244   19394916.71947
  15132239.56144                  23590251.0784                   23590245.4414
  23118013.25447                  18034518.97944                  23938936.2194
  23938933.2934   27697689.56347  21603319.31344  24331455.9614   24331453.7424
 -22296776.45748 -17359640.18246  21190262.4064                   21190258.0164
 -24640328.79748 -19182541.02246  21153780.1254                   21153776.6254
 -20946192.59847 -16303742.19743  23359581.6024                   23359578.6484
 -14209854.06248 -11050330.45446  21473183.1024                   21473179.2774
 11  9 29  2 56 30.0000000  0  8G29G22G09G06G21G15G26G18
 -36335235.72348 -28296460.91946  21662506.2274   21662503.6764   19240982.54747
  15012290.91144                  23560958.6484                   23560952.5554
  22936999.99246                  17893469.70844                  23904490.3674
  23904487.6174   27527788.74646  21470929.10844  24299124.8204   24299122.5004
 -22444235.22748 -17474543.09746  21162202.0234                   21162197.5554
 -24683881.94148 -19216478.52246  21145492.0164                   21145488.6844
 -20937311.34447 -16296821.75443  23361271.7034                   23361268.7074
 -14323449.37148 -11138846.26246  21451566.9924                   21451562.9144
 11  9 29  2 57  0.0000000  0  8G29G22G09G06G21G15G26G18
 -36348493.33248 -28306791.53646  21659983.8754   21659981.0944   19087198.86747
  14892459.47244                  23531694.6414                   23531689.1094
  22756080.38746                  17752493.47744                  23870062.1804
  23870060.0234   27358232.85546  21338807.71243  24266859.3834   24266857.5084
 -22591496.04348 -17589291.78946  21134179.1884                   21134174.8554
 -24726952.56648 -19250040.05046  21137296.0004                   21137292.8794
 -20928117.50047 -16289657.69943  23363020.8444                   23363018.2304
 -14436879.64148 -11227233.49046  21429981.9064                   21429977.7974
 11  9 29  2 57 30.0000000  0  8G29G22G09G06G21G15G26G18
 -36361395.26648 -28316845.01746  21657528.6954   21657525.3984   18933565.04347
  14772744.84744                  23502459.3364                   23502453.8404
  22575257.84447                  17611592.82444                  23835652.7974
  23835650.3554   27189023.59446  21206956.35044  24234660.2344   24234657.5664
 -22738557.08248 -17703884.80146  21106193.9924                   21106189.8954
 -24769543.04748 -19283227.43446  21129191.0164                   21129187.7894
 -20918614.77047 -16282252.97543  23364828.9694                   23364825.8914
 -14550145.98848 -11315492.97146  21408428.0004                   21408423.5984
 11  9 29  2 58  0.0000000  0  8G29G22G09G06G21G15G26G18
 -36373943.22748 -28326622.66846  21655140.4304   21655137.9614   18780081.65647
  14653147.45344                  23473252.3834                   23473246.3484
  22394536.78947                  17470771.24044                  23801263.0944
  23801260.7854   27020164.21946  21075377.68744  24202527.0784   24202524.9064
 -22885415.85948 -17818320.21346  21078247.6954                   21078243.8594
 -24811654.50048 -19316041.54846  21121177.6564                   21121174.6024
 -20908804.99246 -16274609.02343  23366695.8914                   23366693.4614
 -14663248.20348 -11403624.56446  21386905.2664                   21386901.1764
 11  9 29  2 58 30.0000000  0  8G29G22G09G06G21G15G26G18
 -36386138.90247 -28336125.80046  21652819.8054   21652817.0744   18626749.27047
  14533667.70244                  23444073.8754                   23444068.3404
  22213921.12147                  17330031.79743                  23766892.6724
  23766889.7384   26851657.71946  20944074.00743  24170460.8674   24170459.1174
 -23032068.85248 -17932595.27646  21050340.9614                   21050336.5004
 -24853287.89848 -19348483.14146  21113255.1334                   21113251.8054
 -20898690.98046 -16266727.96643  23368620.3674                   23368617.3984
 -14776186.09048 -11491628.09546  21365413.8914                   21365409.6644
 11  9 29  2 59  0.0000000  0  8G29G22G09G06G21G15G26G18
 -36397986.30548 -28345357.57446  21650565.7894   21650562.9694   18473566.24647
  14414304.31444                  23414924.2424                   23414918.8634
  22033413.08647                  17189376.21143                  23732542.5634
  23732540.5664   26683504.75846  20813045.77544  24138462.8594   24138460.0824
 -23178515.41848 -18046709.46546  21022472.6884                   21022468.3874
 -24894446.96548 -19380555.13746  21105422.7424                   21105419.6844
 -20888276.89146 -16258613.08843  23370602.3914                   23370599.3874
 -14888961.83248 -11579505.31346  21343953.4844                   21343949.2854
 11  9 29  2 59 30.0000000  0  8G29G22G09G06G21G15G26G18
 -36409488.20747 -28354320.10646  21648376.5394   21648374.0744   18320532.17647
  14295057.03744                  23385802.6724                   23385797.7234
  21853015.90647                  17048806.98044                  23698214.5084
  23698212.7704   26515707.40646  20682294.61344  24106532.0864   24106529.5594
 -23324753.27048 -18160661.03246  20994644.8834                   20994640.7624
 -24935134.07048 -19412259.37046  21097679.9924                   21097677.2504
 -20877566.49246 -16250267.33143  23372640.1564                   23372637.3244
 -15001576.23848 -11667256.78646  21322523.4774                   21322519.4104
 11  9 29  3  0  0.0000000  0  8G29G22G09G06G21G15G26G18
 -36420648.87947 -28363016.75646  21646252.7894   21646250.8244   18167644.66047
  14175923.94844                  23356709.7504                   23356704.0744
  21672731.41447                  16908325.63344                  23663907.4614
  23663905.2424   26348266.00447  20551820.83643  24074668.8134   24074665.9304
 -23470782.57048 -18274450.09646  20966856.3984                   20966852.2114
 -24975353.00848 -19443598.80146  21090026.7814                   21090023.5744
 -20866564.57446 -16241694.45943  23374734.3444                   23374731.1454
 -15114031.41848 -11754884.18546  21301124.1804                   21301120.0634
 11  9 29  3  0 30.0000000  0  8G29G22G09G06G21G15G26G18
 -36431466.57847 -28371446.14946  21644194.4304   21644191.6764   18014907.72747
  14056908.18645                  23327644.1334                   23327638.8714
  21492566.89547                  16767937.70644                  23629624.0314
  23629620.7934   26181186.95346  20421629.40043  24042874.5474   24042872.4224
 -23616596.83248 -18388071.59346  20939108.5394                   20939104.6024
 -25015102.07847 -19474572.09446  21082462.7344                   21082459.1604
 -20855270.10946 -16232893.62243  23376882.5634                   23376880.2934
 -15226324.28548 -11842385.10346  21279755.1884                   21279751.3244
 11  9 29  3  1  0.0000000  0  8G29G22G09G06G21G15G26G18
 -36441944.65647 -28379610.90846  21642200.4064   21642198.2814   17862320.58647
  13938009.16144                  23298607.5314                   23298602.7424
  21312525.57447                  16627645.81144                  23595362.3444
  23595359.8094   26014471.78147  20291721.43843  24011150.0084   24011146.2894
 -23762194.59048 -18501524.39346  20911402.2584                   20911398.1684
 -25054383.57048 -19505181.04246  21074987.8364                   21074984.8054
 -20843686.76647 -16223867.66744  23379087.4614                   23379084.7894
 -15338456.00448 -11929760.46546  21258417.2734                   21258413.3404
 11  9 29  3  1 30.0000000  0  8G29G22G09G06G21G15G26G18
 -36452088.54747 -28387515.26146  21640270.1484   21640268.1054   17709880.30947
  13819224.59145                  23269599.3054                   23269594.2384
  21132607.97347                  16487450.28244                  23561125.7274
  23561122.9924   25848119.64546  20162096.42843  23979493.8134   23979490.0594
 -23907576.47348 -18614808.96746  20883737.1254                   20883732.7234
 -25093202.56247 -19535429.60346  21067600.8984                   21067597.7974
 -20831820.91047 -16214621.61443  23381345.3754                   23381342.9964
 -15450430.07848 -12017012.98146  21237109.6644                   21237105.4694
 11  9 29  3  2  0.0000000  0  8G29G22G09G06G21G15G26G18
 -36461898.94147 -28395159.76146  21638403.3914   21638400.6844   17557588.42647
  13700555.65945                  23240619.1724                   23240614.1174
  20952819.37147                  16347355.31444                  23526913.0704
  23526909.9344   25682134.52347  20032757.39343  23947908.1804   23947904.1684
 -24052738.32048 -18727922.10146  20856113.8984                   20856109.4104
 -25131559.65648 -19565318.25146  21060301.7734                   21060298.9344
 -20819673.63347 -16205156.22844  23383657.4844                   23383654.4844
 -15562245.33248 -12104141.74846  21215832.1484                   21215827.6994
 11  9 29  3  2 30.0000000  0  8G29G22G09G06G21G15G26G18
 -34895958.58647 -27174946.50646  21936391.4064   21936389.9964   18980868.84447
  14809605.38244                  23511459.6254                   23511455.1844
  22348588.81647                  17434967.90944                  23792518.9064
  23792515.8834   27091943.62946  21131309.90443  24216185.6724   24216181.7074
 -22622253.45348 -17613258.54646  21128326.0234                   21128321.3594
 -23594036.11348 -18367247.93646  21352882.8284                   21352879.5554
 -19231829.04747 -14967874.79344  23685813.8674                   23685811.5354
 -14098478.97348 -10963544.57746  21494377.0474                   21494373.1214
 11  9 29  3  3  0.0000000  0  8G29G22G09G06G21G15G26G18
 -34905113.42247 -27182080.16946  21934649.9224                   21934647.5164
  18828868.40647                  14691163.53944                  23482535.4534
  23482530.7194                   22169064.89847  17295079.15644  23758356.8754
  23758353.9534   26926695.05147  21002544.73243  24184739.9454   24184736.7114
 -22766972.49248 -17726026.62346  21100786.8204                   21100782.5944
 -23631479.48447 -18396424.58046  21345757.6174                   21345754.1214
 -19219132.29747 -14957981.26343  23688229.8204                   23688227.6374
 -14209982.21948 -11050430.21546  21473158.6484                   21473154.2814
 11  9 29  3  3 30.0000000  0  8G29G22G09G06G21G15G26G18
 -34913943.23447 -27188960.56246  21932969.4144                   21932967.2734
  18677014.69147  14572836.01144  23453638.4694                   23453633.4694
                                  21989679.57447  17155298.41044  23724220.2814
  23724218.6134   26761819.23846  20874070.19043  24153365.4534   24153362.1884
 -22911465.90248 -17838618.88346  21073290.7114                   21073286.3674
 -23668468.23447 -18425246.98246  21338718.6414                   21338715.5904
 -19206164.52047 -14947876.53243  23690698.0394                   23690694.9694
 -14321329.43448 -11137194.26346  21451970.2034                   21451966.1724
 11  9 29  3  4  0.0000000  0  8G29G22G09G06G21G15G26G18
 -34922450.40647 -27195589.55646  21931351.0704                   21931348.4734
  18525307.83247  14454622.93445  23424770.0084                   23424764.9414
                                  21810436.84447  17015628.82944  23690111.5394
  23690109.5744   26597318.60946  20745887.87443  24122061.6094   24122058.8874
 -23055730.95348 -17951033.18946  21045837.8524                   21045833.5124
 -23705003.97747 -18453716.38146  21331766.2034                   21331762.9454
 -19192928.51647 -14937562.82143  23693216.1954                   23693213.8524
 -14432520.55548 -11223836.68946  21430811.1414                   21430806.7584
 11  9 29  3  4 30.0000000  0  8G29G22G09G06G21G15G26G18
 -34930641.14847 -27201971.97446  21929791.6174                   21929789.7194
  18373743.86347  14336521.20344  23395927.9694                   23395922.2734
                                  21631337.06347  16876070.53744  23656030.6334
  23656028.1094   26433191.77046  20617996.86343  24090829.5944   24090827.0204
 -23199768.68748 -18063270.38246  21018428.8134                   21018424.2384
 -23741092.12148 -18481837.00746  21324898.8204                   21324895.5784
 -19179430.37547 -14927044.80143  23695784.9144                   23695782.2154
 -14543559.51648 -11310360.54646  21409681.0164                   21409676.8554
 11  9 29  3  5  0.0000000  0  8G29G22G09G06G21G15G26G18
 -34938515.26647 -27208107.68346  21928293.1334                   21928291.3524
  18222325.00847  14218532.51945  23367114.1644                   23367108.9304
                                  21452386.03147  16736628.23744  23621976.7664
  23621974.2974   26269443.20746  20490400.64143  24059669.1024   24059666.5314
 -23343574.74648 -18175327.04746  20991063.1884                   20991058.6024
 -23776732.78948 -18509608.95946  21318116.7504                   21318113.5234
 -19165671.37146 -14916323.54243  23698403.5944                   23698400.9304
 -14654445.06648 -11396764.86646  21388580.1174                   21388576.0744
 11  9 29  3  5 30.0000000  0  9G29G22G09G06G21G15G14G26G18
 -34946077.77347 -27214000.57246  21926854.6254                   21926851.9774
  18071048.35947  14100654.63744  23338327.0944                   23338320.9494
                                  21273584.81647  16597302.67344  23587951.6094
  23587949.6254   26106072.50046  20363098.80044  24028580.3754   24028577.7624
 -23487149.53148 -18287203.49446  20963741.6254                   20963737.3754
 -23811930.76248 -18537035.94546  21311418.8914                   21311415.7234
  35932711.61355  28022657.96952  24620209.5084                   24620208.4844
 -19151656.77346 -14905403.05343  23701069.7894                   23701067.1334
 -14765180.04348 -11483051.86246  21367508.0394                   21367504.0434
 11  9 29  3  6  0.0000000  0  9G29G22G09G06G21G15G14G26G18
 -34953336.35947 -27219656.63346  21925473.0474                   21925470.6764
  17919909.14547  13982883.86844  23309566.3134                   23309560.4884
                                  21094932.16447  16458092.80944  23553955.4694
  23553953.3554   25943076.94147  20236089.31644  23997562.7344   23997561.2814
 -23630495.40248 -18398901.57346  20936463.7734                   20936459.6524
 -23846693.25847 -18564123.59946  21304803.9064                   21304800.2734
  35729776.44156  27864527.07052  24581591.8754                   24581591.2854
 -19137394.64846 -14894289.75842  23703784.2114                   23703781.1254
 -14875769.93748 -11569225.79446  21346463.5704                   21346459.5554
 11  9 29  3  6 30.0000000  0  9G29G22G09G06G21G15G14G26G18
 -34960298.49247 -27225081.70846  21924148.5084                   21924146.3164
  17768902.05947  13865216.04044  23280830.9224                   23280824.9494
                                  20916426.66047  16318997.65844  23519987.2274
  23519984.9414   25780453.76247  20109369.99144  23966617.8674   23966614.9264
 -23773614.80948 -18510423.18246  20909228.9144                   20909224.9264
 -23881026.82448 -18590877.01446  21298270.0704                   21298266.4774
  35526932.45746  27706467.05142  24542992.0944                   24542990.7344
 -19122893.06246 -14882989.93042  23706543.4534                   23706541.9454
 -14986220.18748 -11655290.91446  21325445.8594                   21325441.6024
 11  9 29  3  7  0.0000000  0  9G29G22G09G06G21G15G14G26G18
 -34966968.23447 -27230278.93345  21922879.2584                   21922876.7734
  17618025.61747  13747650.02844  23252119.7274                   23252113.9144
                                  20738070.63747  16180018.96144  23486047.0864
  23486044.5004   25618203.72347  19982941.41044  23935742.7114   23935739.6134
 -23916506.89548 -18621767.65346  20882037.7584                   20882033.6054
 -23914935.11748 -18617299.05546  21291817.6804                   21291814.1024
  35324181.17246  27548479.22342  24504410.0394                   24504407.8714
 -19108156.16446 -14871506.68042  23709348.0704                   23709345.3284
 -15096532.43748 -11741248.49346  21304453.9144                   21304449.9654
 11  9 29  3  7 30.0000000  0  9G29G22G09G06G21G15G14G26G18
 -34973344.43747 -27235247.41846  21921666.1334                   21921663.7894
  17467282.91847  13630188.19344  23223434.3204                   23223428.9924
                                  20559871.34847  16041162.40844  23452136.8134
  23452134.0474   25456332.41847  19856807.96944  23904939.6954   23904937.0904
 -24059165.95348 -18732930.55646  20854890.7734                   20854886.4574
 -23948417.07448 -18643388.88746  21285446.2034                   21285443.0744
  35121528.37946  27390568.24743  24465846.8834                   24465844.2974
 -19093183.73446 -14859839.90243  23712197.4144                   23712194.9414
 -15206704.19948 -11827096.60146  21283489.1174                   21283484.6214
 11  9 29  3  8  0.0000000  0  9G29G22G09G06G21G15G14G26G18
 -34979427.42247 -27239987.43045  21920508.4224                   21920505.7544
  17316675.85947  13512832.10144  23194774.3204                   23194769.3794
                                  20381834.20347  15902432.19544  23418257.4534
  23418255.4654   25294843.94947  19730972.80544  23874209.7194   23874206.6484
 -24201587.65248 -18843908.49746  20827789.0004                   20827784.4224
 -23981472.96948 -18669146.72846  21279155.9694                   21279152.3554
  34918978.46546  27232737.37643  24427302.0164                   24427300.6294
 -19077976.67646 -14847990.30943  23715091.7504                   23715088.8714
 -15316733.61748 -11912833.81346  21262550.8984                   21262546.9144
 11  9 29  3  8 30.0000000  0  9G29G22G09G06G21G15G14G26G18
 -34985220.18047 -27244501.29945  21919406.3364                   21919403.4694
  17166203.90647  13395581.29544  23166140.2974                   23166135.4144
                                  20203962.71147  15763831.05044  23384409.9844
  23384407.5084   25133740.28147  19605437.51344  23843552.1724   23843549.4414
 -24343769.66448 -18954699.67146  20800732.5554                   20800727.9104
 -24014104.76648 -18694574.09946  21272946.2584                   21272943.0514
  34716533.97746  27074988.64943  24388777.7424                   24388777.1134
 -19062538.12947 -14835960.29943  23718029.2424                   23718026.2664
 -15426621.27048 -11998460.53146  21241639.8444                   21241636.0984
 11  9 29  3  9  0.0000000  0  9G29G22G09G06G21G15G14G26G18
 -34990727.48847 -27248792.73045  21918358.5474                   21918355.6564
  17015864.98847  13278434.13445  23137531.5084                   23137526.9104
                                  20026258.32447  15625360.12444  23350593.9924
  23350591.2584   24973021.32447  19480201.95744  23812968.5704   23812965.5824
 -24485712.10948 -19065304.16646  20773721.4774                   20773717.2774
 -24046316.97348 -18719674.52746  21266816.3674                   21266813.1294
  34514194.79355  26917322.08153  24350273.5944                   24350272.9924
 -19046873.39547 -14823754.08344  23721010.6724                   23721008.1604
 -15536370.12148 -12083979.11046  21220755.6954                   21220751.4844
 11  9 29  3  9 30.0000000  0  9G29G22G09G06G21G15G14G26G18
 -34995947.19947 -27252860.06045  21917365.0394                   21917362.6524
  16865663.28947  13161393.88544  23108949.1414                   23108944.5044
                                  19848729.59047  15487026.07144  23316811.0004
  23316808.9614   24812693.91047  19355271.54444  23782459.2814   23782456.0594
 -24627407.72748 -19175716.32146  20746757.8594                   20746753.4574
 -24078107.06248 -18744446.01646  21260767.1414                   21260763.4884
  34311968.60945  26759743.55942  24311790.4844                   24311790.1914
 -19030980.46147 -14811370.00844  23724034.7424                   23724032.8874
 -15645975.82448 -12169386.14446  21199898.4224                   21199894.2274
 11  9 29  3 10  0.0000000  0  9G29G22G09G06G21G15G14G26G18
 -35000883.35947 -27256706.44345  21916425.7274                   21916422.7974
  16715597.45747  13044459.52545  23080392.3054                   23080387.6214
                                  19671378.38347  15348830.33544  23283062.5864
  23283059.5864   24652758.53147  19230646.60443  23752024.3364   23752021.4224
 -24768855.41448 -19285935.29646  20719841.1174                   20719836.6374
 -24109478.92248 -18768891.62846  21254796.9454                   21254793.8134
  34109856.08246  26602253.54342  24273330.2274                   24273328.6374
 -19014864.11747 -14798811.87144  23727102.0704                   23727098.8524
 -15755440.47748 -12254683.27646  21179067.9304                   21179063.5824
 11  9 29  3 10 30.0000000  0  9G29G22G09G06G21G15G14G26G18
 -35005539.25847 -27260334.43845  21915539.4694                   21915537.1254
  16565666.31347  12927630.10645  23051861.5634                   23051856.4734
                                  19494208.02047  15210775.52744  23249348.5474
  23249345.7274   24493216.48846  19106328.09043  23721664.6954   23721661.4184
 -24910054.02748 -19395960.18146  20692972.1094                   20692967.5594
 -24140435.46548 -18793013.60446  21248906.3444                   21248902.9224
  33907859.18046  26444853.60743  24234891.7504                   24234889.7384
 -18998527.88746 -14786082.39144  23730210.1484                   23730207.7304
 -15864764.81648 -12339871.05046  21158264.1254                   21158260.0664
 11  9 29  3 11  0.0000000  0  9G29G22G09G06G21G15G14G26G18
 -33434495.11347 -26036144.21545  22214499.5704                   22214497.2624
  17991296.21547  14038510.58545  23323150.1334                   23323145.2934
                                  20892649.73047  16300470.39044  23515462.8834
  23515459.9654   25909497.26246  20209923.52443  23991173.6724   23991170.2464
 -23475574.53948 -18278183.94946  20965944.2424                   20965939.9804
 -22595555.69948 -17589211.19846  21542887.2664                   21542883.9304
  35281408.89546  27515152.25843  24496269.7034                   24496267.9414
 -17406553.55146 -13545582.94843  24033152.4534                   24033150.2384
 -14398524.10248 -11197345.81846  21437280.5164                   21437276.3594
 11  9 29  3 11 30.0000000  0  9G29G22G09G06G21G15G14G26G18
 -33438597.04347 -26039340.55346  22213718.9384                   22213716.1214
  17841634.58647  13921891.16945  23294671.0004                   23294665.5594
                                  20715852.74247  16162706.52944  23481819.2504
  23481816.6134   25750749.31346  20086223.77743  23960964.8594   23960961.2974
 -23616266.64148 -18387814.15346  20939171.5554                   20939167.3364
 -22625686.80948 -17612689.99146  21537153.5314                   21537150.4844
  35079651.37146  27357938.80643  24457875.6564                   24457874.6604
 -17389785.77046 -13532517.19743  24036343.9224                   24036340.8834
 -14507569.19148 -11282316.00846  21416529.8054                   21416525.6214
 11  9 29  3 12  0.0000000  0  9G29G22G09G06G21G15G14G26G18
 -33442425.84048 -26042324.04145  22212990.5164                   22212987.7584
  17692108.12147  13805377.05445  23266217.2274                   23266211.2704
                                  20539248.17647  16025092.63044  23448212.1484
  23448209.5984   25592401.66046  19962836.05043  23930832.2274   23930829.4264
 -23756701.30148 -18497243.74846  20912447.9844                   20912443.5204
 -22655408.30548 -17635849.59646  21531497.3524                   21531494.1024
  34878017.68846  27200821.83843  24419506.0784                   24419504.3134
 -17372806.15646 -13519286.38443  24039574.0234                   24039572.4774
 -14616474.87148 -11367177.57546  21395805.7114                   21395801.6564
 11  9 29  3 12 30.0000000  0  9G29G22G09G06G21G15G14G26G18
 -33445982.58647 -26045095.55045  22212313.7344                   22212311.2734
  17542717.14847  13688968.53445  23237788.9924                   23237782.7274
                                  20362840.61347  15887632.20344  23414643.6024
  23414640.5594   25434457.45346  19839762.63643  23900776.8984   23900773.6994
 -23896875.70748 -18606470.55646  20885773.1804                   20885768.8984
 -22684721.55148 -17658691.09646  21525919.5784                   21525916.2704
  34676511.45746  27043804.19043  24381160.0084                   24381159.0634
 -17355616.73846 -13505892.07842  24042845.8364                   24042842.3014
 -14725240.75048 -11451930.20246  21375108.1564                   21375104.4844
 11  9 29  3 13  0.0000000  0  9G29G22G09G06G21G15G14G26G18
 -33449273.12147 -26047659.63045  22211687.2424                   22211684.8204
  17393458.93047  13572663.43845  23209385.7974                   23209380.2544
                                  20186631.21147  15750326.19244  23381111.3364
  23381109.0984   25276915.75446  19717002.91943  23870796.9064   23870793.9574
 -24036790.15248 -18715494.79846  20859148.5634                   20859144.1134
 -22713631.63748 -17681218.44746  21520417.9774                   21520414.9264
  34475132.20746  26886885.59243  24342838.6174                   24342837.8014
 -17338223.28546 -13492338.78542  24046156.0394                   24046151.2624
 -14833870.07048 -11536576.41046  21354436.8204                   21354432.5864
 11  9 29  3 13 30.0000000  0  9G29G22G09G06G21G15G14G26G18
 -33452296.88747 -26050015.83646  22211111.9614                   22211109.5084
  17244336.31647  13456464.00545  23181008.3054                   23181002.8324
                                  20010626.47347  15613179.68344  23347618.5704
  23347616.7154   25119781.80546  19594560.81444  23840895.4844   23840893.0554
 -24176439.24247 -18824312.26446  20832574.1644                   20832569.7034
 -22742137.73048 -17703430.99846  21514993.6564                   21514990.2234
  34273885.43445  26730070.17743  24304541.0394                   24304541.5704
 -17320625.69546 -13478626.43442  24049504.2424                   24049500.7074
 -14942360.30547 -11621114.25246  21333791.8204                   21333787.8914
 11  9 29  3 14  0.0000000  0  9G29G22G09G06G21G15G14G26G18
 -33455060.99647 -26052169.71445  22210586.2734                   22210583.8914
  17095344.38747  13340366.42444  23152656.5314                   23152650.5944
                                  19834825.60947  15476192.01544  23314165.1564
  23314162.5314   24963052.90246  19472434.44244  23811071.4924   23811068.6334
 -24315824.90248 -18932924.46546  20806050.0164                   20806045.4064
 -22770246.54748 -17725333.97046  21509644.7114                   21509641.4574
  34072769.05946  26573356.37843  24266271.3054                   24266269.7074
 -17302831.58646 -13464760.87543  24052889.8984                   24052887.2894
 -15050716.16448 -11705547.39246  21313172.3284                   21313168.3054
 11  9 29  3 14 30.0000000  0 10G29G22G09G06G21G15G14G03G26G18
 -33457565.28547 -26054121.13945  22210109.1644                   22210107.6134
  16946485.59847  13224372.55044  23124329.8984                   23124323.2854
                                  19659235.15247  15339368.30144  23280751.5164
  23280749.0664   24806733.74246  19350627.27744  23781325.3524   23781322.5394
 -24454942.18048 -19041327.53146  20779576.6804                   20779572.5084
 -22797957.68448 -17746927.07446  21504371.4924                   21504368.2974
  33871788.55946  26416748.41043  24228025.8134                   24228024.6294
  37565157.73056  29290271.92853  24148370.0164                   24148366.9734
 -17284841.02746 -13450742.30043  24056314.3134                   24056311.2504
 -15158935.35248 -11789874.01646  21292578.7194                   21292574.7584
 11  9 29  3 15  0.0000000  0 10G29G22G09G06G21G15G14G03G26G18
 -33459821.52747 -26055879.27545  22209680.0004                   22209678.0514
  16797750.73847  13108475.29144  23096025.9614                   23096020.1724
                                  19483849.30147  15202704.02244  23247376.9454
  23247373.7734   24650817.12546  19229133.84444  23751654.8204   23751651.8244
 -24593797.78948 -19149526.70146  20753153.6334                   20753149.0354
 -22825282.80548 -17768219.37946  21499171.7584                   21499168.3014
  33670936.77346  26260240.70543  24189804.9924                   24189802.3054
  37401037.93846  29162386.43343  24117138.9144                   24117135.2234
 -17266666.16446 -13436580.13543  24059773.1644                   24059770.0084
 -15267027.67248 -11874101.80146  21272009.7274                   21272005.2624
 11  9 29  3 15 30.0000000  0 10G29G22G09G06G21G15G14G03G26G18
 -33461835.29747 -26057448.46645  22209297.1334                   22209294.7664
  16649136.62147  12992672.09044  23067745.2894                   23067739.5274
                                  19308668.99247  15066199.89944  23214041.2584
  23214038.2584   24495302.16447  19107953.38544  23722061.0784   23722058.5634
 -24732392.12148 -19257522.28446  20726779.8914                   20726775.6414
 -22852226.55148 -17789214.51646  21494044.4924                   21494041.1134
  33470213.50846  26103833.10643  24151608.3524                   24151605.3754
  37237333.44146  29034824.52843  24085986.4224                   24085983.5274
 -17248312.73447 -13422278.74543  24063265.0394                   24063263.3164
 -15374996.62148 -11958233.44146  21251463.7194                   21251459.6254
 11  9 29  3 16  0.0000000  0 10G29G22G09G06G21G15G14G03G26G18
 -33463608.80147 -26058830.45245  22208959.3524                   22208957.2154
  16500643.64847  12876963.26144  23039488.9384                   23039483.1214
                                  19133698.51647  14929859.31344  23180745.1564
  23180742.6884   24340191.38346  18987087.85244  23692544.6644   23692542.1334
 -24870722.29348 -19365312.02746  20700456.5004                   20700452.1724
 -22878790.81648 -17809913.95846  21488989.4924                   21488986.0944
  33269621.70746  25947527.99443  24113437.2894                   24113434.1724
  37074046.47746  28907587.75043  24054914.4144                   24054911.2584
 -17229782.94546 -13407839.95143  24066791.5084                   24066789.0554
 -15482841.76648 -12042268.61246  21230941.5004                   21230937.8554
 11  9 29  3 16 30.0000000  0 10G29G22G09G06G21G15G14G03G26G18
 -33465141.00847 -26060024.40345  22208667.9304                   22208665.3364
  16352274.98047  12761351.33145  23011255.0474                   23011249.3634
                                  18958944.84047  14793687.65644  23147490.7734
  23147487.9734   24185490.05146  18866541.36644  23663105.5084   23663103.2934
 -25008782.77348 -19472891.61346  20674184.2974                   20674179.8594
 -22904974.56248 -17830316.88546  21484006.4844                   21484003.6334
  33069167.55546  25791330.12942  24075291.8754                   24075288.2424
  36911183.29746  28780681.54643  24023923.0474                   24023919.0084
 -17211076.49246 -13393263.57443  24070350.8524                   24070349.4694
 -15590560.29348 -12126205.12946  21210443.4844                   21210439.3834
 11  9 29  3 17  0.0000000  0 10G29G22G09G06G21G15G14G03G26G18
 -33466435.24247 -26061032.93345  22208421.7584                   22208419.4184
  16204029.28547  12645835.20845  22983044.5164                   22983039.1214
                                  18784410.71147  14657687.04944  23114277.4064
  23114275.0744   24031199.04346  18746314.59844  23633745.4844   23633742.4774
 -25146572.03948 -19580259.86446  20647963.8984                   20647959.4804
 -22930781.09848 -17850425.88846  21479096.3134                   21479092.7304
  32868852.32846  25635240.46443  24037172.9614                   24037169.8094
  36748744.93046  28654106.15242  23993011.2424                   23993007.2304
 -17192197.23046 -13378552.47643  24073943.4304                   24073941.8054
 -15698153.49648 -12210043.98646  21189969.2664                   21189964.6334
 11  9 29  3 17 30.0000000  0 10G29G22G09G06G21G15G14G03G26G18
 -33467494.60547 -26061858.44845  22208220.0634                   22208217.3674
  16055906.59847  12530414.94045  22954858.0084                   22954852.5314
                                  18610100.39847  14521860.86444  23081107.1804
  23081105.2384   23877320.41846  18626409.18644  23604462.7344   23604460.3014
 -25284087.51248 -19687414.78246  20621795.4614                   20621791.6054
 -22956212.64148 -17870242.68746  21474256.7814                   21474253.4734
  32668678.69946  25479261.21143  23999081.7034                   23999078.7344
  36586733.77346  28527863.66042  23962181.5864                   23962176.8954
 -17173147.82446 -13363708.85443  24077569.0084                   24077566.7774
 -15805621.61748 -12293785.37046  21169518.8674                   21169514.0634
 11  9 29  3 18  0.0000000  0 10G29G22G09G06G21G15G14G03G26G18
 -33468317.72747 -26062499.86545  22208063.4534                   22208061.0664
  15907910.50047  12415093.31445  22926694.5554                   22926689.7664
                                  18436021.12947  14386214.68544  23047981.3754
  23047979.1024   23723859.98046  18506829.67544  23575260.4614   23575258.4804
 -25421322.98848 -19794351.51646  20595680.8284                   20595676.3794
 -22981267.90248 -17889766.29146  21469488.7974                   21469485.4694
  32468652.73846  25323397.00243  23961017.6644                   23961015.7974
  36425155.66046  28401958.57442  23931435.1564                   23931429.5394
 -17153927.25446 -13348731.84843  24081226.5164                   24081224.4064
 -15912961.42648 -12377426.78546  21149092.2974                   21149088.3444
 11  9 29  3 18 30.0000000  0 10G29G22G09G06G21G15G14G03G26G18
 -33468908.58647 -26062960.27945  22207950.8134                   22207948.6254
  15760039.45347  12299869.13245  22898556.1564                   22898550.5744
                                  18262175.21947  14250750.37644  23014900.0234
  23014897.1254   23570818.12546  18387576.25044  23546137.7504   23546134.9804
 -25558277.36748 -19901069.21146  20569619.0634                   20569614.6054
 -23005950.21548 -17908999.26646  21464791.6954                   21464788.8164
  32268775.74646  25167648.88443  23922981.4774                   23922979.8134
  36264011.37546  28276391.59442  23900769.5864                   23900766.0124
 -17134539.87146 -13333624.88443  24084915.4924                   24084912.6174
 -16020174.55948 -12460969.48746  21128690.5864                   21128686.7584
 11  9 29  3 19  0.0000000  0 10G29G22G09G06G21G15G14G03G26G18
 -31893847.81647 -24835640.24745  22507675.4774                   22507672.7154
  17187720.01647  13412347.51045  23170234.4774                   23170229.5314
                                  19663993.64547  15343076.44244  23281657.1024
  23281654.2034   24993623.50046  19496255.77143  23816888.5864   23816885.4064
 -24119522.28548 -18779961.35446  20843404.9064                   20843400.7664
 -21454839.30148 -16700341.41546  21759958.2424                   21759955.3674
  33644478.50446  26239625.22143  24184769.2664                   24184765.9494
  37678730.41446  29378770.03143  24169981.1954                   24169979.2274
 -15539567.35546 -12090789.18742  24388427.9144                   24388426.2734
 -14551836.27748 -11316809.78546  21408106.1644                   21408101.9884
 11  9 29  3 19 30.0000000  0 10G29G22G09G06G21G15G14G03G26G18
 -31893980.73047 -24835743.83345  22507649.4144                   22507647.5434
  17040099.14547  13297318.27445  23142143.4774                   23142138.4884
                                  19490625.88347  15207984.70744  23248666.1724
  23248663.8364   24841425.35546  19377659.82843  23787926.6414   23787922.6254
 -24255906.88348 -18886235.06846  20817451.8284                   20817447.6684
 -21478781.80148 -16718997.92946  21755402.3594                   21755398.9964
  33444907.36746  26084115.36743  24146791.9304                   24146789.0594
  37518461.39546  29253885.12243  24139483.7344                   24139481.1644
 -15519854.09445 -12075428.28142  24392179.1804                   24392177.5864
 -14658796.71548 -11400155.57646  21387752.1024                   21387747.7154
